[[{"header":{"parameterUnit":"m.s-1","parameterCategory":1,"la1":30.6,"la2":28.766,"lo1":-90.7593,"lo2":-88.6598,"dy":0.0162,"dx":0.0183,"nx":116,"ny":114,"refTime":"2024-06-04T18:00:00:Z","depth":0,"parameterNumber":2,"parameterNumberName":"U-component_of_WINDS"},"data":[0.0,0.0,0.0,0.0,0.0,0.0,0.0,0.0,0.0,0.0,0.0,0.0,0.0,0.0,0.0,0.0,0.0,0.0,0.0,0.0,0.0,0.0,0.0,0.0,0.0,0.0,0.0,0.0,0.0,0.0,0.0,0.0,0.0,0.0,0.0,0.0,0.0,0.0,0.0,0.0,0.0,0.0,0.0,0.0,0.0,0.0,0.0,0.0,0.0,0.0,0.0,0.0,0.0,0.0,0.0,0.0,0.0,0.0,0.0,0.0,0.0,0.0,0.0,0.0,0.0,0.0,0.0,0.0,0.0,0.0,0.0,0.0,0.0,0.0,0.0,0.0,0.0,0.0,0.0,0.0,0.0,0.0,0.0,0.0,0.0,0.0,0.0,0.0,0.0,0.0,0.0,0.0,0.0,0.0,0.0,0.0,0.0,0.0,0.0,0.0,0.0,0.0,0.0,0.0,0.0,0.0,0.0,0.0,0.0,0.0,0.0,0.0,0.0,0.0,0.0,0.0,0.0,0.0,0.0,0.0,0.0,0.0,0.0,0.0,0.0,0.0,0.0,0.0,0.0,0.0,0.0,0.0,0.0,0.0,0.0,0.0,0.0,0.0,0.0,0.0,0.0,0.0,0.0,0.0,0.0,0.0,0.0,0.0,0.0,0.0,0.0,0.0,0.0,0.0,0.0,0.0,0.0,0.0,0.0,0.0,0.0,0.0,0.0,0.0,0.0,0.0,0.0,0.0,0.0,0.0,0.0,0.0,0.0,0.0,0.0,0.0,0.0,0.0,0.0,0.0,0.0,0.0,0.0,0.0,0.0,0.0,0.0,0.0,0.0,0.0,0.0,0.0,0.0,0.0,0.0,0.0,0.0,0.0,0.0,0.0,0.0,0.0,0.0,0.0,0.0,0.0,0.0,0.0,0.0,0.0,0.0,0.0,0.0,0.0,0.0,0.0,0.0,0.0,0.0,0.0,0.0,0.0,0.0,0.0,0.0,0.0,0.0,0.0,0.0,0.0,0.0,0.0,0.0,0.0,0.0,0.0,0.0,0.0,0.0,0.0,0.0,0.0,0.0,0.0,0.0,0.0,0.0,0.0,0.0,0.0,0.0,0.0,0.0,0.0,0.0,0.0,0.0,0.0,0.0,0.0,0.0,0.0,0.0,0.0,0.0,0.0,0.0,0.0,0.0,0.0,0.0,0.0,0.0,0.0,0.0,0.0,0.0,0.0,0.0,0.0,0.0,0.0,0.0,0.0,0.0,0.0,0.0,0.0,0.0,0.0,0.0,0.0,0.0,0.0,0.0,0.0,0.0,0.0,0.0,0.0,0.0,0.0,0.0,0.0,0.0,0.0,0.0,0.0,0.0,0.0,0.0,0.0,0.0,0.0,0.0,0.0,0.0,0.0,0.0,0.0,0.0,0.0,0.0,0.0,0.0,0.0,0.0,0.0,0.0,0.0,0.0,0.0,0.0,0.0,0.0,0.0,0.0,0.0,0.0,0.0,0.0,0.0,0.0,0.0,0.0,0.0,0.0,0.0,0.0,0.0,0.0,0.0,0.0,0.0,0.0,0.0,0.0,0.0,0.0,0.0,0.0,0.0,0.0,0.0,0.0,0.0,0.0,0.0,0.0,0.0,0.0,0.0,0.0,0.0,0.0,0.0,0.0,0.0,0.0,0.0,0.0,0.0,0.0,0.0,0.0,0.0,0.0,0.0,0.0,0.0,0.0,0.0,0.0,0.0,0.0,0.0,0.0,0.0,0.0,0.0,0.0,0.0,0.0,0.0,0.0,0.0,0.0,0.0,0.0,0.0,0.0,0.0,0.0,0.0,0.0,0.0,0.0,0.0,0.0,0.0,0.0,0.0,0.0,0.0,0.0,0.0,0.0,0.0,0.0,0.0,0.0,0.0,0.0,0.0,0.0,0.0,0.0,0.0,0.0,0.0,0.0,0.0,0.0,0.0,0.0,0.0,0.0,0.0,0.0,0.0,0.0,0.0,0.0,0.0,0.0,0.0,0.0,0.0,0.0,0.0,0.0,0.0,0.0,0.0,0.0,0.0,0.0,0.0,0.0,0.0,0.0,0.0,0.0,0.0,0.0,0.0,0.0,0.0,0.0,0.0,0.0,0.0,0.0,0.0,0.0,0.0,0.0,0.0,0.0,0.0,0.0,0.0,0.0,0.0,0.0,0.0,0.0,0.0,0.0,0.0,0.0,0.0,0.0,0.0,0.0,0.0,0.0,0.0,0.0,0.0,0.0,0.0,0.0,0.0,0.0,0.0,0.0,0.0,0.0,0.0,0.0,0.0,0.0,0.0,0.0,0.0,0.0,0.0,0.0,0.0,0.0,0.0,0.0,0.0,0.0,0.0,0.0,0.0,0.0,0.0,0.0,0.0,0.0,0.0,0.0,0.0,0.0,0.0,0.0,0.0,0.0,0.0,0.0,0.0,0.0,0.0,0.0,0.0,0.0,0.0,0.0,0.0,0.0,0.0,0.0,0.0,0.0,0.0,0.0,0.0,0.0,0.0,0.0,0.0,0.0,0.0,0.0,0.0,0.0,0.0,0.0,0.0,0.0,0.0,0.0,0.0,0.0,0.0,0.0,0.0,0.0,0.0,0.0,0.0,0.0,0.0,0.0,0.0,0.0,0.0,0.0,0.0,0.0,0.0,0.0,0.0,0.0,0.0,0.0,0.0,0.0,0.0,0.0,0.0,0.0,0.0,0.0,0.0,0.0,0.0,0.0,0.0,0.0,0.0,0.0,0.0,0.0,0.0,0.0,0.0,0.0,0.0,0.0,0.0,0.0,0.0,0.0,0.0,0.0,0.0,0.0,0.0,0.0,0.0,0.0,0.0,0.0,0.0,0.0,0.0,0.0,0.0,0.0,0.0,0.0,0.0,0.0,0.0,0.0,0.0,0.0,0.0,0.0,0.0,0.0,0.0,0.0,0.0,0.0,0.0,0.0,0.0,0.0,0.0,0.0,0.0,0.0,0.0,0.0,0.0,0.0,0.0,0.0,0.0,0.0,0.0,0.0,0.0,0.0,0.0,0.0,0.0,0.0,0.0,0.0,0.0,0.0,0.0,0.0,0.0,0.0,0.0,0.0,0.0,0.0,0.0,0.0,0.0,0.0,0.0,0.0,0.0,0.0,0.0,0.0,0.0,0.0,0.0,0.0,0.0,0.0,0.0,0.0,0.0,0.0,0.0,0.0,0.0,0.0,0.0,0.0,0.0,0.0,0.0,0.0,0.0,0.0,0.0,0.0,0.0,0.0,0.0,0.0,0.0,0.0,0.0,0.0,0.0,0.0,0.0,0.0,0.0,0.0,0.0,0.0,0.0,0.0,0.0,0.0,0.0,0.0,0.0,0.0,0.0,0.0,0.0,0.0,0.0,0.0,0.0,0.0,0.0,0.0,0.0,0.0,0.0,0.0,0.0,0.0,0.0,0.0,0.0,0.0,0.0,0.0,0.0,0.0,0.0,0.0,0.0,0.0,0.0,0.0,0.0,0.0,0.0,0.0,0.0,0.0,0.0,0.0,0.0,0.0,0.0,0.0,0.0,0.0,0.0,0.0,0.0,0.0,0.0,0.0,0.0,0.0,0.0,0.0,0.0,0.0,0.0,0.0,0.0,0.0,0.0,0.0,0.0,0.0,0.0,0.0,0.0,0.0,0.0,0.0,0.0,0.0,0.0,0.0,0.0,0.0,0.0,0.0,0.0,0.0,0.0,0.0,0.0,0.0,0.0,0.0,0.0,0.0,0.0,0.0,0.0,0.0,0.0,0.0,0.0,0.0,0.0,0.0,0.0,0.0,0.0,0.0,0.0,0.0,0.0,0.0,0.0,0.0,0.0,0.0,0.0,0.0,0.0,0.0,0.0,0.0,0.0,0.0,0.0,0.0,0.0,0.0,0.0,0.0,0.0,0.0,0.0,0.0,0.0,0.0,0.0,0.0,0.0,0.0,0.0,0.0,0.0,0.0,0.0,0.0,0.0,0.0,0.0,0.0,0.0,0.0,0.0,0.0,0.0,0.0,0.0,0.0,0.0,0.0,0.0,0.0,0.0,0.0,0.0,0.0,0.0,0.0,0.0,0.0,0.0,0.0,0.0,0.0,0.0,0.0,0.0,0.0,0.0,0.0,0.0,0.0,0.0,0.0,0.0,0.0,0.0,0.0,0.0,0.0,0.0,0.0,0.0,0.0,0.0,0.0,0.0,0.0,0.0,0.0,0.0,0.0,0.0,0.0,0.0,0.0,0.0,0.0,0.0,0.0,0.0,0.0,0.0,0.0,0.0,0.0,0.0,0.0,0.0,0.0,0.0,0.0,0.0,0.0,0.0,0.0,0.0,0.0,0.0,0.0,0.0,0.0,0.0,0.0,0.0,0.0,0.0,0.0,0.0,0.0,0.0,0.0,0.0,0.0,0.0,0.0,0.0,0.0,0.0,0.0,0.0,0.0,0.0,0.0,0.0,0.0,0.0,0.0,0.0,0.0,0.0,0.0,0.0,0.0,0.0,0.0,0.0,0.0,0.0,0.0,0.0,0.0,0.0,0.0,0.0,0.0,0.0,0.0,0.0,0.0,0.0,0.0,0.0,0.0,0.0,0.0,0.0,0.0,0.0,0.0,0.0,0.0,0.0,0.0,0.0,0.0,0.0,0.0,0.0,0.0,0.0,0.0,0.0,0.0,0.0,0.0,0.0,0.0,0.0,0.0,0.0,0.0,0.0,0.0,0.0,0.0,0.0,0.0,0.0,0.0,0.0,0.0,0.0,0.0,0.0,0.0,0.0,0.0,0.0,0.0,0.0,0.0,0.0,0.0,0.0,0.0,0.0,0.0,0.0,0.0,0.0,0.0,0.0,0.0,0.0,0.0,0.0,0.0,0.0,0.0,0.0,0.0,0.0,0.0,0.0,0.0,0.0,0.0,0.0,0.0,0.0,0.0,0.0,0.0,0.0,0.0,0.0,0.0,0.0,0.0,0.0,0.0,0.0,0.0,0.0,0.0,0.0,0.0,0.0,0.0,0.0,0.0,0.0,0.0,0.0,0.0,0.0,0.0,0.0,0.0,0.0,0.0,0.0,0.0,0.0,0.0,0.0,0.0,0.0,0.0,0.0,0.0,0.0,0.0,0.0,0.0,0.0,0.0,0.0,0.0,0.0,0.0,0.0,0.0,0.0,0.0,0.0,0.0,0.0,0.0,0.0,0.0,0.0,0.0,0.0,0.0,0.0,0.0,0.0,0.0,0.0,0.0,0.0,0.0,0.0,0.0,0.0,0.0,0.0,0.0,0.0,0.0,0.0,0.0,0.0,0.0,0.0,0.0,0.0,0.0,0.0,0.0,0.0,0.0,0.0,0.0,0.0,0.0,0.0,0.0,0.0,0.0,0.0,0.0,0.0,0.0,0.0,0.0,0.0,0.0,0.0,0.0,0.0,0.0,0.0,0.0,0.0,0.0,0.0,0.0,0.0,0.0,0.0,0.0,0.0,0.0,0.0,0.0,0.0,0.0,0.0,0.0,0.0,0.0,0.0,0.0,0.0,0.0,0.0,0.0,0.0,0.0,0.0,0.0,0.0,0.0,0.0,0.0,0.0,0.0,0.0,0.0,0.0,0.0,0.0,0.0,0.0,0.0,0.0,0.0,0.0,0.0,0.0,0.0,0.0,0.0,0.0,0.0,0.0,0.0,0.0,0.0,0.0,0.0,0.0,0.0,0.0,0.0,0.0,0.0,0.0,0.0,0.0,0.0,0.0,0.0,0.0,0.0,0.0,0.0,0.0,0.0,0.0,0.0,0.0,0.0,0.0,0.0,0.0,0.0,0.0,0.0,0.0,0.0,0.0,0.0,0.0,0.0,0.0,0.0,0.0,0.0,0.0,0.0,0.0,0.0,0.0,0.0,0.0,0.0,0.0,0.0,0.0,0.0,0.0,0.0,0.0,0.0,0.0,0.0,0.0,0.0,0.0,0.0,0.0,0.0,0.0,0.0,0.0,0.0,0.0,0.0,0.0,0.0,0.0,0.0,0.0,0.0,0.0,0.0,0.0,0.0,0.0,0.0,0.0,0.0,0.0,0.0,0.0,0.0,0.0,0.0,0.0,-3.1011,0.0,0.0,0.0,0.0,0.0,0.0,0.0,0.0,0.0,0.0,0.0,0.0,0.0,0.0,0.0,0.0,0.0,0.0,0.0,0.0,0.0,0.0,0.0,0.0,-1.5955,-1.6866,-1.7039,-1.7064,-1.7126,-1.7313,0.0,0.0,0.0,0.0,0.0,-1.7219,-1.669,-1.657,-1.6903,-1.7049,-1.7698,-1.8797,-1.8949,-1.7785,-1.56,0.0,0.0,0.0,0.0,0.0,0.0,0.0,0.0,0.0,0.0,0.0,0.0,0.0,0.0,0.0,0.0,0.0,0.0,0.0,0.0,0.0,0.0,0.0,0.0,0.0,0.0,0.0,0.0,0.0,0.0,0.0,0.0,0.0,0.0,0.0,0.0,0.0,0.0,0.0,0.0,0.0,0.0,0.0,0.0,0.0,0.0,0.0,0.0,0.0,0.0,0.0,0.0,0.0,0.0,0.0,0.0,0.0,0.0,0.0,0.0,0.0,0.0,0.0,0.0,0.0,0.0,0.0,0.0,0.0,0.0,0.0,-3.2425,0.0,0.0,0.0,0.0,0.0,0.0,0.0,0.0,0.0,0.0,0.0,0.0,0.0,0.0,0.0,0.0,0.0,0.0,0.0,0.0,0.0,-1.4296,-1.4521,-1.5794,-1.6694,-1.6873,-1.6791,-1.6801,-1.6965,-1.7117,0.0,0.0,0.0,-1.7681,-1.7624,-1.7403,-1.7658,-1.8395,-1.9172,-2.046,-2.2149,-2.282,-2.0984,-1.7141,-1.6526,0.0,0.0,0.0,0.0,0.0,0.0,0.0,0.0,0.0,0.0,0.0,0.0,0.0,0.0,0.0,0.0,0.0,0.0,0.0,0.0,0.0,0.0,0.0,0.0,0.0,0.0,0.0,0.0,0.0,0.0,0.0,0.0,0.0,0.0,0.0,0.0,0.0,0.0,0.0,0.0,0.0,0.0,0.0,0.0,0.0,0.0,0.0,0.0,0.0,0.0,0.0,0.0,0.0,0.0,0.0,0.0,0.0,0.0,0.0,0.0,0.0,0.0,0.0,-3.9604,-4.0397,-4.2137,-4.1417,-4.2031,-4.3349,-3.7908,-3.6671,-3.821,-3.4709,0.0,0.0,0.0,0.0,0.0,0.0,0.0,0.0,0.0,0.0,0.0,0.0,0.0,0.0,0.0,0.0,0.0,0.0,0.0,-1.387,-1.3908,-1.5126,-1.6282,-1.7151,-1.6711,-1.6741,-1.7598,-1.7164,0.0,0.0,-1.7187,-1.7224,-1.6942,-1.7175,-1.7765,-1.8738,-2.1332,-2.3055,-2.3882,-2.4506,-2.4301,-2.3348,-2.1597,-2.0446,-1.9689,0.0,0.0,0.0,0.0,0.0,0.0,0.0,0.0,0.0,0.0,0.0,0.0,0.0,0.0,0.0,0.0,0.0,0.0,0.0,0.0,0.0,0.0,0.0,0.0,0.0,0.0,0.0,0.0,0.0,0.0,0.0,0.0,0.0,0.0,0.0,0.0,0.0,0.0,0.0,0.0,0.0,-2.6387,-2.7943,0.0,0.0,0.0,0.0,0.0,0.0,0.0,0.0,0.0,0.0,0.0,0.0,0.0,-4.023,-4.1679,-4.2601,-4.3225,-4.3533,-4.4943,-4.5467,-4.5139,-4.5015,-4.5444,-4.6225,-4.4733,0.0,-4.0578,-3.8159,0.0,0.0,0.0,0.0,0.0,0.0,0.0,0.0,0.0,0.0,0.0,0.0,0.0,0.0,0.0,0.0,0.0,0.0,0.0,0.0,0.0,-1.6637,-1.7916,-1.9106,-1.929,-1.9039,-1.8345,-1.8206,-1.7653,-1.6561,-1.6837,-1.6939,-1.6802,-1.7827,-1.9577,-2.206,-2.4097,-2.5644,-2.6702,-2.7336,-2.7555,-2.7375,-2.613,-2.3941,-2.1094,-1.9226,0.0,0.0,0.0,0.0,0.0,0.0,0.0,0.0,0.0,0.0,0.0,0.0,0.0,0.0,0.0,0.0,0.0,0.0,0.0,0.0,0.0,0.0,0.0,0.0,0.0,0.0,0.0,0.0,0.0,0.0,0.0,0.0,0.0,0.0,0.0,0.0,0.0,0.0,0.0,-2.5018,-2.774,-2.8874,-2.9414,-2.9262,0.0,0.0,0.0,0.0,0.0,0.0,0.0,0.0,0.0,-4.0752,-4.2608,-4.4042,-4.4947,-4.6208,-4.7084,-4.7522,-4.8276,-4.8697,-4.8798,-4.8798,-4.8748,-4.8595,-4.7868,-4.6583,-4.4739,-4.1644,-3.9292,-3.7432,0.0,0.0,0.0,0.0,-3.3582,-3.4539,0.0,0.0,0.0,0.0,0.0,0.0,0.0,0.0,0.0,0.0,0.0,0.0,-1.6816,-1.8147,-1.957,-2.1081,-2.135,-2.0887,-1.9555,-1.9229,-1.8419,-1.6994,-1.6929,-1.7034,-1.7286,-1.9269,-2.1819,-2.4859,-2.6542,-2.7949,-2.9101,-2.9774,-3.0088,-3.0058,-2.9385,-2.6901,-2.3077,-2.1099,-1.9421,-1.7915,0.0,0.0,0.0,0.0,0.0,0.0,0.0,0.0,0.0,0.0,0.0,0.0,0.0,0.0,0.0,0.0,0.0,0.0,0.0,0.0,0.0,0.0,0.0,0.0,0.0,0.0,0.0,0.0,0.0,0.0,0.0,0.0,0.0,0.0,0.0,0.0,0.0,-2.7418,-2.982,-3.0598,-3.2171,-3.2527,0.0,0.0,0.0,0.0,0.0,0.0,-3.9962,-4.1556,-4.2946,-4.4197,-4.6429,-4.7712,-4.7919,-4.9018,-4.9847,-5.0371,-5.0371,-5.0676,-5.1185,-5.1185,-5.0913,-5.0338,-4.9593,-4.8968,-4.8206,-4.4637,-4.2405,-4.1085,-3.9208,-3.8007,-3.7317,-3.7299,-3.6387,-3.5636,0.0,0.0,0.0,0.0,0.0,0.0,0.0,0.0,0.0,0.0,0.0,-1.6233,-1.7519,-1.8852,-2.0456,-2.2433,-2.147,-2.0991,0.0,-1.9783,-1.8674,-1.857,-1.7746,-1.7685,-1.859,-2.1749,-2.4096,-2.5555,-2.8158,-2.9786,-3.0417,-3.1077,-3.1406,-3.1376,-3.0688,-2.925,-2.7121,-2.4485,-2.2415,-2.0666,-1.7992,0.0,0.0,0.0,0.0,0.0,0.0,0.0,0.0,0.0,0.0,0.0,0.0,0.0,0.0,0.0,0.0,0.0,0.0,0.0,0.0,0.0,0.0,0.0,0.0,0.0,0.0,0.0,0.0,0.0,0.0,0.0,0.0,0.0,0.0,0.0,0.0,0.0,0.0,-3.5177,-3.7246,0.0,0.0,0.0,0.0,-3.8129,-4.0274,-4.1899,-4.2758,-4.6111,-4.7908,-4.767,-4.9742,-5.0909,-5.098,-5.1065,-5.1116,-5.115,-5.115,-5.1151,-5.1185,-5.1185,-5.1168,-5.1083,-5.0355,-5.0016,-4.9746,-4.6769,-4.506,-4.4293,-4.342,-4.2625,-4.1948,-4.1955,-4.1009,-3.999,0.0,0.0,0.0,0.0,0.0,-1.1805,-1.1805,-1.2732,-1.36,-1.4032,-1.6188,-1.8328,-2.0079,-2.1809,-2.349,-2.5084,-2.4762,-2.4044,-2.2996,-2.1485,-2.0243,-1.9375,-1.9019,-2.0195,-2.3086,-2.4298,-2.6168,-2.8757,-2.9714,-3.0507,-3.1137,-3.1391,-3.1511,-3.1496,-3.1256,-3.0537,-2.928,-2.6647,-2.4695,-2.3128,-2.0481,-1.8271,0.0,0.0,0.0,0.0,0.0,0.0,0.0,0.0,0.0,0.0,0.0,0.0,0.0,0.0,0.0,0.0,0.0,0.0,0.0,0.0,0.0,0.0,0.0,0.0,0.0,0.0,0.0,0.0,0.0,0.0,0.0,0.0,0.0,0.0,0.0,0.0,0.0,-3.6992,-3.9478,0.0,-3.9343,-4.0324,-4.1434,-4.2372,-4.4514,-4.6074,-4.6817,-4.902,-5.0174,-5.0031,-5.1235,-5.1864,-5.1911,-5.2435,-5.2689,-5.2689,-5.2689,-5.2689,-5.2689,-5.2689,-5.2401,-5.1894,-5.1623,-5.1251,-5.0693,-4.9154,-4.7817,-4.665,-4.5889,-4.5432,-4.5196,-4.5196,-4.4631,-4.3905,0.0,0.0,0.0,0.0,-1.1805,-1.1805,-1.1805,-1.293,-1.4124,-1.502,-1.7401,-1.9884,-2.2099,-2.3887,-2.5495,-2.6811,-2.6746,-2.5929,-2.4388,-2.2862,-2.155,-2.0427,-2.0801,-2.2443,-2.554,-2.6497,-2.8113,-3.0507,-3.0731,-3.1062,-3.1511,-3.1511,-3.1511,-3.1511,-3.1511,-3.1256,-3.0717,-2.8742,-2.6886,-2.5068,-2.29,-2.0823,-1.885,0.0,0.0,0.0,0.0,0.0,0.0,0.0,0.0,0.0,0.0,0.0,0.0,0.0,0.0,0.0,0.0,0.0,0.0,0.0,0.0,0.0,0.0,0.0,0.0,0.0,0.0,0.0,0.0,0.0,0.0,0.0,0.0,0.0,0.0,0.0,-3.8193,-3.8937,-4.1863,-4.3521,-4.2794,-4.4035,-4.5365,-4.6392,-4.8042,-4.9229,-4.9709,-5.1176,-5.1873,-5.1588,-5.2317,-5.2706,-5.2706,-5.323,-5.3501,-5.3501,-5.3501,-5.3501,-5.3501,-5.3501,-5.3213,-5.2689,-5.2418,-5.2029,-5.1522,-5.0777,-4.9746,-4.8578,-4.7834,-4.753,-4.7513,-4.7259,-4.7094,-4.6912,0.0,0.0,0.0,-1.1805,-1.1805,-1.1805,-1.1835,-1.2945,-1.4303,-1.5679,-1.8135,-2.0756,-2.3355,-2.4852,-2.6183,-2.748,-2.6971,-2.6273,-2.5615,-2.3744,-2.2418,-2.1814,-2.3026,-2.4358,-2.5734,-2.8293,-2.9909,-3.0537,-3.1182,-3.1511,-3.1511,-3.1511,-3.1511,-3.1511,-3.1511,-3.1511,-3.1466,-3.0821,-2.9056,-2.6602,-2.5232,-2.3528,-2.153,0.0,0.0,0.0,0.0,0.0,0.0,0.0,0.0,0.0,0.0,0.0,0.0,0.0,0.0,0.0,0.0,0.0,0.0,0.0,0.0,0.0,0.0,0.0,0.0,0.0,0.0,0.0,0.0,0.0,0.0,0.0,0.0,0.0,-3.5769,-3.8304,-4.0502,-4.1255,-4.4604,-4.6599,-4.5906,-4.7145,-4.8612,-5.0016,-5.0854,-5.124,-5.1249,-5.2643,-5.3101,-5.2366,-5.3095,-5.3501,-5.3501,-5.3501,-5.3501,-5.3501,-5.3501,-5.3501,-5.3501,-5.3501,-5.3501,-5.3467,-5.2689,-5.2334,-5.2283,-5.1555,-5.0811,-5.0084,-4.9323,-4.9018,-4.8917,-4.8206,-4.8382,-4.9005,0.0,0.0,-1.1512,-1.1757,-1.1805,-1.1954,-1.2445,-1.3256,-1.4604,-1.6876,-1.9495,-2.1964,-2.4081,-2.5959,-2.721,-2.757,-2.6527,-2.56,-2.4918,-2.3056,-2.2517,-2.3752,-2.5525,-2.732,-2.9116,-2.9879,-3.0582,-3.1227,-3.1406,-3.1511,-3.1511,-3.1511,-3.1511,-3.1511,-3.1511,-3.1511,-3.1496,-3.1301,-3.0524,-2.9265,-2.7485,-2.5869,-2.4343,0.0,0.0,0.0,0.0,0.0,0.0,0.0,0.0,0.0,0.0,0.0,0.0,0.0,0.0,0.0,0.0,0.0,0.0,0.0,0.0,0.0,0.0,0.0,0.0,0.0,0.0,0.0,0.0,0.0,0.0,0.0,-3.4672,-3.6837,-3.7226,-4.0798,-4.3639,-4.4384,-4.6786,-4.8528,-4.8849,-4.9746,-5.0441,-5.0879,-5.2125,-5.2595,-5.2028,-5.343,-5.3923,-5.3196,-5.3382,-5.3501,-5.3501,-5.3501,-5.3501,-5.3501,-5.3501,-5.3501,-5.3501,-5.3501,-5.3501,-5.3501,-5.3264,-5.3179,-5.3112,-5.2334,-5.1877,-5.1572,-5.0287,-4.9475,-4.8984,-4.8781,-4.8846,-4.8992,0.0,-1.0839,-1.1412,-1.1736,-1.1805,-1.1974,-1.2461,-1.325,-1.4685,-1.7131,-1.9685,-2.2024,-2.3962,-2.5719,-2.6752,-2.6752,-2.6048,-2.5091,-2.3879,-2.2742,-2.3101,-2.5337,-2.7096,-2.8786,-3.0462,-3.0791,-3.1107,-3.1511,-3.1511,-3.1511,-3.1511,-3.1511,-3.1511,-3.1511,-3.1511,-3.1511,-3.1511,-3.1511,-3.1271,-3.0806,-2.937,-2.8188,-2.7096,-2.5465,-2.4223,-2.3176,-2.1964,-2.1096,-2.0486,-2.0094,0.0,0.0,0.0,0.0,0.0,0.0,0.0,0.0,0.0,0.0,0.0,0.0,0.0,0.0,0.0,0.0,0.0,0.0,0.0,0.0,0.0,0.0,0.0,0.0,-3.7475,-3.9779,-4.0577,-4.3217,-4.5449,-4.6515,-4.8308,-4.9746,-5.049,-5.1234,-5.1809,-5.2147,-5.2977,-5.328,-5.284,-5.3657,-5.3929,-5.3501,-5.3501,-5.3501,-5.3501,-5.3501,-5.3501,-5.3501,-5.3501,-5.3501,-5.3501,-5.3501,-5.3501,0.0,-5.3501,-5.3501,-5.3467,-5.301,-5.2604,0.0,0.0,0.0,0.0,0.0,-4.9001,-4.8984,0.0,-1.1073,-1.1412,-1.1736,-1.1865,-1.2022,-1.2339,-1.3256,-1.4719,-1.6974,0.0,-2.1455,-2.3385,-2.4807,-2.5561,-2.5486,-2.5495,-2.4762,0.0,0.0,-2.4245,-2.6707,-2.8098,-2.9385,-3.0597,-3.1271,-3.1615,-3.1615,-3.169,-3.169,-3.1615,-3.1615,-3.157,-3.1511,-3.1511,-3.1511,-3.1511,-3.1511,-3.1511,-3.1451,-3.0838,-3.0253,-2.9517,-2.7634,-2.6572,-2.5809,-2.3931,-2.2882,-2.2338,-2.2188,0.0,0.0,0.0,0.0,0.0,0.0,0.0,0.0,0.0,0.0,0.0,0.0,0.0,0.0,0.0,0.0,0.0,0.0,0.0,0.0,0.0,0.0,0.0,0.0,-4.072,-4.3803,-4.484,-4.5534,-4.6464,-4.7838,-4.9323,-5.0507,-5.1268,-5.2012,-5.2739,-5.345,-5.3501,-5.3501,-5.3501,0.0,0.0,0.0,0.0,-5.3501,-5.3501,-5.3501,-5.3501,-5.3501,-5.3501,-5.3501,-5.3501,-5.3501,-5.3501,-5.3501,-5.3501,-5.3501,-5.3501,-5.3501,-5.3027,-5.2147,-5.0676,-5.0084,-4.9999,-4.9272,-4.9001,0.0,0.0,-1.1073,-1.1412,-1.1736,-1.225,-1.281,-1.3399,-1.4117,-1.5517,-1.8063,-1.974,-2.1455,-2.3385,-2.4807,-2.5367,-2.4844,-2.4784,-2.4634,0.0,0.0,-2.6542,-2.8143,-2.9445,-3.0507,-3.1286,-3.1959,-3.2303,-3.2303,-3.2856,-3.2841,-3.2303,-3.2303,-3.2019,-3.1511,-3.1511,-3.1511,-3.1511,-3.1511,-3.1511,-3.1496,-3.1361,-3.0898,-3.0223,-2.9367,-2.8948,-2.8648,-2.718,-2.6566,-2.6297,-2.5211,-2.4133,-2.3191,-2.2921,-2.168,0.0,0.0,0.0,0.0,0.0,0.0,0.0,0.0,0.0,0.0,0.0,0.0,0.0,0.0,0.0,0.0,0.0,0.0,0.0,-3.9907,-4.2626,-4.4973,-4.6971,-4.7365,-4.7817,-4.8697,-5.0101,-5.1285,-5.2029,-5.2807,-5.3331,-5.3501,-5.3501,-5.3501,-5.3501,-5.3501,-5.3501,-5.3501,-5.3501,-5.3501,-5.3501,-5.3501,-5.3501,-5.3501,0.0,0.0,-5.3501,-5.3501,-5.3501,-5.3501,-5.3501,-5.3501,-5.3501,-5.3501,-5.3027,-5.2147,-5.0676,-5.0084,-4.9999,-4.9272,-4.9001,-4.9001,-1.0823,-1.0858,-1.1008,-1.1468,-1.2097,-1.2758,-1.3396,-1.4229,-1.5429,-1.7171,-1.8446,-1.9702,-2.1006,-2.2054,-2.2517,-2.2188,-2.2452,0.0,0.0,-2.5854,-2.747,-2.946,-3.0806,-3.1674,-3.1989,-3.2677,-3.3006,-3.3006,-3.3335,-3.332,-3.3006,-3.3006,-3.2826,-3.2512,-3.2512,-3.2303,-3.1989,-3.1989,-3.1809,-3.1511,-3.1511,-3.1301,-3.0957,-3.0672,-3.0342,-2.9909,-2.8963,-2.8393,-2.7959,-2.6956,-2.6162,-2.5465,-2.4807,-2.3693,-2.2332,0.0,0.0,0.0,0.0,0.0,0.0,0.0,0.0,0.0,0.0,0.0,0.0,0.0,0.0,-3.0955,-3.3939,0.0,-3.8825,-4.1785,-4.4105,-4.6088,-4.768,-4.8545,-4.9137,-4.9509,-5.0541,-5.1505,-5.2232,-5.3027,-5.3501,-5.3501,-5.3501,-5.3501,-5.3501,-5.3501,-5.3501,-5.3501,-5.3501,-5.3501,-5.3501,-5.3501,-5.3501,-5.3501,-5.3501,-5.3501,-5.3501,-5.3501,-5.3501,-5.3501,-5.3501,-5.3501,-5.3501,-5.3501,-5.3264,-5.279,-5.164,-5.0826,-5.0265,-4.9893,-4.9438,-4.9001,-1.0717,-1.0564,-1.0655,-1.1273,-1.1929,-1.2596,-1.3267,-1.4217,-1.5197,-1.6099,-1.7072,-1.7953,-1.8627,-1.9286,-1.9753,0.0,0.0,0.0,0.0,-2.6363,-2.8233,-3.0597,-3.1749,-3.2377,-3.2512,-3.3155,-3.3559,-3.3679,-3.3814,-3.3814,-3.3679,-3.3679,-3.3619,-3.3499,-3.3499,-3.32,-3.2706,-3.2572,-3.2183,-3.169,-3.1555,-3.1511,-3.1496,-3.1361,-3.0957,-3.0417,-2.9831,-2.9097,-2.8308,-2.7779,-2.751,-2.724,-2.6288,-2.545,-2.435,-2.2108,-2.1555,0.0,0.0,0.0,0.0,0.0,0.0,0.0,0.0,-2.6921,-2.8008,-3.1046,-3.2632,-3.425,-3.6848,-3.9018,-4.1174,-4.3394,-4.5618,-4.731,-4.8014,-4.9137,-4.9932,-5.0067,-5.0879,-5.1725,-5.2469,-5.3129,-5.3501,-5.3501,-5.3501,-5.3501,-5.3501,-5.3501,-5.3501,-5.3501,-5.3501,-5.3501,-5.3501,-5.3501,-5.3501,-5.3501,-5.3501,-5.3501,-5.3501,-5.3501,-5.3501,-5.3501,-5.3501,-5.3501,-5.3501,-5.3501,-5.3501,-5.345,-5.279,-5.1942,-5.1007,-5.0418,-4.9695,-4.899,0.0,-1.0375,-1.0881,-1.1543,-1.2208,-1.2955,-1.3855,-1.4602,-1.5445,-1.65,-1.7263,-1.7953,-1.8627,-1.9286,-1.9929,0.0,0.0,0.0,-2.6198,-2.8173,-2.9894,-3.1331,-3.1525,-3.1884,-3.2497,-3.3155,-3.3784,-3.4399,-3.4981,-3.4966,-3.4399,-3.4399,-3.4053,-3.3499,-3.3499,-3.3455,-3.335,-3.2766,-3.2452,-3.2333,-3.1735,-3.1511,-3.1436,-3.0851,-3.0567,-3.0417,-2.9831,-2.8798,-2.7705,-2.763,-2.721,-2.6806,-2.724,-2.6497,-2.5307,-2.4425,-2.299,-2.1635,-2.1335,-2.2353,-2.4059,-2.6462,-2.7106,-2.8408,0.0,-3.3425,-3.323,-3.537,-3.6372,-3.7523,-3.9816,-4.1663,-4.3524,-4.575,-4.7575,-4.8773,-4.8852,-4.9018,-4.9373,-5.0016,-5.1336,-5.2486,-5.3298,-5.345,-5.3501,-5.3501,-5.3501,-5.3501,-5.3501,-5.3501,-5.3501,-5.3501,-5.3501,-5.3501,-5.3501,-5.3501,-5.3501,-5.3501,-5.3501,-5.3501,-5.3501,-5.3501,-5.3501,-5.3501,-5.3501,-5.3501,-5.3501,-5.3501,-5.3501,-5.3501,-5.3399,-5.3279,-5.2835,-5.0158,-4.9104,-4.9003,0.0,-1.0834,-1.1412,-1.1997,-1.2529,-1.3141,-1.397,-1.4673,-1.5356,-1.607,-1.6413,-1.6697,-1.6982,-1.7267,-1.767,-1.831,-2.0677,0.0,-2.53,-2.8038,-3.0163,-3.1451,-3.1869,-3.2392,-3.3066,-3.3365,-3.4008,-3.507,-3.4966,-3.4966,-3.507,-3.507,-3.4921,-3.4666,-3.4666,-3.4442,-3.4054,-3.3365,-3.2871,-3.2452,-3.1765,-3.1511,-3.1436,-3.0776,-2.9789,-2.8738,-2.8068,-2.7495,0.0,-2.6123,-2.5674,-2.5472,-2.5779,-2.5196,-2.4313,-2.3684,-2.3176,-2.3236,-2.5181,-2.6093,-2.7051,-2.931,-3.0462,-3.1599,-3.3829,-3.4188,-3.4622,-3.6611,-3.7937,-3.9404,-4.1523,-4.3371,-4.5243,-4.7408,-4.8836,-4.9644,-4.9644,-5.0016,-5.0253,-5.0101,-5.1014,-5.1961,-5.2739,-5.323,-5.3501,-5.3501,-5.3501,-5.3501,-5.3501,-5.3501,-5.3501,-5.3501,-5.3501,-5.3501,-5.3501,-5.3501,-5.3501,-5.3501,-5.3501,-5.3501,-5.3501,-5.3501,-5.3501,-5.3501,-5.3501,-5.3501,-5.3501,-5.3501,-5.3501,-5.3501,-5.3501,-5.3484,-5.3347,-5.2089,-5.049,-4.9007,0.0,-1.1312,-1.1939,-1.2325,-1.275,-1.3318,-1.4094,-1.4623,-1.5134,-1.5726,-1.5799,-1.5799,-1.5799,-1.5799,-1.6039,-1.6636,-1.9432,-2.2054,-2.4171,-2.729,-2.9699,-3.1152,-3.1854,-3.2557,-3.3215,-3.3215,-3.3799,-3.4951,-3.4442,-3.4457,-3.4951,-3.4951,-3.5055,-3.522,-3.522,-3.4936,-3.4459,-3.3769,-3.311,-3.2452,-3.1765,-3.1391,-3.1122,-3.0298,-2.8861,-2.727,-2.6752,-2.6123,-2.5383,-2.4403,-2.4066,-2.4066,-2.4066,-2.3744,-2.3295,-2.3032,-2.3385,-2.4515,-2.7474,-2.8572,-2.934,-3.1286,-3.2796,-3.3814,-3.4008,-3.4562,-3.5527,-3.7122,-3.865,-4.028,-4.22,-4.4186,-4.6137,-4.81,-4.9355,-5.0084,-5.0084,-5.0557,-5.0625,-4.9881,-5.0642,-5.142,-5.1944,-5.2706,-5.3264,-5.3484,-5.3501,-5.3501,-5.3501,-5.3501,-5.3501,-5.3501,-5.3501,-5.3501,-5.3501,-5.3501,-5.3501,-5.3501,-5.3501,-5.3501,-5.3501,-5.3501,-5.3501,-5.3501,-5.3501,-5.3501,-5.3501,-5.3501,-5.3501,-5.3501,-5.3501,-5.3517,-5.3482,-5.3499,-5.1592,-4.899,0.0,0.0,-1.2375,-1.24,-1.2839,-1.3501,-1.4363,-1.4503,-1.483,-1.5682,-1.5799,-1.5799,-1.5799,-1.5799,-1.6039,-1.6636,-1.8583,-2.0861,-2.346,-2.6162,-2.8528,-3.0447,-3.1167,-3.1839,-3.2527,-3.2542,-3.2886,-3.3559,-3.3529,-3.3529,-3.3559,-3.3559,-3.3903,-3.4533,-3.4533,-3.4533,-3.4459,-3.3769,-3.311,-3.2452,-3.1765,-3.1107,-3.0387,-2.9146,-2.7814,-2.6641,-2.6602,-2.4979,-2.2808,-2.2763,-2.2763,-2.2763,-2.2763,-2.2748,-2.2838,-2.34,-2.4059,-2.4995,-2.6911,-2.847,-3.0028,-3.1988,-3.3469,-3.4653,-3.5295,-3.5953,-3.6667,-3.7431,-3.8738,-4.0166,-4.1659,-4.3894,-4.5956,-4.7424,-4.902,-5.0084,-5.0084,-5.0101,-4.9847,-4.912,-5.0338,-5.1217,0.0,-5.1911,-5.2655,-5.345,-5.3501,-5.3501,-5.3501,-5.3501,-5.3501,-5.3501,-5.3501,-5.3501,-5.3501,-5.3501,-5.3501,-5.3501,-5.3501,-5.3501,-5.3501,-5.3501,-5.3501,-5.3501,-5.3501,-5.3501,-5.3501,-5.3501,-5.3501,-5.3501,-5.3501,-5.3512,-5.3485,-5.3493,-5.1592,-4.902,0.0,0.0,0.0,-1.2939,-1.3073,-1.3408,-1.4016,-1.4326,-1.4705,-1.5255,-1.561,0.0,0.0,0.0,0.0,0.0,-1.8132,-1.9974,-2.2188,-2.4807,-2.6961,-2.8513,-3.0028,-3.1137,-3.1824,-3.1839,-3.2363,-3.3499,-3.3051,-3.3066,-3.3499,-3.3499,-3.3619,-3.3829,-3.3829,-3.3829,-3.3784,-3.3125,-3.2961,-3.3036,-3.1465,-3.0717,-3.0313,-2.8603,-2.6566,-2.4492,0.0,-2.2503,-2.1246,-2.0348,-2.0333,-2.0711,-2.0711,-2.0887,-2.1292,-2.2306,-2.4426,-2.678,-2.8273,-3.0069,-3.1898,-3.3425,-3.4487,-3.522,-3.5444,-3.641,-3.7304,-3.7543,-3.8789,-3.9987,-4.0482,-4.2506,-4.4591,-4.6099,-4.8444,-5.027,-5.076,-5.1251,-5.1285,-5.0557,-5.0913,-5.1403,0.0,0.0,0.0,-5.3484,-5.3501,-5.3501,-5.3501,-5.3501,-5.3501,-5.3501,-5.3501,-5.3501,-5.3501,-5.3501,-5.3501,-5.3501,-5.3501,-5.3501,-5.3501,-5.3501,-5.3501,-5.3501,-5.3501,-5.3501,-5.3501,-5.3501,-5.3501,-5.3501,-5.3501,-5.2568,-5.1001,-4.886,-4.684,-4.5227,0.0,0.0,0.0,0.0,0.0,0.0,0.0,0.0,0.0,0.0,0.0,0.0,0.0,0.0,0.0,0.0,0.0,-1.873,-2.0513,0.0,-2.4792,-2.6117,-2.7829,-2.8939,-2.9373,-2.9388,-2.9939,-3.1031,-3.0836,-3.121,-3.2093,-3.2332,-3.2677,-3.314,-3.314,-3.314,-3.308,-3.2183,-3.1913,-3.1913,-2.9924,-2.8966,-2.8562,-2.6811,-2.4829,0.0,-2.144,-2.0557,-1.9806,-1.8715,-1.8792,-1.9429,-1.9849,-2.0648,-2.1739,-2.3424,-2.5441,-2.7644,-3.0058,-3.1812,-3.3244,-3.4536,-3.5608,-3.6258,-3.5958,-3.6832,-3.7744,-3.803,-3.8836,-3.9644,-3.9906,-4.1617,-4.3436,-4.4688,-4.7141,-4.9272,-5.0287,-5.1048,-5.1437,-5.1251,-5.1454,-5.1792,-5.2249,0.0,0.0,-5.3501,-5.3501,-5.3501,-5.3501,-5.3501,-5.3501,-5.3501,-5.3501,-5.3501,-5.3501,-5.3501,-5.3501,-5.3501,-5.3501,-5.3501,-5.3501,-5.3501,-5.3501,-5.3501,-5.3501,-5.3501,-5.3501,-5.3501,-5.3501,-5.3501,-5.3501,-5.2094,-4.9639,-4.5952,-4.4037,-4.3322,0.0,0.0,0.0,0.0,0.0,0.0,0.0,0.0,0.0,0.0,0.0,0.0,0.0,0.0,0.0,0.0,0.0,0.0,-1.8506,0.0,0.0,-2.34,-2.4807,-2.5555,-2.5555,-2.563,-2.5959,-2.6587,-2.727,-2.8244,-2.9517,-3.0073,-3.1031,-3.2258,-3.2258,-3.2258,-3.2168,-3.0851,-2.9983,-2.9337,-2.7315,-2.6123,-2.5405,-2.4059,-2.2757,-2.147,-2.0172,-1.9286,-1.8657,-1.7983,-1.8281,-1.9181,-2.0435,-2.2173,-2.4184,-2.6671,-2.7178,-2.7886,-3.2226,-3.3643,-3.4127,-3.5314,-3.6723,-3.7602,-3.6859,-3.7263,-3.8032,-3.8646,-3.8803,-3.8984,-3.9657,-4.1068,-4.2371,-4.3115,-4.5297,-4.7428,-4.8917,-4.9779,-5.0524,-5.1251,-5.1944,-5.2367,-5.2367,-5.3061,0.0,-5.3501,0.0,-5.3501,-5.3501,-5.3501,-5.3501,-5.3501,-5.3501,-5.3501,-5.3501,-5.3501,-5.3501,-5.3501,-5.3501,-5.3501,-5.3501,-5.3501,-5.3501,-5.3501,-5.3501,-5.3501,-5.3501,-5.3501,-5.3501,-5.3501,-5.3433,-5.203,-4.9475,-4.5138,-4.3441,-4.3303,0.0,0.0,0.0,0.0,0.0,0.0,0.0,0.0,0.0,0.0,0.0,0.0,0.0,0.0,0.0,0.0,0.0,0.0,-1.716,0.0,0.0,0.0,0.0,-2.4844,-2.4844,-2.5839,-2.6422,-2.6587,-2.727,-2.7764,-2.8109,-2.8274,-2.8528,-2.8858,-2.8858,-2.8858,-2.8798,-2.7934,-2.7794,-2.7929,0.0,-2.5008,-2.4709,-2.3415,-2.2099,-2.0838,-1.9989,-1.9588,-1.9348,-1.8672,-2.0198,-2.272,-2.4842,-2.6541,-2.8101,-2.9649,-3.0811,-3.2071,-3.4376,-3.5431,-3.6084,-3.699,-3.7501,-3.7764,-3.7544,-3.8076,-3.8352,-3.7446,-3.7295,-3.6888,-3.5374,-3.7702,-4.007,-4.0815,-4.5162,-4.8951,-5.0439,-5.1792,-5.2706,-5.2892,-5.3078,-5.3196,-5.3196,-5.3382,-5.3501,0.0,-5.3501,-5.3501,-5.3501,-5.3501,-5.3501,-5.3501,-5.3501,-5.3501,-5.3501,-5.3501,-5.3501,-5.3501,-5.3501,-5.3501,-5.3501,-5.3501,-5.3501,-5.3501,-5.3501,-5.3501,-5.3501,-5.3501,-5.3501,-5.3433,-5.2627,-5.0893,-4.8663,-4.7318,-4.5331,-4.3285,0.0,0.0,0.0,0.0,0.0,0.0,0.0,0.0,0.0,0.0,0.0,0.0,0.0,0.0,0.0,0.0,0.0,0.0,0.0,0.0,0.0,0.0,-2.1495,-2.2437,-2.2437,-2.3759,-2.4313,-2.4014,0.0,0.0,-2.5863,-2.6138,-2.6437,-2.6707,-2.6707,-2.6707,-2.6647,-2.5674,0.0,0.0,0.0,-2.2885,-2.2781,-2.1754,-2.0921,-2.0213,-1.9842,-2.0441,-2.1515,-2.2343,-2.3978,-2.5994,-2.7624,-2.9117,-3.049,-3.1702,-3.2966,-3.425,-3.5648,-3.6805,-3.7658,-3.7777,-3.829,-3.8559,-3.7551,-3.7906,-3.8019,-3.6537,-3.5994,-3.5407,-3.4117,-3.6146,-3.8285,-3.9005,-4.3589,-4.7699,-4.9509,-5.1352,-5.2756,-5.3416,-5.3501,-5.3501,-5.3501,-5.3501,-5.3501,0.0,-5.3501,-5.3501,-5.3501,-5.3501,-5.3501,-5.3501,-5.3501,-5.3501,-5.3501,-5.3501,-5.3501,-5.3501,-5.3501,-5.3501,-5.3501,-5.3501,-5.3501,-5.3501,0.0,-5.3501,-5.3501,-5.3501,-5.323,-5.2749,-5.2117,-5.0204,-4.7719,-4.7559,-4.5723,-4.329,0.0,0.0,0.0,0.0,0.0,0.0,0.0,0.0,0.0,0.0,0.0,0.0,0.0,0.0,0.0,0.0,0.0,0.0,0.0,0.0,0.0,0.0,-1.9348,-1.9708,-1.9708,-2.0917,-2.1291,-2.0703,0.0,0.0,0.0,0.0,0.0,0.0,0.0,0.0,0.0,0.0,0.0,0.0,0.0,-2.0703,-2.0643,0.0,0.0,-1.9977,-2.014,-2.1747,-2.421,-2.6913,-2.8247,-2.8972,-2.9868,-3.1013,-3.2282,-3.3525,-3.4443,-3.5334,-3.6707,-3.7966,-3.8805,-3.8347,-3.9185,-3.9539,-3.7343,-3.7318,-3.7263,-3.5515,-3.4658,-3.4155,-3.3947,-3.5402,-3.6975,-3.8024,-4.1863,-4.5585,-4.799,-5.0052,-5.1894,-5.3331,-5.3501,-5.3501,-5.3501,-5.3501,-5.3501,-5.3501,-5.3501,-5.3501,-5.3501,-5.3501,-5.3501,-5.3501,-5.3501,-5.3501,-5.3501,-5.3501,-5.3501,-5.3501,-5.3501,-5.3501,-5.3501,-5.3501,-5.3501,-5.3501,0.0,0.0,-5.3501,-5.3501,-5.287,-5.1869,-5.1661,-4.9662,-4.6889,-4.6741,-4.5257,-4.329,0.0,0.0,0.0,0.0,0.0,0.0,0.0,0.0,0.0,0.0,-1.7309,-1.6905,0.0,0.0,0.0,0.0,0.0,0.0,0.0,0.0,0.0,0.0,-1.9348,-1.9708,-1.9708,-2.0468,-2.0808,-2.0703,-2.159,0.0,0.0,0.0,0.0,0.0,0.0,0.0,0.0,0.0,0.0,0.0,0.0,-2.0703,-2.0748,0.0,0.0,0.0,-2.242,-2.3659,-2.5266,-2.8051,-2.9871,-3.139,-3.3752,-3.4635,-3.511,-3.6589,-3.6668,-3.6739,-3.8918,-3.9204,-3.9181,-4.0327,-4.033,-3.9673,-3.8065,-3.7344,-3.622,-3.3444,-3.2767,-3.231,-3.1089,-3.3554,-3.6671,-3.93,-4.298,-4.6718,-5.012,-5.1488,-5.2469,-5.3399,-5.3501,-5.3501,-5.3501,-5.3501,-5.3501,0.0,-5.3501,-5.3501,-5.3501,-5.3501,-5.3501,-5.3501,-5.3501,-5.3501,-5.3501,-5.3501,-5.3501,-5.3501,-5.3501,-5.3501,-5.3501,-5.3501,-5.3501,-5.3501,-5.3501,0.0,-5.3501,-5.3501,-5.287,-5.1783,-5.0362,-4.8628,-4.678,-4.5898,-4.4619,-4.329,0.0,0.0,0.0,0.0,0.0,0.0,0.0,-1.6527,-1.7587,-1.9489,-1.9477,-1.9163,-1.8792,-1.8433,-1.8222,0.0,0.0,0.0,0.0,0.0,0.0,0.0,0.0,-1.9708,-1.9708,-2.0692,-2.1051,-2.0703,0.0,-2.1515,-2.1171,-2.0812,-2.0647,-2.0647,-2.0647,-2.0647,-2.0632,-2.0318,0.0,-2.0213,-2.0572,-2.0703,0.0,0.0,0.0,0.0,-2.3076,-2.4387,-2.5986,-2.7994,-2.9878,-3.1898,-3.4702,-3.6103,-3.6829,-3.7589,-3.779,-3.8119,-3.9675,-4.0082,-4.0263,-4.1024,-4.0933,-3.9969,-3.7307,-3.6129,-3.4764,-3.1765,-3.1157,-3.0937,-3.0243,-3.2493,-3.5177,-3.7398,-4.0916,-4.4671,-4.8392,-5.0202,-5.1742,-5.3315,-5.3501,-5.3501,-5.3501,-5.3501,-5.3501,-5.3501,-5.3501,-5.3501,-5.3501,-5.3501,-5.3501,-5.3501,-5.3501,-5.3501,-5.3501,-5.3501,-5.3501,-5.3501,-5.3501,-5.3501,-5.3501,-5.3501,-5.3501,-5.3501,-5.3501,0.0,-5.2662,-5.2662,-5.174,-5.0185,-4.9022,-4.7542,-4.5976,-4.5248,-4.4243,-4.329,0.0,0.0,0.0,0.0,0.0,0.0,0.0,-1.7136,-1.837,-2.0978,-2.1545,-2.1395,-2.0621,-1.9824,-1.9226,0.0,0.0,0.0,0.0,0.0,0.0,0.0,0.0,-1.9708,-1.9708,0.0,0.0,-2.0703,-2.138,0.0,0.0,0.0,0.0,0.0,-1.9708,-1.9708,-1.9708,-1.9708,-1.9783,0.0,0.0,-2.1006,0.0,0.0,0.0,0.0,0.0,-2.4859,-2.6263,-2.7608,-2.9293,-3.125,-3.387,-3.5685,-3.6966,-3.7423,-3.7986,-3.871,-3.9985,-4.0769,-4.1238,-4.1407,-4.1322,-4.0223,-3.6462,-3.4912,-3.3423,-3.048,-2.9871,-2.9871,-2.9871,-3.1664,-3.3761,-3.5549,-3.8328,-4.1779,-4.6177,-4.8291,-5.0338,-5.2942,-5.3399,-5.3501,-5.3501,-5.3501,0.0,-5.3501,-5.3501,0.0,-5.3501,-5.3501,-5.3501,-5.3501,-5.3501,-5.3501,-5.3501,-5.3501,-5.3501,-5.3501,-5.3501,-5.3501,-5.3501,-5.3501,-5.3501,-5.3501,-5.3264,0.0,0.0,-5.1651,-5.0496,-4.8707,-4.7926,-4.6737,-4.5372,-4.4638,-4.3923,-4.329,0.0,0.0,0.0,0.0,0.0,0.0,0.0,-1.8059,-1.9713,-2.2921,-2.2383,-2.2084,-2.3131,-2.2143,-2.0917,0.0,0.0,0.0,0.0,0.0,0.0,0.0,0.0,0.0,0.0,0.0,0.0,-2.0703,-2.138,0.0,0.0,0.0,0.0,0.0,0.0,-1.9708,-1.9708,-1.9708,0.0,0.0,0.0,0.0,0.0,0.0,0.0,0.0,0.0,-2.5725,-2.5883,-2.7416,-2.8497,-2.9493,-3.1178,-3.2663,-3.4192,-3.6214,-3.6845,-3.7531,-4.0348,-4.1143,-4.1373,-4.2016,-4.1694,-4.0223,-3.6462,-3.4501,-3.2662,-2.9721,-2.9094,-2.9094,-2.9094,-3.0922,-3.3343,-3.622,-3.6981,-3.9453,-4.5889,-4.6972,-4.8409,-5.1995,-5.3061,-5.3501,-5.3501,-5.3501,-5.3501,-5.3501,0.0,0.0,-5.3501,-5.3501,-5.3501,-5.3501,-5.3501,-5.3501,-5.3501,-5.3501,-5.3501,-5.3501,-5.3501,-5.3501,-5.3501,-5.3501,-5.3501,-5.3467,-5.247,0.0,0.0,-5.0892,-4.9852,-4.8701,-4.7455,-4.6542,-4.5733,-4.4028,-4.3349,-4.329,0.0,0.0,0.0,0.0,0.0,0.0,-1.7523,-1.8341,-1.975,-2.2688,-2.2921,-2.2892,-2.3047,-2.2921,-2.2158,-2.0453,0.0,0.0,0.0,0.0,0.0,0.0,0.0,0.0,0.0,0.0,-2.168,-2.2458,-2.1934,0.0,0.0,0.0,0.0,0.0,0.0,-2.0079,-1.9738,-2.0124,0.0,0.0,0.0,0.0,0.0,0.0,0.0,0.0,0.0,0.0,-2.6353,-2.6971,-2.7692,-2.845,-2.8998,-2.9917,-3.1541,-3.5592,-3.673,-3.7362,-4.0374,-4.1197,-4.1271,-4.1559,-4.1085,-3.9656,-3.6343,-3.4117,-3.2138,-3.0091,-2.9314,-2.9145,-2.9583,-3.0734,-3.2307,-3.4404,-3.5115,-3.7127,-4.2083,-4.391,-4.6143,-4.9881,-5.1386,-5.2486,0.0,0.0,-5.3501,-5.3501,0.0,0.0,-5.3501,-5.3501,-5.3501,-5.3501,-5.3501,-5.3501,-5.3501,-5.3501,-5.3501,-5.3501,-5.3501,-5.3501,-5.3501,-5.3501,-5.3144,-5.2505,-5.2082,0.0,0.0,-4.9599,-4.8593,-4.7221,-4.6305,-4.5647,-4.5075,-4.3788,-4.329,-4.329,0.0,0.0,0.0,0.0,0.0,-1.5273,-1.7548,-1.8344,-1.9735,-2.2598,-2.3176,-2.3385,-2.3556,-2.3415,-2.2847,-2.1665,-2.0602,0.0,0.0,0.0,0.0,0.0,0.0,0.0,0.0,0.0,-2.2517,-2.3595,-2.2906,-2.2921,0.0,0.0,-2.1814,-2.1006,0.0,0.0,0.0,0.0,0.0,0.0,0.0,0.0,0.0,0.0,0.0,0.0,0.0,0.0,0.0,0.0,0.0,-2.7528,-2.7498,-2.8007,-2.9543,-3.4127,-3.574,-3.6704,-3.9741,-4.0865,-4.1204,-4.1204,-4.0663,-3.9326,-3.6276,-3.4066,-3.2138,-3.0446,-2.9685,-2.9482,-3.0006,-3.07,-3.1613,-3.2865,-3.3508,-3.5233,-3.9225,-4.1296,-4.3826,-4.7581,-4.9137,-5.0591,-5.2334,-5.3112,-5.3501,0.0,0.0,0.0,0.0,-5.3501,-5.3501,-5.3501,-5.3501,-5.3501,-5.3501,-5.3501,-5.3501,-5.3501,-5.3501,-5.3501,-5.3501,-5.3179,-5.2627,-5.1885,0.0,0.0,0.0,-4.8178,-4.7262,-4.5963,-4.5361,-4.5023,-4.4759,-4.3698,-4.329,-4.329,0.0,0.0,0.0,0.0,0.0,0.0,-1.7116,-1.8135,-1.9884,-2.3161,-2.3077,-2.3452,-2.536,-2.3849,-2.2942,-2.352,-2.1814,0.0,0.0,0.0,0.0,0.0,0.0,0.0,0.0,0.0,-2.3002,-2.3595,-2.4246,-2.4231,-2.3595,-2.3595,-2.2892,-2.168,0.0,0.0,0.0,0.0,0.0,0.0,0.0,0.0,0.0,0.0,0.0,0.0,0.0,0.0,0.0,0.0,0.0,0.0,0.0,-2.7215,-2.8415,-3.1444,-3.3372,-3.5182,-3.8193,-4.0087,-4.1204,-4.1204,-4.0646,-3.9317,-3.6276,-3.4433,-3.2763,-3.0565,-3.0089,-3.0091,-3.0108,-3.07,-3.1427,-3.2192,-3.2327,-3.3901,-3.8379,-3.9665,-4.1516,-4.5297,-4.6397,-4.7699,-4.9915,-5.2181,-5.3501,0.0,0.0,0.0,0.0,-5.3501,-5.3501,-5.3501,-5.3501,-5.3501,-5.3501,-5.3501,-5.3501,-5.3501,-5.3501,-5.3501,-5.3467,-5.24,-5.1921,0.0,0.0,0.0,0.0,-4.6739,-4.5918,-4.5259,-4.4873,-4.4935,-4.5147,-4.3798,-4.329,-4.329,0.0,0.0,0.0,0.0,0.0,0.0,0.0,-1.712,-1.8408,-2.0643,-2.1171,-2.1919,-2.3452,-2.3077,-2.2942,-2.355,-2.2233,0.0,0.0,0.0,0.0,0.0,0.0,0.0,0.0,0.0,-2.4328,-2.4971,-2.5196,-2.542,-2.5615,-2.4694,-2.3812,-2.2981,-2.2583,-2.2134,0.0,0.0,0.0,0.0,0.0,0.0,0.0,0.0,0.0,0.0,0.0,0.0,0.0,0.0,0.0,0.0,0.0,0.0,0.0,-2.8805,-3.1021,-3.3427,-3.5385,-3.6637,-3.7239,-3.6738,-3.6434,-3.5876,-3.4438,-3.2966,-3.1698,-3.1004,-3.0446,-3.026,-3.0768,-3.1038,-3.1613,-3.2848,-3.3051,-3.4083,-3.7083,-3.9868,-4.2625,-4.5382,-4.9069,-5.1657,0.0,0.0,0.0,0.0,0.0,0.0,0.0,-5.3501,-5.3501,-5.3501,-5.3501,-5.3501,-5.3501,-5.3501,-5.3501,-5.3501,-5.3501,-5.311,-5.2383,-5.2029,0.0,0.0,0.0,0.0,0.0,-4.609,-4.5635,-4.4903,-4.5041,-4.4649,-4.3873,-4.3449,-4.329,-4.329,0.0,0.0,0.0,0.0,0.0,0.0,0.0,-1.6253,-1.7379,-1.9228,-1.9972,-2.1021,-2.2853,-2.2838,-2.3047,-2.3909,-2.3026,0.0,0.0,0.0,0.0,0.0,0.0,0.0,0.0,-2.3819,-2.4807,-2.5974,-2.5974,-2.6318,-2.6971,-2.6123,-2.5106,-2.3969,-2.358,-2.3041,0.0,0.0,0.0,0.0,0.0,0.0,0.0,0.0,0.0,0.0,0.0,0.0,0.0,0.0,0.0,0.0,0.0,0.0,0.0,0.0,-2.9125,-3.1038,-3.3123,-3.4404,-3.5148,-3.4962,-3.4709,-3.4303,-3.3575,-3.2459,-3.1549,-3.1258,-3.0835,-3.0666,-3.1106,-3.119,-3.1579,-3.278,-3.322,-3.4303,-3.6857,-3.9901,0.0,-4.5788,0.0,0.0,0.0,0.0,0.0,0.0,0.0,0.0,0.0,-5.3501,-5.3501,-5.3501,-5.3501,-5.3501,-5.3501,-5.3501,-5.3501,-5.3501,-5.3501,-5.2805,-5.1493,-5.1116,0.0,0.0,0.0,0.0,0.0,-4.5537,-4.5131,-4.4188,-4.4459,-4.4033,-4.329,-4.329,-4.329,-4.329,0.0,0.0,0.0,0.0,0.0,0.0,0.0,-1.5455,-1.6699,-1.865,-1.9277,-2.0512,-2.3112,-2.2909,-2.311,-2.441,0.0,0.0,0.0,0.0,0.0,0.0,0.0,0.0,-2.3565,-2.3684,-2.4657,-2.6512,-2.6662,-2.7076,-2.766,-2.766,-2.6632,-2.4814,-2.4709,-2.4283,0.0,0.0,0.0,0.0,0.0,0.0,0.0,0.0,0.0,0.0,0.0,0.0,0.0,0.0,0.0,0.0,0.0,0.0,0.0,0.0,0.0,0.0,0.0,-3.3021,-3.4252,-3.489,-3.4573,-3.3914,-3.3237,-3.2544,0.0,-3.1241,-3.1123,-3.114,-3.1258,-3.1275,-3.1529,-3.2327,-3.3034,-3.4539,-3.7567,-4.0121,0.0,0.0,-4.8984,0.0,-5.0185,0.0,0.0,0.0,0.0,0.0,0.0,-5.3501,-5.3467,-5.3416,-5.3416,-5.345,-5.3501,-5.3501,-5.3467,-5.3416,-5.3416,-5.2469,-5.0683,-4.9814,0.0,0.0,0.0,0.0,0.0,-4.4976,-4.4414,-4.329,-4.329,-4.329,-4.329,-4.329,-4.329,-4.329,0.0,0.0,0.0,0.0,0.0,0.0,0.0,0.0,0.0,0.0,-1.7491,-1.8798,-2.1268,-2.1412,-2.2003,0.0,0.0,0.0,0.0,0.0,0.0,0.0,0.0,0.0,-2.358,-2.4612,-2.536,-2.5839,-2.738,-2.8203,-2.8353,-2.8353,-2.7829,-2.6866,-2.5824,-2.4949,0.0,0.0,0.0,0.0,0.0,0.0,0.0,0.0,0.0,0.0,-2.6065,-2.6218,0.0,0.0,0.0,0.0,0.0,0.0,0.0,0.0,-2.6962,-2.7249,-2.8518,0.0,-3.0194,-2.9734,-2.9973,-3.0262,0.0,-2.9907,-2.989,-3.0277,-3.0362,-3.07,-3.1836,-3.2039,-3.2479,-3.3783,-3.4117,-3.5301,-3.8311,-4.3132,0.0,-4.9086,-5.1319,-5.2249,0.0,0.0,0.0,0.0,0.0,0.0,0.0,-5.3501,-5.323,-5.2604,-5.2587,-5.2892,-5.3501,-5.3501,-5.3196,-5.2587,-5.2587,-5.1292,-4.8909,-4.951,0.0,0.0,0.0,0.0,-4.3629,-4.3713,-4.3594,-4.329,-4.329,-4.329,-4.329,-4.329,-4.329,-4.329,0.0,0.0,0.0,0.0,0.0,0.0,0.0,0.0,0.0,0.0,0.0,0.0,0.0,0.0,0.0,0.0,0.0,0.0,0.0,0.0,0.0,0.0,0.0,-2.2987,-2.3595,-2.4605,-2.56,-2.6512,-2.7919,-2.8906,-2.9475,-2.919,-2.8543,-2.755,-2.6136,-2.5241,0.0,0.0,0.0,0.0,0.0,0.0,0.0,0.0,0.0,0.0,-2.5625,-2.5862,0.0,-2.659,-2.6691,-2.6691,0.0,0.0,0.0,0.0,-2.6691,-2.6793,-2.7199,-2.8383,-2.9482,-2.9381,-2.9685,-3.0025,-3.0025,-2.9501,-2.9111,-2.9499,-2.9871,-3.0446,-3.1599,-3.2361,-3.3169,-3.4303,-3.5385,0.0,0.0,0.0,-4.731,-4.9796,-5.1488,0.0,0.0,0.0,0.0,0.0,0.0,0.0,0.0,-5.2452,-5.2266,-5.1809,-5.1809,-5.2012,-5.2452,-5.2034,-5.1597,-5.1128,-5.0721,-4.9349,-4.7245,-4.8046,-4.6811,0.0,0.0,0.0,-4.329,-4.329,-4.329,-4.329,-4.329,-4.329,-4.329,-4.329,-4.329,-4.329,0.0,0.0,0.0,0.0,0.0,0.0,0.0,0.0,0.0,0.0,0.0,0.0,0.0,0.0,0.0,0.0,0.0,0.0,0.0,0.0,0.0,0.0,0.0,-2.3116,-2.3744,-2.441,-2.5644,-2.745,-2.8308,-2.931,-3.0357,-3.0028,-2.9094,-2.7685,-2.6377,-2.5645,0.0,0.0,0.0,0.0,0.0,0.0,0.0,0.0,0.0,0.0,0.0,0.0,0.0,-2.6319,-2.6607,-2.6691,-2.6691,0.0,0.0,0.0,0.0,0.0,-2.6996,-2.8704,-3.048,-3.0632,-3.0852,-3.1004,-3.0886,-2.9907,-2.9027,-2.9145,-2.9668,-3.0429,-3.1512,-3.2628,-3.3728,-3.4675,0.0,0.0,-4.324,-4.4621,-4.638,-4.9407,-5.071,0.0,0.0,0.0,0.0,0.0,0.0,0.0,0.0,-5.1185,-5.1134,-5.1048,-5.1048,-5.0916,-5.0652,-5.0074,-4.9681,-4.9393,-4.8618,-4.7352,-4.5725,-4.6343,-4.5403,0.0,0.0,0.0,-4.329,-4.329,-4.329,-4.329,-4.329,-4.329,-4.329,-4.329,-4.323,-4.3125,0.0,0.0,0.0,0.0,0.0,0.0,0.0,0.0,0.0,0.0,0.0,0.0,0.0,0.0,0.0,0.0,0.0,0.0,0.0,0.0,0.0,-2.4455,-2.3819,-2.3774,-2.4425,-2.5098,-2.5884,-2.6761,-2.8547,-2.9562,-2.9771,-3.0761,-3.0154,-2.8266,-2.7865,-2.7003,-2.5906,0.0,0.0,0.0,0.0,0.0,0.0,0.0,0.0,0.0,0.0,0.0,0.0,-2.5744,-2.6184,-2.6691,-2.6691,0.0,0.0,0.0,0.0,0.0,-2.8299,-3.0279,-3.1396,-2.8922,-2.9294,-3.0108,-2.9484,-2.9162,-2.9179,-2.9803,-3.0023,-3.0903,-3.3508,-3.3677,-3.4066,-3.6118,0.0,-4.1796,0.0,0.0,-4.8308,-4.8227,0.0,0.0,0.0,0.0,0.0,0.0,0.0,0.0,0.0,-5.1185,-5.093,-5.0287,-5.027,-4.9597,-4.8167,-4.9239,-4.9071,-4.7693,-4.7549,-4.6565,-4.502,-4.5881,-4.518,0.0,0.0,-4.329,-4.329,-4.329,-4.329,-4.329,-4.329,-4.329,-4.329,-4.329,-4.2985,-4.247,0.0,0.0,0.0,0.0,0.0,0.0,0.0,0.0,0.0,0.0,0.0,0.0,0.0,0.0,0.0,0.0,0.0,0.0,0.0,0.0,0.0,-2.4605,-2.4634,-2.4672,-2.4605,-2.5974,-2.7006,-2.7679,-2.9295,-3.0268,-3.0627,-3.0135,-2.9149,-2.7733,-2.7277,-2.6798,-2.6384,-2.6607,0.0,0.0,0.0,0.0,0.0,0.0,0.0,0.0,0.0,0.0,0.0,0.0,-2.5828,-2.6184,-2.6573,0.0,0.0,0.0,0.0,0.0,-2.7571,-2.9416,-3.0869,-2.9888,-3.1357,-3.2979,-3.2645,-3.1952,-3.136,-3.1292,-3.1613,-3.2425,-3.4167,-3.5233,-3.6975,-4.0451,0.0,-4.2252,-4.528,-4.6227,-4.6938,0.0,0.0,0.0,0.0,0.0,0.0,0.0,0.0,0.0,0.0,0.0,-4.9609,-4.8758,-4.8758,-4.7885,-4.6099,-4.6773,-4.6716,-4.594,-4.5381,-4.4749,-4.4004,-4.4433,-4.4146,-4.329,0.0,-4.329,-4.329,-4.329,-4.3035,-4.2608,-4.2776,-4.2596,-4.2282,-4.2282,-4.2087,-4.1826,0.0,0.0,0.0,0.0,0.0,0.0,0.0,0.0,0.0,0.0,0.0,0.0,0.0,0.0,0.0,0.0,0.0,0.0,0.0,0.0,-2.4679,-2.4829,-2.5495,-2.5674,-2.5307,-2.6821,-2.8019,-2.8831,-2.9953,-3.0748,-3.1227,-2.9902,-2.8609,-2.7392,-2.7034,-2.6801,-2.6691,-2.6691,-2.6691,0.0,0.0,0.0,0.0,0.0,0.0,0.0,0.0,0.0,0.0,0.0,0.0,0.0,0.0,0.0,0.0,-2.6691,-2.6573,-2.6556,-2.7097,-2.8501,-3.0108,-3.119,-3.3034,-3.4788,-3.5667,-3.459,-3.344,-3.3596,-3.3768,-3.4191,-3.5126,-3.6857,0.0,-4.343,-4.2895,-4.3047,-4.6058,-4.5991,0.0,0.0,0.0,0.0,0.0,0.0,0.0,0.0,0.0,0.0,0.0,0.0,-4.8257,-4.7306,-4.7273,-4.647,-4.4812,-4.4812,-4.4662,-4.4434,-4.3669,-4.329,-4.329,-4.329,-4.3115,-4.2852,-4.2951,-4.2877,-4.2712,-4.2811,-4.2467,-4.1891,-4.2087,-4.1856,-4.1392,-4.1205,-4.1145,-4.113,0.0,0.0,0.0,0.0,0.0,0.0,0.0,0.0,0.0,0.0,0.0,0.0,0.0,0.0,0.0,0.0,0.0,0.0,0.0,0.0,-2.4874,-2.551,-2.6168,-2.6806,-2.7375,-2.7525,-2.8229,-2.9532,-3.0178,-3.0522,-3.0595,-3.1009,-3.0077,-2.8055,-2.8558,-2.8025,-2.6691,-2.6691,-2.6691,-2.6691,-2.6691,0.0,0.0,0.0,0.0,0.0,0.0,0.0,0.0,0.0,0.0,0.0,0.0,0.0,-2.6691,-2.6691,-2.6218,-2.615,-2.8265,-2.8959,-2.9585,-3.1684,-3.187,-3.2425,-3.5932,-3.4979,-3.4184,-3.6941,-3.6386,-3.5909,-3.7381,-3.8345,-3.9698,-4.2066,-4.3548,-4.541,0.0,0.0,0.0,0.0,0.0,0.0,0.0,0.0,0.0,0.0,0.0,0.0,0.0,0.0,0.0,-4.6314,-4.6279,-4.5814,-4.4812,-4.4812,-4.432,-4.3409,-4.3329,-4.329,-4.329,-4.329,-4.2648,-4.1546,-4.1924,-4.165,-4.0933,-4.1376,-4.1489,-4.1444,-4.1444,-4.1452,-4.1309,-4.0696,-4.0472,-4.0382,0.0,0.0,0.0,0.0,0.0,0.0,0.0,0.0,0.0,0.0,0.0,0.0,0.0,0.0,0.0,0.0,0.0,0.0,0.0,-2.3625,-2.4276,-2.4948,-2.563,-2.6288,-2.6971,-2.8199,-2.9292,-3.0163,-3.0387,-3.0313,-2.9936,-2.9697,-2.8856,-2.7556,-2.7731,-2.7658,-2.735,-2.6894,-2.6962,-2.7334,-2.6877,0.0,0.0,0.0,0.0,0.0,0.0,0.0,0.0,0.0,-2.4321,-2.4965,-2.5235,-2.5963,-2.6607,-2.615,-2.5828,-2.5778,-2.6657,-2.789,-2.9247,-3.0603,-3.1411,-3.2857,-3.6629,-3.7123,-3.7004,-3.7803,-3.7713,-3.7674,-3.8342,-3.9899,-4.1474,-4.2777,-4.4654,0.0,0.0,0.0,0.0,0.0,0.0,0.0,0.0,0.0,0.0,0.0,0.0,0.0,0.0,0.0,0.0,-4.4142,-4.4091,-4.364,-4.2697,-4.2697,-4.2622,-4.2496,-4.3054,-4.3035,-4.2503,-4.2237,-4.1698,-4.0976,-4.1141,-4.1188,-4.1159,-4.1339,-4.113,-4.0726,-4.0322,-4.0172,-4.0127,-3.9888,-3.9783,-3.9753,0.0,0.0,0.0,0.0,0.0,0.0,0.0,0.0,0.0,0.0,0.0,0.0,0.0,0.0,0.0,0.0,0.0,0.0,-2.1983,-2.3026,-2.3804,-2.4261,-2.5113,-2.5914,-2.6572,-2.8169,-2.9265,-2.9894,-3.0103,-2.9988,-2.9565,-2.9039,-2.8449,-2.7824,-2.7548,-2.7576,-2.7756,-2.7012,-2.6996,-2.7401,-2.6894,-2.6404,0.0,0.0,0.0,0.0,0.0,0.0,0.0,0.0,-2.3746,-2.4237,-2.4694,-2.5541,-2.6251,-2.5761,-2.5914,-2.6252,-2.6034,-2.7422,-2.9121,-2.9914,-3.122,-3.3205,-3.6663,-3.78,-3.8269,-3.8832,-3.8971,-3.8875,-3.8466,-4.0343,-4.2189,0.0,-4.4733,0.0,0.0,0.0,0.0,0.0,0.0,0.0,0.0,0.0,0.0,0.0,0.0,0.0,0.0,0.0,0.0,0.0,-4.237,-4.2056,-4.1422,-4.1422,-4.1618,-4.201,-4.2312,-4.2225,-4.1801,-4.1092,-4.0571,-4.0322,-4.0516,-4.0674,-4.0756,-4.0756,-4.0502,-4.0053,-3.9589,-3.9388,-3.9388,-3.9388,-3.9388,-3.9388,0.0,0.0,0.0,0.0,0.0,0.0,0.0,0.0,0.0,0.0,0.0,0.0,0.0,0.0,0.0,0.0,0.0,0.0,-2.0703,-2.2503,-2.358,-2.3595,-2.4866,-2.5899,-2.6566,-2.7225,-2.7914,-2.8607,-2.925,-2.9535,-2.9494,-2.9494,-2.9381,-2.9156,-2.8445,-2.7987,-2.7756,-2.7012,-2.6691,-2.6708,-2.6691,-2.6691,0.0,0.0,0.0,0.0,0.0,0.0,0.0,0.0,-2.3393,-2.3663,-2.5135,-2.5592,-2.5609,-2.5592,-2.6624,-2.7649,-2.6963,-2.7859,-2.918,-2.9902,-3.1225,-3.307,-3.5863,-3.6562,-3.7448,-4.0391,-4.0391,-3.9397,-3.7795,-3.9532,0.0,-4.2059,0.0,0.0,0.0,0.0,0.0,0.0,0.0,0.0,0.0,0.0,0.0,0.0,0.0,0.0,0.0,0.0,0.0,0.0,-4.1392,-4.1392,-4.1392,-4.1392,-4.1588,-4.1964,-4.1076,-4.0949,-4.1339,-3.9999,-3.94,-3.9424,-4.0107,-4.0023,-3.9388,-3.9388,-3.9388,-3.9388,-3.9388,-3.9388,-3.9388,-3.9388,-3.9388,-3.9388,0.0,0.0,0.0,0.0,0.0,0.0,0.0,0.0,0.0,0.0,0.0,0.0,0.0,0.0,0.0,0.0,0.0,0.0,-2.062,-2.1241,-2.1979,-2.2927,-2.3362,-2.3856,-2.4477,-2.5151,-2.6512,-2.8607,-2.8334,-2.8394,-2.8805,-2.8738,-2.8624,-2.8428,-2.8634,-2.839,-2.7756,-2.7012,-2.6996,-2.7418,-2.6911,-2.6691,-2.6539,0.0,0.0,0.0,0.0,0.0,0.0,0.0,0.0,0.0,-2.39,-2.5118,-2.6167,-2.5134,-2.5862,-2.6759,-2.553,-2.7054,-2.9038,-2.9194,-3.1922,-3.4751,-3.5566,-3.6512,-3.7747,-3.9527,-3.9021,-3.8277,-3.8209,-3.9721,0.0,-4.0573,0.0,0.0,0.0,0.0,0.0,0.0,0.0,0.0,0.0,0.0,0.0,0.0,0.0,0.0,0.0,0.0,0.0,0.0,-3.9993,-3.9993,-3.9993,-3.9993,-4.0038,-4.0171,-3.9911,-4.0165,-4.0875,-3.9869,-3.938,-3.9399,-3.9627,-3.9568,-3.9388,-3.9388,-3.9388,-3.9388,-3.9388,-3.9388,-3.9388,-3.9388,-3.9388,-3.9388,0.0,0.0,0.0,0.0,0.0,0.0,0.0,0.0,0.0,0.0,0.0,0.0,0.0,0.0,0.0,0.0,0.0,0.0,0.0,-2.0539,-2.1186,-2.2269,-2.2568,-2.3122,-2.3984,-2.4649,-2.5651,-2.6996,-2.7101,-2.7425,-2.8018,-2.824,-2.8545,-2.889,-2.9006,-2.8605,-2.7756,-2.7012,-2.6793,-2.6894,-2.6454,-2.6251,-2.6133,0.0,0.0,0.0,0.0,0.0,0.0,0.0,0.0,0.0,-2.3308,-2.4323,-2.5324,-2.5062,-2.6065,-2.7178,-2.6844,-2.8543,-3.0505,-3.1013,-3.3298,-3.566,-3.6406,-3.7258,-3.8129,-3.9182,-3.8872,-3.8498,-3.8788,-3.9984,0.0,0.0,0.0,0.0,0.0,0.0,0.0,0.0,0.0,0.0,0.0,0.0,0.0,0.0,0.0,0.0,0.0,0.0,0.0,0.0,-3.9388,-3.9388,-3.9388,-3.9388,-3.9388,-3.9388,-3.9388,-3.9664,-4.0186,-3.9652,-3.9392,-3.9388,-3.9388,-3.9388,-3.9388,-3.9388,-3.9388,-3.9388,-3.9388,-3.9388,-3.9388,-3.9388,-3.9388,-3.9388,0.0,0.0,0.0,0.0,0.0,0.0,0.0,0.0,0.0,0.0,-1.6531,0.0,0.0,0.0,0.0,0.0,0.0,0.0,0.0,0.0,-2.1006,-2.1665,-2.2463,-2.343,-2.4664,-2.5217,-2.5226,-2.4672,-2.577,-2.662,-2.7214,-2.7961,-2.8903,-2.9968,-2.9337,-2.856,-2.7655,-2.6843,-2.6116,-2.5507,-2.5507,-2.5507,-2.5423,-2.4677,0.0,0.0,0.0,0.0,0.0,0.0,0.0,0.0,-2.3173,-2.3444,-2.376,-2.5104,-2.6721,-2.8351,-2.9557,-3.1121,-3.2725,-3.4061,-3.4957,-3.5982,-3.7871,-3.8302,-3.8512,-3.9275,-3.9484,-3.9535,-3.9433,-4.0158,-4.0734,0.0,0.0,0.0,0.0,0.0,0.0,0.0,0.0,0.0,0.0,0.0,0.0,0.0,0.0,0.0,0.0,0.0,0.0,0.0,-3.9388,-3.9388,-3.9388,-3.9388,-3.9328,0.0,-3.9269,-3.9239,-3.9179,-3.9313,-3.9388,-3.9388,-3.9388,-3.9388,-3.9388,-3.9313,-3.9334,-3.932,-3.926,-3.9209,-3.9245,-3.9305,-3.9334,-3.9298,0.0,0.0,0.0,0.0,0.0,0.0,0.0,0.0,0.0,0.0,0.0,0.0,0.0,0.0,0.0,0.0,0.0,0.0,0.0,0.0,-2.1006,-2.1665,-2.331,-2.456,-2.5375,-2.5008,-2.4949,-2.5222,-2.549,-2.5937,-2.6555,-2.7688,-2.8597,-2.9194,-2.8442,-2.7668,-2.6843,-2.554,-2.488,-2.4745,-2.4745,-2.4745,-2.466,-2.3932,-2.3528,0.0,0.0,0.0,0.0,0.0,0.0,0.0,-2.3173,-2.3814,-2.4206,-2.3967,-2.5823,-2.7882,-2.7529,-2.9462,-3.1882,-3.3213,-3.491,-3.6511,-3.7409,-3.7629,-3.7958,-3.9134,-3.9433,-3.9444,-3.943,-3.9596,0.0,0.0,0.0,0.0,0.0,0.0,0.0,0.0,0.0,0.0,0.0,0.0,0.0,0.0,0.0,0.0,0.0,0.0,0.0,-3.9388,-3.9388,-3.9388,-3.9388,-3.9388,-3.8883,0.0,-3.8186,-3.8012,-3.7407,-3.8784,-3.9388,-3.9388,-3.9388,-3.9388,-3.9379,-3.8841,-3.8616,-3.8556,-3.8048,-3.7838,-3.7898,-3.8422,-3.8616,-3.8691,0.0,0.0,0.0,0.0,0.0,0.0,0.0,0.0,0.0,0.0,0.0,0.0,0.0,0.0,0.0,0.0,0.0,0.0,0.0,-1.9854,-2.0662,-2.165,-2.3558,-2.4605,-2.4642,-2.4313,-2.4381,-2.4926,-2.4851,-2.5465,-2.672,-2.7978,-2.8921,-2.9482,-2.8721,-2.7757,-2.659,-2.5134,-2.4305,-2.3966,-2.3966,-2.3763,-2.3393,-2.3021,-2.2649,-2.2307,-2.1904,0.0,0.0,0.0,0.0,0.0,0.0,0.0,-2.3519,-2.3863,-2.5105,-2.6658,-2.8011,-2.9815,-3.1857,-3.4243,-3.5671,-3.6656,-3.727,-3.7404,-3.7614,-3.8317,-3.8706,-3.9035,-3.9328,0.0,0.0,0.0,0.0,0.0,0.0,0.0,0.0,0.0,0.0,0.0,0.0,0.0,0.0,0.0,0.0,0.0,0.0,-3.8452,-3.8452,-3.8452,-3.8657,-3.8767,-3.8767,-3.8562,-3.7968,-3.7104,-3.7357,-3.7337,-3.7118,-3.8008,-3.8452,-3.8452,-3.8452,-3.8452,-3.8437,-3.8078,-3.7913,-3.7883,-3.7539,-3.7404,-3.7449,-3.7793,-3.7913,-3.7973,0.0,0.0,0.0,0.0,0.0,0.0,0.0,0.0,0.0,0.0,0.0,0.0,0.0,0.0,0.0,0.0,0.0,0.0,0.0,-1.9435,-2.0468,-2.1799,-2.3409,-2.4051,-2.361,-2.349,-2.3752,-2.441,-2.4144,-2.5197,-2.75,-2.852,-2.9381,-3.0055,-2.9178,-2.8011,-2.6589,-2.4846,-2.3695,-2.3004,-2.2868,-2.2446,-2.1907,-2.1907,-2.1515,-2.0987,-2.0987,-2.1465,-2.2124,-2.2124,0.0,0.0,0.0,0.0,-2.255,-2.3836,-2.437,-2.5263,-2.8427,-3.0304,-3.2107,-3.5349,-3.6222,-3.6447,-3.6971,-3.7075,-3.7105,-3.7225,-3.7764,-3.8422,0.0,0.0,0.0,0.0,0.0,0.0,0.0,0.0,0.0,0.0,0.0,0.0,0.0,0.0,0.0,0.0,0.0,0.0,-3.7404,-3.7404,-3.7434,-3.7514,-3.7831,-3.7989,-3.7989,-3.7593,-3.7122,-3.6594,-3.6584,-3.676,-3.7075,-3.7075,-3.7195,-3.7404,-3.7404,-3.7404,-3.7404,-3.73,-3.724,-3.724,-3.712,-3.7075,-3.7105,-3.721,-3.724,-3.727,0.0,0.0,0.0,0.0,0.0,0.0,0.0,0.0,0.0,0.0,-1.8135,-1.8788,-1.8798,-1.8745,0.0,0.0,0.0,0.0,-1.8717,0.0,0.0,-2.2508,-2.2823,-2.3167,-2.3595,-2.3092,-2.3334,-2.441,-2.3628,-2.523,-2.9006,-2.9007,-2.9381,-3.004,-2.8601,-2.7503,-2.6522,-2.3765,-2.2158,-2.1427,-2.0724,-2.0403,-2.0318,-2.0318,-2.0251,-2.0166,-2.0166,-2.067,-2.1343,-2.1343,-2.1769,0.0,0.0,0.0,-2.2333,-2.2548,-2.3276,-2.4249,-2.532,-2.8468,-3.2016,-3.4219,-3.519,-3.5654,-3.5744,-3.5759,-3.5923,0.0,-3.7105,0.0,0.0,0.0,0.0,0.0,0.0,0.0,0.0,0.0,0.0,0.0,0.0,0.0,0.0,0.0,0.0,0.0,0.0,0.0,-3.7404,-3.7404,-3.7593,-3.7989,-3.7672,-3.7499,-3.7499,-3.7419,-3.682,-3.5692,-3.5654,-3.5696,-3.5759,-3.5759,-3.6372,-3.7404,-3.7404,-3.7404,-3.736,-3.6836,-3.6611,-3.6552,-3.5983,-3.5759,-3.5833,-3.6402,-3.6611,-3.6686,0.0,0.0,0.0,0.0,0.0,0.0,0.0,0.0,0.0,0.0,0.0,-1.9224,-1.8921,-1.8794,0.0,0.0,0.0,0.0,-1.8132,-1.9405,0.0,0.0,-2.1744,-2.2084,-2.1994,-2.1355,-2.1713,-2.3117,-2.2347,-2.4435,-2.9133,-2.9053,-3.004,-3.1867,-2.9516,-2.8044,-2.7114,-2.4171,-2.2243,-2.1156,-2.0805,-2.1414,-2.2293,-2.0183,-2.0686,-2.2243,-2.0145,-1.9891,-2.0602,-2.1055,-2.1427,-2.1752,-2.2161,0.0,0.0,0.0,-2.2305,-2.3247,-2.5659,-2.8305,-3.1091,-3.383,-3.4728,-3.5026,-3.5415,-3.5504,-3.5594,-3.5878,0.0,0.0,0.0,0.0,0.0,0.0,0.0,0.0,0.0,0.0,0.0,0.0,0.0,0.0,0.0,0.0,0.0,0.0,0.0,-3.6342,-3.6342,-3.6342,-3.6435,-3.6655,-3.6435,-3.6342,-3.6342,-3.6342,-3.6052,-3.552,-3.5499,-3.5504,-3.5504,-3.5504,-3.5818,-3.6342,-3.6342,-3.6342,-3.6327,-3.6043,-3.5938,-3.5908,-3.5624,-3.5504,-3.5549,-3.5833,-3.5938,-3.5983,0.0,0.0,0.0,0.0,0.0,0.0,0.0,0.0,0.0,0.0,0.0,0.0,-1.912,0.0,0.0,0.0,0.0,0.0,-1.7699,0.0,0.0,0.0,0.0,-2.0707,-2.0195,-1.9705,-2.0087,-2.1355,-2.1199,-2.3736,-2.8811,-2.8942,-3.0783,-3.3846,-3.1055,-2.9178,-2.7908,-2.5135,-2.3207,-2.2037,-2.2037,-2.3018,-2.4271,-2.224,-2.307,-2.4894,-2.1528,-2.0682,-2.115,-2.1188,-2.1326,-2.1546,-2.1904,-2.2023,0.0,0.0,0.0,-2.1665,-2.504,-2.6985,-2.8918,-3.2392,-3.3635,-3.4203,0.0,0.0,-3.5504,0.0,0.0,0.0,0.0,0.0,0.0,0.0,0.0,0.0,0.0,0.0,0.0,0.0,0.0,0.0,0.0,0.0,0.0,0.0,0.0,-3.5504,-3.5504,-3.5504,-3.5504,-3.5504,-3.5504,-3.5504,-3.5504,-3.5504,-3.5504,-3.5504,-3.5504,-3.5504,-3.5504,-3.5504,-3.5504,-3.5504,-3.5504,-3.5504,-3.5504,-3.5504,-3.5504,-3.5504,-3.5504,-3.5504,-3.5504,-3.5504,-3.5504,-3.5504,0.0,0.0,0.0,0.0,0.0,0.0,0.0,0.0,0.0,0.0,0.0,0.0,-1.9603,-1.8521,-1.7743,-1.7713,0.0,0.0,0.0,0.0,0.0,0.0,0.0,0.0,-1.8807,-1.8777,-1.8951,-1.9349,-2.0528,-2.355,-2.8232,-2.8754,-3.1328,-3.538,-3.3119,-3.0939,-2.879,-2.6471,-2.5033,-2.4321,-2.4321,-2.4389,-2.4795,-2.7453,-2.8115,-2.7336,-2.5028,-2.4231,-2.3961,-2.1893,-2.1651,-2.2141,-2.1478,-2.1258,-2.1039,0.0,0.0,0.0,-2.1359,-2.2927,-2.4866,-2.8873,-3.124,-3.2961,0.0,0.0,0.0,0.0,0.0,0.0,0.0,0.0,0.0,0.0,0.0,0.0,0.0,0.0,0.0,0.0,0.0,0.0,0.0,0.0,0.0,0.0,0.0,-3.5504,-3.5504,-3.5504,-3.5504,-3.5504,-3.5504,-3.5504,-3.5504,-3.5504,-3.5504,-3.5504,-3.5504,-3.5504,-3.5504,-3.5504,-3.5504,-3.5504,-3.5504,-3.5504,-3.5504,-3.5504,-3.5504,-3.5504,-3.5504,-3.5504,-3.5504,-3.5504,-3.5504,-3.5504,0.0,0.0,0.0,0.0,0.0,0.0,0.0,0.0,0.0,0.0,0.0,0.0,0.0,-1.8252,-1.7518,-1.71,-1.6488,0.0,0.0,0.0,0.0,0.0,0.0,0.0,-1.8702,-1.8485,-1.8594,-1.9009,-1.9724,-2.1898,-2.5471,-2.6879,-2.8741,-3.0931,-3.0933,-3.0747,-3.0211,-2.6979,-2.5169,-2.4494,-2.4547,-2.5966,-2.7844,-2.6205,-2.769,-3.0094,-2.6072,-2.4356,-2.3936,-2.3628,-2.2572,-2.1368,-2.1137,-2.079,-2.0125,-1.8599,-1.836,-1.8862,-2.0074,-2.1699,-2.3781,-2.6911,-2.916,-3.0971,-3.2287,-3.3754,-3.4846,0.0,0.0,0.0,0.0,0.0,0.0,0.0,0.0,0.0,0.0,0.0,0.0,0.0,0.0,0.0,0.0,0.0,0.0,0.0,0.0,0.0,-3.5504,-3.5504,-3.5504,-3.5504,-3.5504,-3.5504,-3.5504,-3.5504,-3.5504,-3.5504,-3.5504,-3.5504,-3.5504,-3.5504,-3.5504,-3.5504,-3.5504,-3.5504,-3.5504,-3.5504,-3.5504,-3.5504,-3.5504,-3.5504,-3.5504,-3.5504,-3.5504,-3.5504,0.0,0.0,0.0,0.0,0.0,0.0,0.0,0.0,-1.7907,-1.8086,0.0,0.0,0.0,0.0,-1.7684,-1.6771,-1.6323,-1.6024,-1.5814,-1.6189,0.0,0.0,0.0,0.0,-1.8702,-1.8259,-1.813,-1.8371,-1.8909,-2.0486,-2.303,-2.4791,-2.6358,-2.7775,-2.7871,-2.9004,-3.0649,-2.7909,-2.6302,-2.5661,-2.6242,-2.7787,-2.958,-2.8254,-2.9682,-3.1927,-2.8478,-2.6663,-2.5882,-2.5843,-2.4551,-2.2715,-2.1627,-2.0098,-1.8531,-1.7372,-1.7486,-1.8132,-1.8565,-1.9989,-2.2044,-2.4866,-2.6587,-2.8263,-3.0898,0.0,-3.3425,0.0,0.0,0.0,0.0,0.0,0.0,0.0,0.0,0.0,0.0,0.0,0.0,0.0,0.0,0.0,0.0,0.0,0.0,0.0,0.0,0.0,-3.5504,-3.5504,-3.5504,-3.5504,-3.5504,-3.5504,-3.5504,-3.5504,-3.5504,-3.5504,-3.5504,-3.5504,-3.5504,-3.5504,-3.5504,-3.5504,-3.5504,-3.5504,-3.5504,-3.5504,-3.5504,-3.5504,-3.5504,-3.5504,-3.5504,-3.5504,-3.5504,-3.5504,0.0,0.0,0.0,0.0,0.0,0.0,0.0,0.0,-1.7504,-1.8027,0.0,0.0,0.0,0.0,0.0,-1.686,-1.6741,-1.6458,-1.5873,-1.5814,0.0,0.0,0.0,0.0,-1.8687,-1.8059,-1.759,-1.7325,-1.8109,-1.9385,-2.1116,-2.2611,-2.4448,-2.6441,-2.4311,-2.5776,-2.9833,-2.9108,-2.8415,-2.7922,-2.9485,-2.9777,-2.9744,-3.4014,-3.4465,-3.2749,-3.2435,-3.142,-3.0001,-2.8522,-2.7504,-2.6257,-2.2801,-1.9233,-1.6318,-1.6318,-1.6498,-1.6726,0.0,0.0,0.0,-2.2667,0.0,0.0,-3.0061,0.0,0.0,0.0,0.0,0.0,0.0,0.0,0.0,0.0,0.0,0.0,0.0,0.0,0.0,0.0,0.0,0.0,0.0,0.0,0.0,0.0,0.0,-3.5504,-3.5504,-3.5504,-3.5504,-3.5504,-3.5504,-3.5504,-3.5504,-3.5504,-3.5504,-3.5504,-3.5504,-3.5504,-3.5504,-3.5504,-3.5504,-3.5504,-3.5504,-3.5504,-3.5504,-3.5504,-3.5504,-3.5504,-3.5504,-3.5504,-3.5504,-3.5504,-3.5504,-3.5504,0.0,0.0,0.0,0.0,0.0,-1.8016,-1.7486,-1.7666,-1.7927,0.0,0.0,0.0,-1.9074,-1.8807,-1.8553,-1.8177,-1.7713,-1.7145,-1.6488,-1.6039,-1.6144,-1.695,-1.7428,-1.8012,-1.8687,-1.8275,-1.8023,-1.796,-1.8032,-1.818,-1.8416,-2.0194,-2.1467,-2.2293,-2.2557,-2.3365,-2.451,-2.4195,-2.5354,-2.7371,-2.7417,-2.903,-3.1406,-3.1805,-3.3116,-3.459,-3.353,-3.229,-3.1153,-3.1218,-2.8571,-2.4672,-2.1321,-1.8577,-1.6593,-1.6593,-1.6999,-1.7309,-1.683,0.0,0.0,0.0,0.0,0.0,0.0,0.0,0.0,0.0,0.0,0.0,0.0,0.0,0.0,0.0,0.0,0.0,0.0,0.0,0.0,0.0,0.0,0.0,0.0,0.0,0.0,0.0,-3.5504,-3.5504,-3.5504,-3.5504,-3.5504,-3.5504,-3.5504,-3.5504,-3.5504,-3.5504,-3.5504,-3.5504,-3.5504,-3.5504,-3.5504,-3.5504,-3.5504,-3.5504,-3.5504,-3.5504,-3.5504,-3.5504,-3.5504,-3.5504,-3.5504,-3.5504,-3.5504,-3.5504,-3.5504,-3.5504,0.0,0.0,0.0,-1.8795,-1.8581,-1.8355,-1.7815,-1.8144,-1.8568,0.0,0.0,0.0,-2.0015,-1.9944,-1.9735,-1.9166,-1.8508,-1.7697,-1.6756,-1.6368,-1.6323,-1.6681,-1.7339,-1.8012,-1.8687,-1.8514,-1.8263,-1.7989,-1.7603,-1.7153,-1.6692,-1.8049,-1.8781,-1.8994,-1.9719,-2.0177,-2.0429,-2.005,-2.2079,-2.5658,-2.7055,-2.8816,-3.071,-3.1457,-3.2632,-3.3858,-3.3888,-3.3245,-3.2452,-3.311,-2.9819,-2.4933,-2.2188,-1.9779,-1.7848,-1.7279,-1.7788,-1.8326,-1.7369,-1.8177,-1.9316,-1.9495,0.0,0.0,-2.331,-2.447,0.0,0.0,0.0,0.0,0.0,0.0,0.0,0.0,0.0,0.0,0.0,0.0,0.0,0.0,0.0,0.0,0.0,0.0,0.0,-3.5504,-3.5504,-3.5504,-3.5504,-3.5504,-3.5504,-3.5504,-3.5504,-3.5504,-3.5504,-3.5504,-3.5504,-3.5504,-3.5504,-3.5504,-3.5504,-3.5504,-3.5504,-3.5504,-3.5504,-3.5504,-3.5504,-3.5504,-3.5504,-3.5504,-3.5504,-3.5504,-3.5504,-3.5504,-3.5504,-3.5504,0.0,0.0,-1.9346,-1.8455,-1.8619,-1.877,-1.8355,-1.8742,-1.9279,0.0,-2.0507,-2.1201,-2.1933,-2.1889,-2.1321,-2.0142,-1.9271,-1.8267,-1.701,-1.6771,-1.6666,-1.6607,-1.7234,-1.7878,-1.8446,-1.8553,-1.8252,-1.7578,-1.6995,-1.6398,-1.5814,-1.6353,-1.6607,-1.6607,-1.6607,-1.6921,-1.7459,-1.7085,-1.9286,-2.336,-2.7163,-2.8704,-2.9083,-3.2191,-3.2796,-3.2168,-3.3963,-3.4158,-3.3664,-3.4054,-3.1031,-2.6752,-2.4522,-2.2218,-2.0049,-1.8491,-1.8986,-1.9753,-1.8401,-1.8521,-1.9286,-2.0314,-1.9358,0.0,-2.3819,-2.367,-2.3781,0.0,0.0,0.0,0.0,0.0,0.0,0.0,0.0,0.0,0.0,0.0,0.0,0.0,0.0,0.0,0.0,-3.5504,-3.5504,-3.5504,-3.5367,-3.5307,-3.5337,-3.537,-3.5385,-3.5385,-3.5385,-3.5429,-3.5504,-3.5355,-3.5325,-3.5385,-3.5385,-3.5355,-3.5295,-3.5429,-3.5459,-3.5385,-3.5474,-3.5504,-3.5504,-3.5504,-3.5504,-3.5504,-3.5504,-3.5504,-3.5504,-3.5504,-3.5504,-3.5504,0.0,-1.799,-1.8593,-1.8807,-1.8569,-1.848,-1.8795,-1.9357,-1.9784,-1.9879,-2.1303,-2.2757,-2.3917,-2.3116,-2.2403,-2.2134,-2.0516,-1.9151,-1.8356,-1.7294,-1.6473,-1.6009,-1.6577,-1.6965,-1.71,-1.7608,-1.7579,-1.689,-1.6756,-1.6398,-1.5799,-1.5919,-1.5979,-1.5979,-1.5979,-1.6039,-1.6263,-1.77,-1.974,-2.2146,-2.399,-2.7159,-3.0946,-3.2206,-3.3544,-3.4786,-3.516,-3.4861,-3.4099,-3.2602,-3.1391,-2.9911,-2.6348,-2.4866,-2.3879,-2.0957,-2.1066,-2.1819,-2.0483,-2.0602,-2.0917,-2.0094,-2.0408,0.0,-2.0183,-2.1006,-2.2313,0.0,0.0,0.0,0.0,0.0,0.0,0.0,0.0,0.0,0.0,0.0,0.0,0.0,0.0,0.0,0.0,-3.5504,-3.5504,-3.5504,-3.4505,-3.4055,-3.4422,-3.4437,-3.4513,-3.4681,-3.4713,-3.4936,-3.5504,-3.4427,-3.4158,-3.4713,-3.4713,-3.4397,-3.3918,-3.5011,-3.5205,-3.4743,-3.5265,-3.5504,-3.5504,-3.5504,-3.5504,-3.5504,-3.5504,-3.5504,-3.5504,-3.5504,-3.5504,-3.5504,-1.7011,-1.7626,-1.8268,-1.8544,-1.8594,-1.8892,-1.977,-1.9869,-2.0321,-2.1617,-2.3178,-2.4133,-2.4096,-2.3535,-2.2897,-2.2269,-2.0961,-1.963,-1.8281,-1.7563,-1.6787,-1.5844,-1.6383,-1.686,-1.7189,-1.7518,-1.7533,-1.7204,-1.686,-1.6398,-1.5799,-1.5799,-1.6308,-1.7207,-1.6233,-1.6518,-1.7746,-1.7713,-1.885,-2.1006,-2.4642,-2.8243,-3.1647,-3.3351,-3.4637,-3.5504,-3.5504,-3.528,-3.4681,-3.2691,-3.154,-3.0524,-2.7934,-2.6647,-2.5644,-2.3319,-2.311,-2.3295,-2.165,-2.144,-2.162,-2.128,-2.0951,0.0,0.0,-2.0711,-2.1175,-2.2802,0.0,0.0,0.0,0.0,0.0,0.0,0.0,0.0,0.0,0.0,0.0,0.0,0.0,0.0,0.0,-3.4716,-3.4746,-3.4517,-3.3655,-3.3235,-3.3508,-3.3735,-3.3902,-3.3978,-3.3978,-3.4158,-3.4502,-3.3393,-3.3013,-3.3368,-3.3368,-3.2969,-3.2298,-3.3366,-3.3868,-3.3868,-3.4206,-3.4789,-3.5504,-3.5504,-3.5504,-3.5504,-3.5504,-3.5504,-3.5504,-3.5504,-3.5504,-3.5504,-1.6434,-1.7174,-1.7915,-1.8028,-1.8481,-1.9218,-2.0287,-2.0294,-2.1106,-2.3717,-2.5079,-2.5435,-2.4462,-2.4373,-2.3999,-2.3101,-2.2069,-2.0703,-1.8954,-1.8491,-1.7758,-1.6608,-1.6652,-1.707,-1.7878,-1.7654,-1.7459,-1.7325,-1.6921,-1.6398,-1.5799,-1.5799,-1.6698,-1.8252,-1.6937,-1.7521,-1.9405,-1.8057,-1.8775,-2.1261,-2.6213,-2.9011,-3.0494,-3.344,-3.4622,-3.4816,-3.5325,-3.5504,-3.519,-3.32,-3.1794,-3.0567,-2.8786,-2.7814,-2.6991,-2.5143,-2.4963,-2.4933,-2.2981,-2.2458,-2.2488,-2.2658,-2.1669,-2.0887,0.0,0.0,0.0,-2.2458,0.0,0.0,0.0,0.0,0.0,0.0,0.0,0.0,0.0,0.0,0.0,0.0,0.0,0.0,0.0,-3.3006,-3.299,-3.3107,-3.2301,-3.2063,-3.2703,-3.3094,-3.3305,-3.3305,-3.3137,-3.3197,-3.3499,-3.2399,-3.198,-3.2268,-3.2095,-3.169,-3.1124,-3.1865,-3.2532,-3.3071,-3.3187,-3.3971,-3.513,-3.525,-3.531,-3.5325,-3.5444,-3.5504,-3.5504,-3.5504,-3.5504,-3.5504,-1.5706,-1.6283,-1.6873,-1.741,-1.7928,-1.8504,-1.9107,-2.0488,-2.2412,-2.5044,-2.6016,-2.6632,-2.7106,-2.7151,-2.733,-2.7784,-2.5561,-2.3812,-2.2981,-2.1316,-2.0034,-1.9288,-1.7609,-1.7294,-1.8568,-1.7413,-1.6562,-1.6023,-1.6488,-1.6398,-1.5799,-1.5799,-1.6204,-1.698,-1.7938,-1.8538,-1.8882,-1.9836,-2.2048,-2.5046,-2.6318,-2.6258,0.0,-2.9624,-3.145,-3.2273,-3.4666,-3.5504,-3.519,0.0,-3.2407,-3.1644,-2.7979,-2.8308,-2.934,-2.5666,-2.6279,-2.7709,-2.5704,-2.5166,-2.4762,-2.3122,-2.3385,-2.3334,-2.0647,0.0,-2.1216,-2.0337,0.0,0.0,0.0,0.0,0.0,0.0,0.0,0.0,0.0,0.0,0.0,0.0,0.0,0.0,0.0,0.0,-2.9291,-3.1566,-2.9521,-2.9457,-3.2393,-3.2572,-3.2617,-3.2617,-3.1863,-3.211,-3.3484,-3.1522,-3.1169,-3.2467,-3.1678,-3.1356,-3.1442,-3.1965,-3.2353,-3.2601,-3.3212,-3.3587,-3.3769,-3.4352,-3.4623,-3.4651,-3.5265,-3.5504,-3.5504,-3.5504,-3.5504,-3.5504,-1.5135,-1.5668,-1.612,-1.6358,-1.7137,-1.8029,-1.8926,-2.1856,-2.4089,-2.4458,-2.6065,-2.7151,-2.7046,-2.7031,-2.7111,-2.741,-2.6408,-2.5001,-2.3212,-2.2293,-2.1201,-1.9768,-1.8523,-1.8117,-1.8687,-1.7384,-1.6577,-1.6323,-1.6234,-1.6054,-1.5799,-1.5799,-1.6743,-1.8446,-1.8627,-1.9956,-2.2093,-2.153,-2.2084,0.0,0.0,-2.4088,0.0,-2.9864,-3.2422,-3.2826,-3.3933,-3.4337,-3.4098,0.0,-3.145,0.0,0.0,-2.8891,-2.8053,-2.7186,-2.6901,-2.6512,-2.4881,-2.5016,-2.5226,-2.361,-2.3625,0.0,-2.1335,0.0,-2.0483,0.0,0.0,0.0,0.0,0.0,0.0,0.0,0.0,0.0,0.0,0.0,0.0,0.0,0.0,0.0,0.0,0.0,0.0,0.0,0.0,-2.954,-3.1241,-3.1279,-3.1232,-3.1232,-3.0397,-3.023,-3.0891,-2.9505,-2.9095,-2.9694,-2.9329,-2.8981,-2.8634,-2.9816,-3.0587,-3.108,-3.1822,-3.2684,-3.3514,-3.3784,-3.3903,-3.3933,-3.4218,-3.4816,-3.5504,-3.5504,-3.5504,-3.5504,-1.4576,-1.511,-1.5537,-1.5668,-1.6497,-1.7693,-1.9337,-2.2281,-2.4287,-2.4223,-2.6031,-2.736,-2.7435,-2.7724,-2.8083,-2.8442,-2.8323,-2.726,-2.4994,-2.417,-2.3197,-2.1924,-2.0183,-1.951,-2.0034,-1.8026,-1.6875,-1.6696,-1.6099,-1.5799,-1.5799,-1.5799,-1.6907,-1.8897,-1.9151,-2.1051,-2.4007,-2.3146,-2.3191,-2.3924,-2.4672,-2.4747,-2.4971,-3.0372,-3.2871,-3.3499,-3.3499,-3.3499,-3.326,-3.1735,-3.0612,0.0,-3.0313,0.0,-2.7575,-2.8368,-2.7814,-2.6617,-2.5106,0.0,0.0,0.0,0.0,0.0,0.0,0.0,0.0,0.0,0.0,0.0,0.0,0.0,-1.8565,-1.8687,0.0,-1.9016,0.0,0.0,0.0,0.0,0.0,0.0,0.0,0.0,0.0,0.0,0.0,0.0,-2.956,-2.9679,-2.9724,-2.9724,-2.9014,-2.8748,-2.9002,-2.8149,-2.7835,-2.8051,-2.7802,-2.7517,-2.7229,-2.8214,-2.9045,-2.9781,-3.0606,-3.1576,-3.2642,-3.3049,-3.323,-3.3245,-3.3425,-3.4098,-3.4951,-3.4951,-3.4951,-3.4981,-1.4009,-1.4563,-1.5085,-1.5605,-1.617,-1.7514,-2.0415,-2.0964,-2.2121,-2.5152,-2.6183,-2.7375,-2.9292,-3.0612,-3.1854,-3.317,-3.2691,-3.1734,-3.0342,-2.7874,-2.6746,-2.7315,-2.3041,-2.153,-2.34,-1.9642,-1.7354,-1.6696,-1.6099,-1.5799,-1.5799,-1.5799,-1.6159,-1.6905,-1.9492,-2.1425,-2.2882,-2.4702,-2.6976,-2.9307,-2.8682,-2.9522,-3.1077,0.0,-3.1285,-3.3499,-3.3499,0.0,0.0,-3.121,-3.0507,0.0,0.0,0.0,0.0,0.0,0.0,0.0,0.0,0.0,0.0,-2.3526,0.0,0.0,0.0,0.0,-2.1455,0.0,0.0,0.0,0.0,-2.1077,-2.0198,-1.8912,-1.8717,0.0,0.0,0.0,0.0,0.0,0.0,0.0,0.0,0.0,0.0,0.0,0.0,0.0,-2.7262,-2.7968,-2.8285,-2.8285,-2.7919,-2.8149,-2.9002,-2.8149,-2.8117,-2.8939,-2.8117,-2.8149,-2.8907,-2.8117,-2.8214,-2.9093,-2.9948,-3.0372,-3.0505,-3.196,-3.2512,-3.2617,-3.3245,-3.3529,-3.3559,-3.3559,-3.3559,-3.3649,-1.4065,-1.4525,-1.4853,-1.4676,-1.5387,-1.6808,-1.9338,-2.1834,-2.41,-2.6002,-2.7628,-2.9325,-3.13,-3.1884,-3.2512,-3.3425,-3.329,-3.2602,-3.1241,-2.9535,-2.8472,-2.8263,-2.5076,-2.3379,-2.3595,-2.1017,-1.9148,-1.8027,-1.6936,-1.6622,-1.7041,-1.6188,-1.6368,-1.7428,-1.9241,-2.15,-2.4022,-2.5113,-2.6632,0.0,0.0,-2.9101,-3.0823,0.0,0.0,-3.2168,-3.2168,-3.2168,0.0,-3.1391,-3.0612,-2.9924,-3.0133,-2.9295,-2.8408,-2.9082,-2.8948,0.0,0.0,0.0,-2.8113,-2.4792,0.0,0.0,0.0,0.0,0.0,0.0,0.0,0.0,0.0,-2.1156,-2.0423,-1.951,-1.8986,-1.8311,0.0,0.0,0.0,0.0,0.0,0.0,0.0,0.0,0.0,0.0,0.0,0.0,0.0,-2.7225,-2.7316,-2.6843,-2.6479,-2.6449,-2.6765,-2.6835,-2.704,-2.7351,-2.704,-2.7074,-2.7384,-2.8182,-2.8716,-2.9097,-3.0494,-3.1087,-3.1131,-3.1618,-3.1839,-3.1854,-3.2079,-3.2168,-3.2273,-3.317,-3.3499,-3.3529,-1.4626,-1.4639,-1.4626,-1.4664,-1.5575,-1.6935,-1.8807,-2.165,-2.4202,-2.5881,-2.7879,-2.9878,-3.178,-3.2526,-3.3125,-3.3784,-3.4068,-3.3544,-3.1959,-3.1091,-3.0328,-2.9669,-2.7295,-2.5944,-2.5734,-2.3101,-2.1096,-1.9765,-1.8192,-1.7503,-1.7684,-1.6623,-1.6563,-1.7399,-1.8747,-2.1051,-2.4007,-2.5375,-2.6991,0.0,0.0,-2.9744,0.0,0.0,-3.1346,-3.1182,0.0,-3.1511,-3.1511,-3.1511,-3.0943,-3.0417,-3.1241,-3.033,-2.9146,-3.0013,-2.9654,-2.8876,-2.8438,-2.8948,0.0,-2.6033,-2.5644,0.0,-2.2113,0.0,-2.2547,0.0,0.0,0.0,0.0,-2.2488,-2.1186,-2.0513,-1.945,-1.8097,0.0,-1.651,0.0,0.0,0.0,0.0,0.0,0.0,-2.0181,-2.1947,0.0,0.0,0.0,0.0,-2.5631,-2.5379,-2.5312,-2.5322,-2.5322,-2.5908,-2.6185,-2.6185,-2.6399,-2.6499,-2.6521,-2.7604,-2.8266,-2.862,-3.0011,-3.0807,-3.1087,-3.138,-3.1511,-3.1511,-3.1511,-3.1511,-3.16,-3.2452,-3.2946,-3.314,-1.5575,-1.4916,-1.4576,-1.5613,-1.669,-1.7798,-1.892,0.0,-2.2538,-2.4956,-2.7117,-2.9158,-3.1039,-3.2648,-3.3844,-3.4503,-3.513,-3.4696,-3.2751,-3.2602,-3.2273,-3.1675,-2.9762,-2.9026,-2.9636,-2.5734,-2.3071,-2.1784,-1.972,-1.8371,-1.7727,-1.704,-1.6696,-1.6756,-1.8072,-2.0154,-2.2868,-2.5428,-2.8053,-3.0567,-3.1227,-3.1481,-3.1451,-3.1496,-3.1077,-3.0597,-3.1256,-3.1511,-3.1511,-3.1511,-3.1511,-3.1511,-3.1511,-3.1511,-3.1511,-3.1511,-3.1481,-3.1182,-2.9968,-2.9636,-2.9142,-2.7126,0.0,0.0,0.0,0.0,-2.4455,0.0,0.0,0.0,0.0,0.0,-2.2508,-2.1769,-1.9971,-1.7846,-1.5523,-1.5734,0.0,0.0,0.0,0.0,0.0,-1.7107,-1.6916,-2.0193,-1.9619,-2.0031,0.0,0.0,0.0,-2.3904,-2.4481,-2.475,-2.475,-2.5297,-2.5561,-2.5561,-2.6147,-2.6411,-2.6411,-2.6514,-2.6942,-2.7729,-2.8662,-2.9538,-3.0359,-3.1161,-3.1511,-3.1511,-3.1511,-3.1511,-3.1511,-3.1511,-3.1899,-3.2437,-1.516,-1.5877,-1.6631,-1.692,-1.7256,-1.7839,0.0,0.0,0.0,-2.5676,-2.8526,-3.1111,-3.3058,-3.4301,-3.5055,-3.5235,-3.54,-3.5295,-3.4771,-3.3799,-3.338,-3.3709,-3.1809,-3.0584,-3.0283,-2.6871,-2.4448,-2.3116,-2.0154,-1.8612,-1.8433,-1.7249,-1.6696,-1.6741,-1.7594,-1.972,-2.2808,-2.4433,-2.7191,-3.0567,-3.1227,-3.1197,0.0,0.0,-3.1077,-3.0597,-3.1256,-3.1511,-3.1511,-3.1511,-3.1511,-3.1511,-3.1511,-3.1511,-3.1511,-3.1511,-3.1137,-3.0702,-3.0357,-2.9924,-2.9247,-2.772,-2.6971,-2.6153,0.0,0.0,0.0,0.0,0.0,0.0,0.0,0.0,-2.2832,-2.1231,-1.935,-1.778,-1.6858,-1.5693,0.0,-1.5951,0.0,0.0,0.0,-1.678,-1.8069,-1.8216,-1.9659,0.0,0.0,0.0,0.0,-2.2711,-2.3703,-2.4217,-2.4217,-2.4745,-2.5021,-2.5021,-2.5172,-2.5247,-2.528,-2.6488,-2.7046,-2.7218,-2.9237,-3.0192,-3.0359,-3.1161,-3.1511,-3.1511,-3.1511,-3.1511,-3.1511,-3.1511,-3.1615,-3.1765,-1.6003,-1.7124,-1.8179,-1.8405,0.0,0.0,-2.0013,-2.1496,0.0,-2.5322,-2.7981,0.0,-3.2103,-3.3833,-3.5019,-3.5472,-3.5504,-3.525,-3.4666,-3.4472,-3.4277,-3.4053,-3.326,-3.2512,-3.1824,-2.8876,-2.6393,-2.4477,-2.1485,-1.957,-1.8672,-1.7324,-1.6696,-1.6726,-1.7399,-1.9059,-2.1565,-2.4313,-2.7275,-3.0163,-3.0793,0.0,0.0,-3.1361,-3.1271,-3.0972,-3.1361,-3.1511,-3.1511,-3.1511,-3.1511,-3.1511,-3.1511,-3.1511,-3.1511,-3.1511,-3.1017,-3.0507,-3.0507,-3.0058,-2.9427,-2.8663,-2.8199,-2.747,-2.5854,-2.5779,-2.5929,0.0,0.0,0.0,0.0,0.0,0.0,-2.0198,-1.8346,-1.7112,-1.6854,-1.5571,-1.471,0.0,-1.5821,0.0,0.0,0.0,-1.735,0.0,0.0,0.0,0.0,0.0,0.0,-2.192,-2.2799,-2.3376,-2.3584,-2.418,-2.4456,-2.4469,-2.4675,-2.4788,-2.482,-2.5741,-2.6303,-2.6653,-2.8331,-2.9377,-2.9956,-3.0746,-3.1241,-3.1511,-3.1511,-3.1511,-3.1511,-3.1511,-3.1511,-3.1511,-1.7388,-1.843,-1.9334,-1.9736,0.0,0.0,0.0,-2.2096,0.0,-2.4883,0.0,-2.8826,-3.0091,-3.2385,-3.4211,-3.5213,-3.5311,-3.4852,-3.3844,-3.4861,-3.4981,-3.3814,-3.4307,-3.4294,-3.3514,-3.0954,-2.8278,-2.5615,-2.2892,-2.0543,-1.8553,-1.7294,-1.6651,-1.6622,-1.7264,-1.8506,0.0,-2.4754,-2.7754,-2.9666,-3.0253,-3.0883,-3.1511,-3.1511,-3.1511,-3.1511,-3.1511,-3.1511,-3.1511,-3.1511,-3.1511,-3.1511,-3.1511,-3.1511,-3.1481,-3.1391,-3.0883,-3.0357,-3.0268,-2.9789,-2.9352,-2.9352,-2.9352,-2.8888,-2.7111,-2.6746,-2.6746,-2.6746,-2.5809,-2.5815,0.0,0.0,0.0,-1.9265,-1.7675,-1.6641,-1.6284,-1.583,-1.4955,-1.3387,0.0,0.0,0.0,0.0,0.0,0.0,0.0,0.0,0.0,0.0,0.0,0.0,-2.202,0.0,-2.3095,0.0,-2.3891,-2.3891,-2.4336,-2.4575,-2.4562,-2.469,-2.5115,-2.5871,-2.6726,-2.78,-2.9043,-2.9868,-3.0568,-3.1161,-3.1161,-3.1161,-3.1161,-3.1161,-3.1161,-3.119,-1.8041,-1.9309,-2.0289,-1.9874,0.0,-2.3271,-2.4669,-2.5317,-2.5921,-2.6741,-2.9064,-3.0722,-3.0996,-3.2129,-3.3241,-3.4177,-3.4245,0.0,0.0,0.0,0.0,-3.516,-3.5265,-3.4756,-3.3529,-3.0954,-2.8278,-2.5615,-2.2443,-1.9836,-1.7863,-1.707,-1.6443,-1.5979,-1.6592,0.0,-2.2373,-2.533,0.0,-2.9666,-3.0253,-3.0883,-3.1511,-3.1511,-3.1511,-3.1511,-3.1511,-3.1511,-3.1511,-3.1511,-3.1511,-3.1511,-3.1511,-3.1511,-3.1391,-3.0851,-3.0238,-2.9651,-2.9086,-2.8442,-2.7944,-2.7944,-2.7944,-2.7854,-2.751,-2.742,-2.742,-2.742,-2.724,-2.6926,-2.6393,0.0,0.0,0.0,0.0,0.0,0.0,-1.7882,-1.7505,-1.3674,-1.6223,-1.7166,0.0,0.0,0.0,0.0,0.0,0.0,0.0,0.0,0.0,0.0,0.0,0.0,0.0,0.0,0.0,-2.3258,-2.3346,-2.3396,-2.3427,-2.4077,-2.4365,-2.4429,-2.5907,-2.6587,-2.6796,-2.8066,-2.8912,-2.9442,-2.9442,-2.9442,-2.9442,-2.9442,-2.9442,-2.9628,-1.9849,-2.0552,-2.1307,-2.1882,0.0,0.0,0.0,-2.7492,-2.8008,-2.7392,-2.8416,-2.9359,-2.9834,-3.1097,-3.2249,-3.3206,-3.3705,-3.3993,-3.4007,-3.4442,-3.4509,-3.4007,-3.4007,-3.3418,-3.2137,-3.0962,-2.8598,-2.4936,-2.277,-2.0363,-1.7684,-1.6682,-1.6069,-1.5873,-1.752,-1.9914,0.0,0.0,0.0,-2.916,-3.0118,-3.0883,-3.1511,-3.1511,-3.1511,-3.1511,-3.1511,-3.1511,-3.1511,-3.1511,-3.1511,-3.1511,-3.1511,-3.1256,-3.0913,-3.0597,-2.9819,-2.9011,-2.8682,-2.8124,-2.76,-2.76,-2.76,-2.76,-2.76,-2.76,-2.76,-2.76,-2.76,-2.7081,-2.5355,-2.3769,0.0,0.0,0.0,0.0,0.0,-1.8895,-1.8098,-1.5761,-1.6715,-1.6654,0.0,0.0,0.0,0.0,0.0,0.0,0.0,0.0,0.0,0.0,0.0,0.0,0.0,0.0,0.0,-2.3108,-2.3108,-2.3108,-2.3108,-2.3514,-2.3637,-2.3613,-2.4776,-2.5418,-2.575,-2.7506,-2.8363,-2.8592,-2.8878,-2.9002,-2.9002,-2.9002,-2.9002,-2.9129,-2.1732,-2.2033,-2.2648,0.0,-2.5335,0.0,-2.7318,-2.8787,-2.9315,-2.7984,-2.7821,-2.8119,-2.886,-3.0121,-3.1291,-3.2213,-3.2996,-3.3171,-3.2629,-3.3276,-3.338,-3.2629,-3.2593,-3.2041,-3.0825,-3.0998,-2.9014,-2.4718,-2.3489,-2.1321,-1.8311,-1.6862,-1.6368,0.0,0.0,0.0,0.0,0.0,-2.7455,-2.8906,-3.0043,-3.0883,-3.1511,-3.1511,-3.1511,-3.1511,-3.1511,-3.1511,-3.1511,-3.1511,-3.1511,-3.1511,-3.1511,-3.1032,-3.0477,-3.0342,-2.9505,-2.8562,-2.8427,-2.8004,-2.756,-2.7408,-2.7484,-2.756,-2.7408,-2.7484,-2.7575,-2.7408,-2.724,-2.6546,-2.4637,-2.3686,0.0,0.0,0.0,0.0,0.0,0.0,-1.8569,-1.7708,-1.7149,-1.622,-1.4595,0.0,0.0,0.0,0.0,0.0,-1.6437,-1.6835,0.0,0.0,0.0,-2.1393,-2.1958,0.0,-2.3108,0.0,-2.3108,-2.3108,-2.3108,-2.3108,-2.3108,-2.3138,-2.3767,-2.4403,-2.5069,-2.6654,-2.7441,-2.7668,-2.7976,-2.8275,-2.8446,-2.8311,-2.8351,-2.846,0.0,0.0,0.0,0.0,0.0,0.0,-2.8009,-2.9038,-2.9729,-2.9578,-2.9566,-2.9591,-2.9706,-2.9845,-3.0317,-3.1254,-3.1426,-3.1779,-3.2558,-3.2664,-3.2713,-3.2593,-3.2593,-3.2041,-3.0825,-3.0998,-2.9459,0.0,0.0,-2.2458,-2.0374,-1.8431,0.0,0.0,0.0,0.0,0.0,-2.5974,-2.7709,-2.9549,-3.0223,-3.0883,-3.1511,-3.1511,-3.1511,-3.1511,-3.1511,-3.1511,-3.1511,-3.1511,-3.1511,-3.1511,-3.1511,-3.1032,-3.0387,-2.9834,-2.916,-2.8472,-2.7869,-2.7645,-2.7433,-2.6774,-2.7126,-2.7408,-2.6747,-2.7111,-2.7408,-2.6747,-2.6054,-2.5188,-2.3742,-2.3865,-2.3669,0.0,0.0,0.0,0.0,0.0,-2.0289,-1.7883,-1.7869,-1.7373,0.0,0.0,0.0,0.0,0.0,0.0,-1.6412,-1.6095,0.0,-1.9008,0.0,-2.0238,-2.0842,-2.2359,0.0,-2.3108,-2.3108,-2.3108,-2.3108,-2.3108,-2.3108,-2.3108,-2.3198,-2.3543,-2.4116,-2.431,-2.4963,-2.58,-2.5349,-2.5826,-2.6684,-2.6117,-2.6257,-2.6714,0.0,0.0,0.0,0.0,0.0,0.0,0.0,-2.9503,-2.9792,-2.9792,-2.9792,-2.9792,-2.9792,-2.9792,-2.9934,-3.0317,-3.0871,-3.1119,-3.0921,-3.1169,-3.1152,-3.0945,-3.0278,-2.9689,-2.9196,-2.9437,-2.8166,0.0,0.0,0.0,0.0,0.0,0.0,0.0,0.0,-2.3307,-2.5248,-2.6807,-2.8224,-2.9433,-2.9561,-3.0054,-3.0777,-3.0777,-3.1087,-3.1511,-3.1511,-3.1511,-3.1511,-3.1511,-3.1511,-3.1511,-3.1511,-3.1032,-3.0372,-2.9786,-2.8818,-2.7898,-2.7663,-2.728,-2.6982,-2.7111,-2.7382,-2.7408,-2.6669,-2.6721,-2.6747,-2.5973,-2.5618,-2.5108,-2.4133,-2.3576,-2.3129,0.0,0.0,0.0,0.0,0.0,-2.0074,-1.9054,-1.8199,-1.7313,0.0,0.0,0.0,0.0,0.0,0.0,0.0,0.0,0.0,-1.8003,0.0,-2.0075,-2.0679,-2.1983,-2.2782,-2.3108,-2.3108,-2.3108,-2.3108,-2.3108,-2.3108,-2.3108,-2.3108,-2.3233,-2.3471,-2.3853,-2.4255,-2.4657,-2.477,-2.5096,-2.5448,-2.5222,-2.5272,-2.5523,-2.6914,0.0,-2.6804,0.0,-2.8285,-2.8423,-2.9616,-2.9792,-2.9792,-2.9792,-2.9792,-2.9792,-2.9792,-2.9792,-2.9792,-2.9792,-3.0419,-3.052,-2.9818,-2.9905,-2.9915,-2.9805,-2.8712,0.0,-2.8109,-2.8364,-2.7472,-2.5344,-2.4984,0.0,0.0,0.0,0.0,0.0,-2.3144,-2.4541,-2.6067,-2.7674,-2.8741,-2.9317,-2.9602,-2.995,-3.0329,-3.0554,-3.0866,-3.119,-3.1409,-3.1511,-3.1511,-3.1511,-3.1351,-3.1161,-3.1161,-3.0846,-3.0317,-2.9455,-2.8559,-2.7737,-2.738,-2.6904,-2.6537,-2.6613,-2.6785,-2.6759,-2.6027,-2.6014,-2.5987,-2.5231,-2.4638,-2.4197,-2.3979,-2.3095,-2.2583,-2.3043,0.0,0.0,0.0,-2.0667,0.0,-1.9358,-1.8179,-1.7149,-1.655,0.0,0.0,0.0,0.0,0.0,0.0,0.0,0.0,0.0,0.0,0.0,0.0,-2.1681,-2.2556,-2.3108,-2.3108,-2.3108,-2.3108,-2.3108,-2.3108,-2.3108,-2.3108,-2.3108,-2.3133,-2.3547,-2.3841,-2.4017,-2.4211,-2.4499,-2.4775,-2.4612,-2.465,-2.4838,-2.7871,-2.8084,-2.8436,-2.9578,-2.9767,-2.9767,-2.9792,-2.9792,-2.9792,-2.9792,-2.9792,-2.9792,-2.9792,-2.9792,-2.9792,-2.9792,-2.9792,-2.9792,-2.9792,-2.9252,-2.9189,0.0,0.0,-2.8109,-2.8109,-2.8364,-2.7907,-2.6684,0.0,0.0,-2.4913,0.0,-2.3716,-2.494,-2.4967,-2.5707,-2.7076,-2.8636,-2.9289,-2.942,-3.0894,-3.0999,-3.0389,-3.119,-3.0999,-3.0419,-3.1219,-3.1511,-3.1511,-3.1511,-3.097,-3.0299,-3.0299,-3.0411,-3.019,-2.874,-2.8435,-2.8286,-2.6883,-2.651,-2.6149,-2.4709,-2.4908,-2.5231,-2.4481,-2.4908,-2.5203,-2.4452,-2.2848,-2.1885,-2.2917,-2.2492,-2.2253,-2.2963,0.0,0.0,0.0,-2.0521,0.0,-1.8344,-1.7727,-1.7149,-1.655,0.0,0.0,0.0,0.0,0.0,0.0,0.0,0.0,-1.7385,-1.8455,0.0,-1.9811,-2.1481,-2.2556,-2.3108,-2.3108,-2.3108,-2.3108,-2.3108,-2.3108,-2.3108,-2.3108,-2.3108,-2.3108,-2.3108,-2.3446,-2.3941,-2.3346,-2.381,-2.4725,-2.4217,-2.4356,-2.4788,-2.9189,-2.9252,-2.9365,-2.9729,-2.9792,-2.9666,-2.9264,-2.9541,-2.9654,-2.9252,-2.9553,-2.9792,-2.9792,-2.9792,-2.9792,0.0,-2.9792,-2.9792,0.0,-2.9252,-2.8976,-2.9202,-2.8134,-2.7544,-2.7544,-2.7294,-2.696,-2.6557,0.0,0.0,0.0,-2.4109,-2.4129,-2.488,-2.5253,-2.5981,-2.6948,-2.7273,-2.7706,-2.8202,-2.8134,-2.8266,-2.8556,-2.8812,-2.9129,-2.9442,-2.969,-2.9797,-2.9797,-2.9797,-2.9628,-2.9317,-2.8716,-2.8959,-2.9211,-2.7943,-2.7245,-2.6725,-2.5953,-2.537,-2.5007,-2.5035,-2.5231,-2.5203,-2.4452,-2.3775,-2.3127,-2.2498,-2.1929,-2.1656,-2.2263,-2.2154,-2.2247,-2.2994,-2.2195,0.0,0.0,0.0,-1.9682,-1.9321,-1.8832,-1.8406,0.0,-1.7867,0.0,0.0,0.0,0.0,0.0,0.0,0.0,0.0,-1.8218,0.0,-2.0402,-2.1292,-2.2221,-2.3108,-2.3108,-2.3108,-2.3108,-2.3108,-2.3108,-2.3108,-2.3108,-2.3108,-2.3108,-2.3108,-2.3208,-2.3358,-2.3183,-2.3321,-2.3622,-2.3446,-2.3484,-2.3697,-2.9792,-2.9792,-2.9792,-2.9792,-2.9792,-2.9591,-2.8976,-2.9415,-2.9578,-2.8963,-2.9428,-2.9792,-2.9792,-2.9792,0.0,-2.9792,-2.9792,-2.9792,-2.9792,-2.9063,-2.8675,-2.8888,-2.767,-2.7102,-2.7316,0.0,0.0,-2.6499,-2.6202,-2.5859,-2.5498,-2.5121,-2.5109,-2.5448,-2.5774,-2.6248,-2.6758,-2.6886,-2.7229,-2.767,-2.7517,-2.7537,-2.7736,-2.8051,-2.833,-2.8556,-2.8876,-2.9002,-2.9002,-2.9002,-2.878,-2.8427,-2.7855,-2.7855,-2.7876,-2.6975,-2.6624,-2.629,-2.5248,-2.4652,-2.435,-2.4496,-2.4525,-2.441,-2.3943,-2.3051,-2.2272,-2.2133,-2.1659,-2.1383,-2.1747,-2.1461,-2.1313,-2.1789,-2.1313,-2.0614,-1.9899,0.0,-1.9653,0.0,0.0,0.0,0.0,-1.8292,0.0,0.0,0.0,0.0,0.0,0.0,0.0,-1.7453,-1.8882,0.0,-2.0993,-2.1518,-2.2246,-2.3108,-2.3108,-2.3108,-2.3108,-2.3108,-2.3108,-2.3108,-2.3108,-2.3108,-2.3108,-2.3108,-2.3108,-2.3108,-2.3108,-2.3108,-2.3108,-2.3108,-2.3108,-2.3158,-2.9779,-2.9792,0.0,0.0,-2.9792,0.0,-2.8976,-2.9415,-2.9578,-2.8963,-2.9428,-2.9792,-2.9792,-2.9792,-2.9792,-2.9792,0.0,0.0,0.0,-2.8812,-2.8436,-2.8863,-2.7419,-2.6839,-2.7268,-2.6776,-2.6499,-2.6499,-2.6499,-2.6499,-2.6499,-2.6499,-2.6499,-2.6499,-2.6499,-2.6499,-2.6555,-2.7284,-2.7604,-2.7703,-2.8492,-2.833,-2.7703,-2.8524,-2.833,-2.7736,-2.8524,-2.8844,-2.8844,-2.8844,-2.8298,-2.7604,-2.7604,-2.7095,-2.6396,-2.5959,-2.6398,-2.6606,-2.4742,-2.4205,-2.4031,-2.3275,-2.3108,-2.3095,-2.3058,-2.2656,-2.2406,-2.2852,-2.1848,-2.101,-2.143,-2.0575,-1.9784,-1.9784,-1.981,-1.9798,-1.9798,0.0,0.0,0.0,0.0,0.0,0.0,-1.8016,-1.8493,0.0,0.0,0.0,0.0,0.0,-1.794,-1.902,-2.0138,-2.0981,-2.1543,-2.2058,-2.2556,-2.3108,-2.3108,-2.3108,-2.3108,-2.3108,-2.3108,-2.3108,-2.3108,-2.3108,-2.3108,-2.3108,-2.3108,-2.3108,-2.3108,-2.3108,-2.3108,-2.3108,-2.3108,-2.3108,0.0,0.0,-2.9792,-2.9792,-2.9792,-2.9591,-2.8976,-2.9415,-2.9578,-2.8963,-2.9428,-2.9792,-2.9792,-2.9792,-2.9792,-2.9792,-2.9792,-2.9792,-2.9792,-2.9541,-2.9252,-2.89,-2.8147,-2.7582,-2.7329,-2.6776,-2.6499,-2.6499,-2.6499,-2.6499,-2.6499,-2.6499,-2.6499,-2.6499,-2.6499,-2.6499,-2.6499,-2.6679,-2.6782,-2.6816,-2.7007,-2.6973,-2.6816,-2.7007,-2.6973,-2.6816,-2.704,-2.7095,-2.7095,-2.7095,-2.6939,-2.6782,-2.6782,-2.6658,-2.6307,-2.5349,-2.5199,-2.5082,-2.376,-2.3395,-2.3335,-2.3138,-2.3108,-2.2995,-2.2569,-2.2397,-2.2138,-2.1555,-2.1129,-2.103,-2.144,-2.0557,-1.9812,-1.9785,-1.9795,-1.9798,-1.9798,-1.9798,0.0,0.0,-1.9422,-1.9371,-1.9246,-1.9346,-1.9133,0.0,0.0,0.0,0.0,-1.8154,-1.8505,-1.9585,-2.0327,-2.1157,-2.2108,-2.2246,-2.2556,-2.3108,-2.3108,-2.3108,-2.3108,-2.3108,-2.3108,-2.3108,-2.3108,-2.3108,-2.3108,-2.3108,-2.3108,-2.3108,-2.3108,-2.3108,-2.3108,-2.3108,-2.3108,-2.3108,-2.934,-2.9402,-2.9402,-2.9402,-2.9616,-2.9591,-2.8976,-2.9415,-2.9578,-2.8963,-2.9428,-2.9792,-2.9792,-2.9792,-2.9792,-2.9792,-2.9792,-2.9792,-2.9792,-2.9541,-2.9139,-2.8574,-2.8021,-2.7595,-2.7329,-2.6776,-2.6499,-2.6499,-2.6499,-2.6499,-2.6499,-2.6499,-2.6499,-2.6499,-2.6499,-2.6499,-2.6499,-2.6499,-2.6499,-2.6499,-2.6499,-2.6499,-2.6499,-2.6499,-2.6499,-2.6499,-2.6499,-2.6499,-2.6499,-2.6499,-2.6499,-2.6499,-2.6499,-2.6499,-2.6285,-2.5146,-2.4788,-2.455,-2.3409,-2.3108,-2.3108,-2.3108,-2.3108,-2.302,-2.2732,-2.2656,-2.2514,-2.201,-2.1897,-2.1958,-2.2205,-2.1312,-2.0517,-2.0318,-1.9815,-1.9522,-1.9773,-1.9597,0.0,-1.9773,-1.9798,-1.9798,-1.9798,-1.9798,-1.956,-1.8982,0.0,0.0,-1.8932,-1.8932,-1.9321,-2.0175,-2.0779,-2.1443,-2.2297,-2.2531,-2.2807,-2.3108,-2.3108,-2.3108,-2.3108,-2.3108,-2.3108,-2.3108,-2.3108,-2.3108,-2.3108,-2.3108,-2.3108,-2.3108,-2.3108,-2.3108,-2.3108,-2.3108,-2.3108,-2.3108,-2.8863,-2.8888,-2.89,-2.8949,-2.9353,-2.9529,-2.9139,-2.9416,-2.9515,-2.9076,-2.949,-2.9792,-2.9792,-2.9792,-2.9792,-2.9792,-2.9792,-2.9792,-2.9792,-2.9252,-2.8687,-2.8247,-2.762,-2.7318,-2.7406,-2.6901,-2.6612,-2.6612,-2.6537,-2.6499,-2.6499,-2.6499,-2.6499,-2.6499,-2.6499,-2.6499,-2.6499,-2.6499,-2.6499,-2.6499,-2.6499,-2.6499,-2.6499,-2.6499,-2.6499,-2.6499,-2.6499,-2.6499,-2.6499,-2.6499,-2.6499,-2.6499,-2.6499,-2.6499,-2.6285,-2.5146,-2.4788,-2.455,-2.3409,-2.3108,-2.3108,-2.3108,-2.3108,-2.3108,-2.3108,-2.3108,-2.3108,-2.3108,-2.309,-2.3105,-2.3105,-2.2161,-2.1291,-2.0927,-1.99,-1.9246,-1.9635,0.0,-1.9284,-1.9748,-1.9798,-1.9798,-1.9798,-1.9798,-1.9798,-1.9798,-1.9798,-1.9798,0.0,-1.9798,-2.01,-2.0792,-2.127,-2.1794,-2.2393,-2.2869,-2.3108,-2.3108,-2.3108,-2.3108,-2.3108,-2.3108,-2.3108,-2.3108,-2.3108,-2.3108,-2.3108,-2.3108,-2.3108,-2.3108,-2.3108,-2.3108,-2.3108,-2.3108,-2.3108,-2.3108,-2.8712,-2.8888,-2.8986,-2.9262,-2.918,-2.9276,-2.9913,-2.9462,-2.9202,-2.9603,-2.9741,-2.9792,-2.9792,-2.9792,-2.9792,-2.9792,-2.9792,-2.9792,-2.9792,-2.9252,-2.885,-2.8762,-2.7821,-2.7507,-2.7971,-2.7444,-2.719,-2.719,-2.6725,-2.6499,-2.6499,-2.6499,-2.6499,-2.6499,-2.6499,-2.6499,-2.6499,-2.6499,-2.6499,-2.6499,-2.6499,-2.6499,-2.6499,-2.6499,-2.6499,-2.6499,-2.6499,-2.6499,-2.6499,-2.6499,-2.6499,-2.6499,-2.6499,-2.6499,-2.6285,-2.5146,-2.4788,-2.455,-2.3409,-2.3108,-2.3108,-2.3108,-2.3108,-2.3108,-2.3108,-2.3108,-2.3108,-2.3108,-2.31,-2.308,-2.308,-2.1959,-2.0954,-2.0767,-2.0151,-1.956,-1.9171,0.0,-1.971,-1.9798,-1.9798,-1.9798,-1.9798,-1.9798,-1.9798,-1.9798,-1.9798,-1.9798,-1.9798,-1.9798,-2.0275,-2.133,-2.1443,-2.1983,-2.297,-2.3058,-2.3108,-2.3108,-2.3108,-2.3108,-2.3108,-2.3108,-2.3108,-2.3108,-2.3108,-2.3108,-2.3108,-2.3108,-2.3108,-2.3108,-2.3108,-2.3108,-2.3108,-2.3108,-2.3108,-2.3108,-2.928,-2.9231,-2.9038,-2.8925,-2.9317,-2.951,-2.9134,-2.9251,-2.9377,-2.934,-2.9603,-2.9792,-2.9792,-2.9792,-2.9792,-2.9792,-2.9792,-2.9792,-2.9792,-2.9541,-2.9252,-2.89,-2.8448,-2.8147,-2.8109,-2.7858,-2.7582,-2.7281,-2.6763,-2.6499,-2.6499,-2.6499,-2.6499,-2.6499,-2.6499,-2.6499,-2.6499,-2.6499,-2.6499,-2.6499,-2.6499,-2.6499,-2.6499,-2.6499,-2.6499,-2.6499,-2.6499,-2.6499,-2.6499,-2.6499,-2.6499,-2.6499,-2.6499,-2.6499,-2.6336,-2.5473,-2.4575,-2.3772,-2.3246,-2.3108,-2.3108,-2.3108,-2.3108,-2.3108,-2.3108,-2.3108,-2.3108,-2.3108,-2.3108,-2.3108,-2.3108,-2.2226,-2.1508,-2.154,-2.0564,0.0,0.0,-1.961,-1.9497,-1.9773,-1.9798,-1.9798,-1.9798,-1.9798,-1.9798,-1.9798,-1.9798,-1.9798,-1.9798,-1.9798,-2.0188,-2.1043,-2.1907,-2.2594,-2.3095,-2.3108,-2.3108,-2.3108,-2.3108,-2.3108,-2.3108,-2.3108,-2.3108,-2.3108,-2.3108,-2.3108,-2.3108,-2.3108,-2.3108,-2.3108,-2.3108,-2.3108,-2.3108,-2.3108,-2.3108,-2.3108,-2.9498,-2.9557,-2.9416,-2.8899,-2.9536,-2.9776,-2.8724,-2.9063,-2.9327,-2.9151,-2.9515,-2.9792,-2.9792,-2.9792,-2.9792,-2.9792,-2.9792,-2.9792,-2.9792,-2.9792,-2.9528,-2.8913,-2.8888,-2.87,-2.8298,-2.8172,-2.7896,-2.7469,-2.6826,-2.6499,-2.6499,-2.6499,-2.6499,-2.6499,-2.6499,-2.6499,-2.6499,-2.6499,-2.6499,-2.6499,-2.6499,-2.6499,-2.6499,-2.6499,-2.6499,-2.6499,-2.6499,-2.6499,-2.6499,-2.6499,-2.6499,-2.6499,-2.6499,-2.6499,-2.6386,-2.5774,-2.4519,-2.3283,-2.3145,-2.3108,-2.3108,-2.3108,-2.3108,-2.3108,-2.3108,-2.3108,-2.3108,-2.3108,-2.3108,-2.3108,-2.3108,-2.2547,-2.2043,-2.1929,0.0,0.0,0.0,-1.966,-1.9334,-1.9748,-1.9798,-1.9798,-1.9798,-1.9798,-1.9798,-1.9798,-1.9798,-1.9798,-1.9798,-1.9798,-2.0075,-2.0679,-2.2146,-2.297,-2.3108,-2.3108,-2.3108,-2.3108,-2.3108,-2.3108,-2.3108,-2.3108,-2.3108,-2.3108,-2.3108,-2.3108,-2.3108,-2.3108,-2.3108,-2.3108,-2.3108,-2.3108,-2.3108,-2.3108,-2.3108,-2.3108,-2.8651,-2.9707,-3.0477,-2.9833,-2.9618,-2.9676,-3.001,-2.9012,-2.8599,-2.9591,-2.9767,-2.9792,-2.9792,-2.9792,-2.9792,-2.9792,-2.9792,-2.9792,-2.9792,-2.9792,-2.9528,-2.8913,-2.8888,-2.8875,-2.8838,-2.836,-2.8084,-2.8047,-2.7014,-2.6499,-2.6499,-2.6499,-2.6499,-2.6499,-2.6499,-2.6499,-2.6499,-2.6499,-2.6499,-2.6499,-2.6499,-2.6499,-2.6499,-2.6499,-2.6499,-2.6499,-2.6499,-2.6499,-2.6499,-2.6499,-2.6499,-2.6499,-2.6499,-2.6499,-2.6386,-2.5774,-2.4808,-2.3816,-2.3246,-2.3108,-2.3108,-2.3108,-2.3108,-2.3108,-2.3108,-2.3108,-2.3108,-2.3108,-2.3108,-2.3108,-2.3108,-2.2644,-2.197,-2.0981,0.0,0.0,-1.9259,-1.9497,-1.9761,-1.9798,-1.9798,-1.9798,-1.9798,-1.9798,-1.9798,-1.9798,-1.9798,-1.9798,-1.9798,-1.9798,-2.0075,-2.0679,-2.1782,-2.2594,-2.3095,-2.3108,-2.3108,-2.3108,-2.3108,-2.3108,-2.3108,-2.3108,-2.3108,-2.3108,-2.3108,-2.3108,-2.3108,-2.3108,-2.3108,-2.3108,-2.3108,-2.3108,-2.3108,-2.3108,-2.3108,-2.3108,-2.9722,-2.9915,-2.9807,-2.8708,-2.8407,-2.8331,-2.8398,-2.9037,-2.9441,-2.9277,-3.0087,-3.0457,-2.9856,-2.9792,-2.9792,-2.9792,-2.9792,-2.9792,-2.9792,-2.9792,-2.9528,-2.8913,-2.9277,-2.9139,-2.8436,-2.821,-2.7946,-2.7595,-2.6864,-2.6499,-2.6499,-2.6499,-2.6499,-2.6499,-2.6499,-2.6499,-2.6499,-2.6499,-2.6499,-2.6499,-2.6499,-2.6499,-2.6499,-2.6499,-2.6499,-2.6499,-2.6499,-2.6499,-2.6499,-2.6499,-2.6499,-2.6499,-2.6499,-2.6499,-2.6311,-2.5385,-2.4833,-2.4274,-2.3358,-2.3108,-2.3108,-2.3108,-2.3108,-2.3108,-2.3108,-2.3108,-2.3108,-2.3108,-2.3108,-2.3108,-2.3108,-2.2932,-2.2543,-2.1807,0.0,-2.0943,-2.015,-1.9911,-1.9798,-1.9798,-1.9798,-1.9798,-1.9798,-1.9798,-1.9798,-1.9798,-1.9798,-1.9798,-1.9798,-1.9798,-2.0075,-2.0679,-2.1405,-2.2071,-2.2594,-2.2932,-2.3108,-2.3108,-2.3108,-2.3108,-2.3108,-2.3108,-2.3108,-2.3108,-2.3108,-2.3108,-2.3108,-2.3108,-2.3108,-2.3108,-2.3108,-2.3108,-2.3108,-2.3108,-2.3108,-2.3108,-3.045,-3.0504,-3.0252,-2.899,-2.8759,-2.8564,-2.8027,-2.9181,-2.979,-2.9013,-2.9984,-3.052,-2.9856,-3.0075,-3.0101,-2.983,-3.0075,-3.0101,-2.983,-2.9792,-2.9616,-2.9214,-2.9578,-2.9352,-2.8386,-2.8197,-2.7833,-2.7281,-2.6763,-2.6499,-2.6499,-2.6499,-2.6499,-2.6499,-2.6499,-2.6499,-2.6499,-2.6499,-2.6499,-2.6499,-2.6499,-2.6499,-2.6499,-2.6499,-2.6499,-2.6499,-2.6499,-2.6499,-2.6499,-2.6499,-2.6499,-2.6499,-2.6499,-2.6499,-2.6285,-2.5146,-2.4788,-2.455,-2.3409,-2.3108,-2.3108,-2.3108,-2.3108,-2.3108,-2.3108,-2.3108,-2.3108,-2.3108,-2.3108,-2.3058,-2.2882,-2.2995,-2.2807,-2.1945,-2.1619,-2.1257,-2.0528,-2.0049,-1.9798,-1.9798,-1.9798,-1.9798,-1.9798,-1.9798,-1.9798,-1.9798,-1.9798,-1.9798,-1.9798,-1.9798,-1.9987,-2.0402,-2.1131,-2.1669,-2.2046,-2.2744,-2.3108,-2.3108,-2.3108,-2.3108,-2.3108,-2.3108,-2.3108,-2.3108,-2.3108,-2.3108,-2.3108,-2.3108,-2.3108,-2.3108,-2.3108,-2.3108,-2.3108,-2.3108,-2.3108,-2.3108,-3.045,-3.1485,-3.2183,-3.1267,-3.113,-3.0779,-2.959,-2.9416,-2.9272,-2.895,-2.9428,-2.9818,-2.9779,-3.062,-3.0796,-2.9895,-3.0658,-3.0796,-2.9856,-2.9779,-2.9779,-2.9779,-2.9779,-2.9515,-2.8888,-2.8386,-2.7833,-2.7281,-2.6763,-2.6499,-2.6499,-2.6499,-2.6499,-2.6499,-2.6499,-2.6499,-2.6499,-2.6499,-2.6499,-2.6499,-2.6499,-2.6499,-2.6499,-2.6499,-2.6499,-2.6499,-2.6499,-2.6499,-2.6499,-2.6499,-2.6499,-2.6499,-2.6499,-2.6499,-2.6285,-2.5146,-2.4788,-2.455,-2.3421,-2.3108,-2.3108,-2.3108,-2.3108,-2.3108,-2.3108,-2.3108,-2.3108,-2.3108,-2.3108,-2.2945,-2.2393,-2.2732,-2.2556,-2.0968,-2.1157,-2.1091,-1.9962,-1.9798,-1.9798,-1.9798,-1.9798,-1.9798,-1.9798,-1.9798,-1.9798,-1.9798,-1.9798,-1.9798,-1.9798,-1.9798,-1.9798,-1.9798,-2.0891,-2.1481,-2.1481,-2.2556,-2.3108,-2.3108,-2.3095,-2.3095,-2.3095,-2.3095,-2.3095,-2.3095,-2.3108,-2.3108,-2.3108,-2.3108,-2.3108,-2.3108,-2.3108,-2.3108,-2.3108,-2.3108,-2.3108,-2.3108,-3.045,-3.0639,-3.0678,-2.9771,-2.9645,-2.965,-2.9683,-3.0247,-3.0521,-3.0135,-3.0668,-3.0791,-3.016,-3.0175,-3.0101,-2.983,-3.0075,-2.9936,-2.9214,-2.9189,-2.9013,-2.8624,-2.8988,-2.8737,-2.7795,-2.7607,-2.7444,-2.7281,-2.6763,-2.6499,-2.6499,-2.6499,-2.6499,-2.6499,-2.6499,-2.6499,-2.6499,-2.6499,-2.6499,-2.6499,-2.6499,-2.6499,-2.6499,-2.6499,-2.6499,-2.6499,-2.6499,-2.6499,-2.6499,-2.6499,-2.6499,-2.6499,-2.6499,-2.6499,-2.6348,-2.5586,-2.5109,-2.4669,-2.4054,-2.3507,-2.3108,-2.3108,-2.3108,-2.3108,-2.3108,-2.3108,-2.3108,-2.3108,-2.3108,-2.3058,-2.2895,-2.2681,-2.2272,-2.1393,-2.1081,-2.0679,-1.9911,-1.9798,-1.9798,-1.9798,-1.9798,-1.9798,-1.9798,-1.9798,-1.9798,-1.9798,-1.9798,-1.9798,-1.9798,-1.9798,-1.9798,-1.9798,-2.0553,-2.0943,-2.0943,-2.2385,-2.3108,-2.3095,-2.2706,-2.2531,-2.2531,-2.2531,-2.2531,-2.2543,-2.2945,-2.3108,-2.3108,-2.3108,-2.3108,-2.3108,-2.3108,-2.3108,-2.3108,-2.3108,-2.3108,-2.3108,-3.0866,-3.0777,-3.0614,-3.0072,-2.9981,-2.9986,-3.001,-3.0674,-3.0959,-3.0364,-3.1034,-3.1383,-3.0833,-3.1166,-3.1318,-3.0959,-3.0364,-2.9795,-2.9277,-2.8813,-2.8448,-2.8122,-2.821,-2.7959,-2.7293,-2.7281,-2.7216,-2.6989,-2.6663,-2.6499,-2.6499,-2.6499,-2.6499,-2.6499,-2.6499,-2.6499,-2.6499,-2.6499,-2.6499,-2.6499,-2.6499,-2.6499,-2.6499,-2.6499,-2.6499,-2.6499,-2.6499,-2.6499,-2.6499,-2.6499,-2.6499,-2.6499,-2.6499,-2.6499,-2.6386,-2.5774,-2.5327,-2.4913,-2.4362,-2.3654,-2.3088,-2.3115,-2.3108,-2.3108,-2.3108,-2.3108,-2.3108,-2.3108,-2.3108,-2.3045,-2.2819,-2.2681,-2.2355,-2.1606,-2.1232,-2.0817,-2.0251,-1.9949,-1.9798,-1.9798,-1.9798,-1.9798,-1.9798,-1.9798,-1.9798,-1.9798,-1.9798,-1.9798,-1.9798,-1.9798,-1.9798,-1.9798,-2.039,-2.0691,-2.0691,-2.1882,-2.2456,-2.2443,-2.2146,-2.2096,-2.2297,-2.2083,-2.2108,-2.2334,-2.2631,-2.2782,-2.2794,-2.3007,-2.3108,-2.3108,-2.3108,-2.3108,-2.3108,-2.3108,-2.3108,-2.3108,-3.1511,-3.1511,-3.1511,-3.1511,-3.1511,-3.1248,-3.0524,-3.082,-3.0854,-3.0044,-3.0867,-3.1544,-3.1613,-3.2901,-3.3449,-3.2664,-3.1303,-3.0317,-2.9936,-2.8871,-2.8214,-2.8055,-2.7612,-2.7311,-2.7241,-2.7241,-2.7014,-2.6562,-2.6512,-2.6499,-2.6499,-2.6499,-2.6499,-2.6499,-2.6499,-2.6499,-2.6499,-2.6499,-2.6499,-2.6499,-2.6499,-2.6499,-2.6499,-2.6499,-2.6499,-2.6499,-2.6499,-2.6499,-2.6499,-2.6499,-2.6499,-2.6499,-2.6499,-2.6499,-2.6386,-2.5824,-2.5565,-2.5256,-2.4583,-2.3773,-2.309,-2.3092,-2.3108,-2.3108,-2.3108,-2.3108,-2.3108,-2.3108,-2.3108,-2.2945,-2.2443,-2.2732,-2.2706,-2.1732,-2.1481,-2.127,-2.0767,-2.0189,-1.9798,-1.9798,-1.9798,-1.9798,-1.9798,-1.9798,-1.9798,-1.9798,-1.9798,-1.9798,-1.9798,-1.9798,-1.9823,-1.9874,-2.0365,-2.0641,-2.0691,-2.1144,-2.1393,-2.1493,-2.1443,-2.1681,-2.2146,-2.1694,-2.1757,-2.2246,-2.2347,-2.2355,-2.2393,-2.2895,-2.3108,-2.3108,-2.3108,-2.3108,-2.3108,-2.3108,-2.3108,-2.3108,-3.1511,-3.1511,-3.1511,-3.1511,-3.1511,-3.1438,-3.1278,-3.1338,-3.1368,-3.1176,-3.0944,-3.1126,-3.1904,-3.1888,-3.2033,-3.2558,-3.1844,-3.112,-3.0607,-2.9869,-2.8939,-2.7842,-2.7665,-2.7309,-2.671,-2.6675,-2.6826,-2.714,-2.6713,-2.6499,-2.6499,-2.6499,-2.6499,-2.6499,-2.6499,-2.6499,-2.6499,-2.6499,-2.6499,-2.6499,-2.6499,-2.6499,-2.6499,-2.6499,-2.6499,-2.6499,-2.6499,-2.6499,-2.6499,-2.6499,-2.6499,-2.6499,-2.6499,-2.6499,-2.6461,-2.6348,-2.5879,-2.5506,-2.5891,-2.4589,-2.309,-2.3092,-2.3108,-2.3108,-2.3108,-2.3108,-2.3108,-2.3108,-2.3108,-2.307,-2.2945,-2.2669,-2.241,-2.2171,-2.1405,-2.083,-2.0717,-2.0189,-1.9798,-1.9798,-1.9798,-1.9798,-1.9798,-1.9798,-1.9798,-1.9798,-1.9798,-1.9798,-1.9798,-1.9798,-2.0012,-2.049,-2.0189,-2.0239,-2.0691,-2.0365,-2.0614,-2.1481,-2.1081,-2.093,-2.1069,-2.1343,-2.1556,-2.1719,-2.2556,-2.2932,-2.2932,-2.3058,-2.3108,-2.3108,-2.3108,-2.3108,-2.3108,-2.3108,-2.3108,-2.3108,-3.1511,-3.1511,-3.1511,-3.1511,-3.1511,-3.1511,-3.1511,-3.1511,-3.1511,-3.1511,-3.1489,-3.1841,-3.2681,-3.2758,-3.2804,-3.2818,-3.2241,-3.1548,-3.0758,-2.9904,-2.9037,-2.8119,-2.8218,-2.792,-2.7095,-2.7484,-2.7439,-2.6927,-2.6637,-2.6499,-2.6499,-2.6499,-2.6499,-2.6499,-2.6499,-2.6499,-2.6499,-2.6499,-2.6499,-2.6499,-2.6499,-2.6499,-2.6499,-2.6499,-2.6499,-2.6499,-2.6499,-2.6499,-2.6499,-2.6499,-2.6499,-2.6499,-2.6499,-2.6499,-2.6499,-2.6499,-2.6226,-2.6005,-2.6418,-2.4852,-2.3172,-2.3535,-2.3364,-2.3108,-2.3108,-2.3108,-2.3108,-2.3108,-2.3108,-2.3108,-2.3108,-2.2869,-2.2594,-2.2347,-2.1606,-2.1081,-2.1081,-2.0603,-2.0313,-2.0577,-2.0402,-2.0138,-1.9823,-1.9798,-1.9798,-1.9798,-1.9798,-1.9798,-1.9798,-1.9798,-1.9936,-2.0264,-1.9962,-1.9949,-2.0277,-1.9962,-2.01,-2.0677,-2.0388,-2.0566,-2.1081,-2.0803,-2.0978,-2.1518,-2.2096,-2.2196,-2.202,-2.2782,-2.2945,-2.2732,-2.3007,-2.3108,-2.3108,-2.3108,-2.3108,-2.3108,-3.1511,-3.1511,-3.1511,-3.1511,-3.1511,-3.1511,-3.1511,-3.1511,-3.1511,-3.1511,-3.1946,-3.2526,-3.326,-3.3918,-3.4008,-3.3238,-3.2597,-3.1886,-3.0978,-2.9963,-2.9241,-2.8839,-2.893,-2.8588,-2.7736,-2.8266,-2.7953,-2.6714,-2.6714,-2.6624,-2.6499,-2.6499,-2.6499,-2.6499,-2.6499,-2.6499,-2.6499,-2.6499,-2.6499,-2.6499,-2.6499,-2.6499,-2.6499,-2.6499,-2.6499,-2.6499,-2.6499,-2.6499,-2.6499,-2.6499,-2.6499,-2.6499,-2.6499,-2.6499,-2.6499,-2.6499,-2.6499,-2.6467,-2.6268,-2.4825,-2.3494,-2.3917,-2.3558,-2.3108,-2.3108,-2.3108,-2.3108,-2.3108,-2.3108,-2.3108,-2.3108,-2.3108,-2.2957,-2.2493,-2.1995,-2.1631,-2.1631,-2.1182,-2.1006,-2.1458,-2.1031,-2.0503,-1.9987,-1.9861,-1.9798,-1.9798,-1.9798,-1.9798,-1.9798,-1.9798,-1.9849,-1.9949,-1.9849,-1.9849,-1.9949,-1.9849,-1.9798,-1.9798,-1.9798,-2.0288,-2.1167,-2.0338,-2.0464,-2.1355,-2.1443,-2.1257,-2.0943,-2.2284,-2.2606,-2.233,-2.2782,-2.302,-2.3108,-2.3108,-2.3108,-2.3108,-3.1511,-3.1511,-3.1511,-3.1511,-3.1511,-3.1511,-3.1511,-3.1511,-3.1511,-3.1511,-3.1394,-3.1635,-3.2542,-3.323,-3.3588,-3.3465,-3.2824,-3.2391,-3.2256,-3.156,-3.0836,-3.0095,-2.939,-2.8588,-2.7736,-2.7129,-2.7061,-2.7537,-2.7537,-2.7196,-2.6499,-2.6499,-2.6499,-2.6499,-2.6499,-2.6499,-2.6499,-2.6499,-2.6499,-2.6499,-2.6499,-2.6499,-2.6499,-2.6499,-2.6499,-2.6499,-2.6499,-2.6499,-2.6499,-2.6499,-2.6499,-2.6499,-2.6499,-2.6499,-2.6499,-2.6499,-2.6499,-2.6273,-2.5313,-2.4781,-2.4366,-2.3484,-2.317,-2.3108,-2.3108,-2.3108,-2.3108,-2.3108,-2.3108,-2.3108,-2.3108,-2.3108,-2.3083,-2.3007,-2.2531,-2.2196,-2.2196,-2.1732,-2.1405,-2.1481,-2.1031,-2.0666,-2.0578,-2.01,-1.9798,-1.9798,-1.9798,-1.9798,-1.9798,-1.9798,-2.0037,-2.0566,-2.0062,-2.0037,-2.0566,-2.0049,-1.9798,-1.9798,-1.9798,-1.9874,-2.0037,-2.0415,-2.0654,-2.083,-2.1307,-2.1443,-2.1393,-2.1619,-2.1945,-2.2322,-2.2397,-2.2681,-2.3108,-2.3108,-2.3108,-2.3108,-3.1511,-3.1511,-3.1511,-3.1511,-3.1511,-3.1511,-3.1511,-3.1511,-3.1511,-3.1511,-3.1412,-3.1619,-3.2408,-3.3095,-3.335,-3.2976,-3.2677,-3.2333,-3.1959,-3.166,-3.1161,-3.0329,-3.0359,-3.0011,-2.916,-2.9254,-2.9002,-2.8427,-2.7484,-2.685,-2.6499,-2.6499,-2.6499,-2.6499,-2.6499,-2.6499,-2.6499,-2.6499,-2.6499,-2.6499,-2.6499,-2.6499,-2.6499,-2.6499,-2.6499,-2.6499,-2.6499,-2.6499,-2.6499,-2.6499,-2.6499,-2.6499,-2.6499,-2.6499,-2.6499,-2.6499,-2.6499,-2.6311,-2.5369,-2.4508,-2.3828,-2.3629,-2.3346,-2.3108,-2.3108,-2.3108,-2.3108,-2.3108,-2.3108,-2.3108,-2.3108,-2.3108,-2.3007,-2.2694,-2.2443,-2.2309,-2.2309,-2.2108,-2.1945,-2.1945,-2.1455,-2.1031,-2.0729,-2.0137,-1.9798,-1.9798,-1.9798,-1.9798,-1.9798,-1.9798,-1.9924,-2.0201,-1.9936,-1.9924,-2.0175,-1.9924,-1.9798,-1.9798,-1.9798,-1.9974,-2.0314,-2.0239,-2.039,-2.0704,-2.0943,-2.0867,-2.0589,-2.123,-2.1443,-2.1458,-2.1732,-2.2184,-2.2644,-2.2644,-2.2844,-2.3058]},{"header":{"parameterUnit":"m.s-1","parameterCategory":1,"la1":30.6,"la2":28.766,"lo1":-90.7593,"lo2":-88.6598,"dy":0.0162,"dx":0.0183,"nx":116,"ny":114,"refTime":"2024-06-04T18:00:00:Z","depth":0,"parameterNumber":3,"parameterNumberName":"V-component_of_WINDS"},"data":[0.0,0.0,0.0,0.0,0.0,0.0,0.0,0.0,0.0,0.0,0.0,0.0,0.0,0.0,0.0,0.0,0.0,0.0,0.0,0.0,0.0,0.0,0.0,0.0,0.0,0.0,0.0,0.0,0.0,0.0,0.0,0.0,0.0,0.0,0.0,0.0,0.0,0.0,0.0,0.0,0.0,0.0,0.0,0.0,0.0,0.0,0.0,0.0,0.0,0.0,0.0,0.0,0.0,0.0,0.0,0.0,0.0,0.0,0.0,0.0,0.0,0.0,0.0,0.0,0.0,0.0,0.0,0.0,0.0,0.0,0.0,0.0,0.0,0.0,0.0,0.0,0.0,0.0,0.0,0.0,0.0,0.0,0.0,0.0,0.0,0.0,0.0,0.0,0.0,0.0,0.0,0.0,0.0,0.0,0.0,0.0,0.0,0.0,0.0,0.0,0.0,0.0,0.0,0.0,0.0,0.0,0.0,0.0,0.0,0.0,0.0,0.0,0.0,0.0,0.0,0.0,0.0,0.0,0.0,0.0,0.0,0.0,0.0,0.0,0.0,0.0,0.0,0.0,0.0,0.0,0.0,0.0,0.0,0.0,0.0,0.0,0.0,0.0,0.0,0.0,0.0,0.0,0.0,0.0,0.0,0.0,0.0,0.0,0.0,0.0,0.0,0.0,0.0,0.0,0.0,0.0,0.0,0.0,0.0,0.0,0.0,0.0,0.0,0.0,0.0,0.0,0.0,0.0,0.0,0.0,0.0,0.0,0.0,0.0,0.0,0.0,0.0,0.0,0.0,0.0,0.0,0.0,0.0,0.0,0.0,0.0,0.0,0.0,0.0,0.0,0.0,0.0,0.0,0.0,0.0,0.0,0.0,0.0,0.0,0.0,0.0,0.0,0.0,0.0,0.0,0.0,0.0,0.0,0.0,0.0,0.0,0.0,0.0,0.0,0.0,0.0,0.0,0.0,0.0,0.0,0.0,0.0,0.0,0.0,0.0,0.0,0.0,0.0,0.0,0.0,0.0,0.0,0.0,0.0,0.0,0.0,0.0,0.0,0.0,0.0,0.0,0.0,0.0,0.0,0.0,0.0,0.0,0.0,0.0,0.0,0.0,0.0,0.0,0.0,0.0,0.0,0.0,0.0,0.0,0.0,0.0,0.0,0.0,0.0,0.0,0.0,0.0,0.0,0.0,0.0,0.0,0.0,0.0,0.0,0.0,0.0,0.0,0.0,0.0,0.0,0.0,0.0,0.0,0.0,0.0,0.0,0.0,0.0,0.0,0.0,0.0,0.0,0.0,0.0,0.0,0.0,0.0,0.0,0.0,0.0,0.0,0.0,0.0,0.0,0.0,0.0,0.0,0.0,0.0,0.0,0.0,0.0,0.0,0.0,0.0,0.0,0.0,0.0,0.0,0.0,0.0,0.0,0.0,0.0,0.0,0.0,0.0,0.0,0.0,0.0,0.0,0.0,0.0,0.0,0.0,0.0,0.0,0.0,0.0,0.0,0.0,0.0,0.0,0.0,0.0,0.0,0.0,0.0,0.0,0.0,0.0,0.0,0.0,0.0,0.0,0.0,0.0,0.0,0.0,0.0,0.0,0.0,0.0,0.0,0.0,0.0,0.0,0.0,0.0,0.0,0.0,0.0,0.0,0.0,0.0,0.0,0.0,0.0,0.0,0.0,0.0,0.0,0.0,0.0,0.0,0.0,0.0,0.0,0.0,0.0,0.0,0.0,0.0,0.0,0.0,0.0,0.0,0.0,0.0,0.0,0.0,0.0,0.0,0.0,0.0,0.0,0.0,0.0,0.0,0.0,0.0,0.0,0.0,0.0,0.0,0.0,0.0,0.0,0.0,0.0,0.0,0.0,0.0,0.0,0.0,0.0,0.0,0.0,0.0,0.0,0.0,0.0,0.0,0.0,0.0,0.0,0.0,0.0,0.0,0.0,0.0,0.0,0.0,0.0,0.0,0.0,0.0,0.0,0.0,0.0,0.0,0.0,0.0,0.0,0.0,0.0,0.0,0.0,0.0,0.0,0.0,0.0,0.0,0.0,0.0,0.0,0.0,0.0,0.0,0.0,0.0,0.0,0.0,0.0,0.0,0.0,0.0,0.0,0.0,0.0,0.0,0.0,0.0,0.0,0.0,0.0,0.0,0.0,0.0,0.0,0.0,0.0,0.0,0.0,0.0,0.0,0.0,0.0,0.0,0.0,0.0,0.0,0.0,0.0,0.0,0.0,0.0,0.0,0.0,0.0,0.0,0.0,0.0,0.0,0.0,0.0,0.0,0.0,0.0,0.0,0.0,0.0,0.0,0.0,0.0,0.0,0.0,0.0,0.0,0.0,0.0,0.0,0.0,0.0,0.0,0.0,0.0,0.0,0.0,0.0,0.0,0.0,0.0,0.0,0.0,0.0,0.0,0.0,0.0,0.0,0.0,0.0,0.0,0.0,0.0,0.0,0.0,0.0,0.0,0.0,0.0,0.0,0.0,0.0,0.0,0.0,0.0,0.0,0.0,0.0,0.0,0.0,0.0,0.0,0.0,0.0,0.0,0.0,0.0,0.0,0.0,0.0,0.0,0.0,0.0,0.0,0.0,0.0,0.0,0.0,0.0,0.0,0.0,0.0,0.0,0.0,0.0,0.0,0.0,0.0,0.0,0.0,0.0,0.0,0.0,0.0,0.0,0.0,0.0,0.0,0.0,0.0,0.0,0.0,0.0,0.0,0.0,0.0,0.0,0.0,0.0,0.0,0.0,0.0,0.0,0.0,0.0,0.0,0.0,0.0,0.0,0.0,0.0,0.0,0.0,0.0,0.0,0.0,0.0,0.0,0.0,0.0,0.0,0.0,0.0,0.0,0.0,0.0,0.0,0.0,0.0,0.0,0.0,0.0,0.0,0.0,0.0,0.0,0.0,0.0,0.0,0.0,0.0,0.0,0.0,0.0,0.0,0.0,0.0,0.0,0.0,0.0,0.0,0.0,0.0,0.0,0.0,0.0,0.0,0.0,0.0,0.0,0.0,0.0,0.0,0.0,0.0,0.0,0.0,0.0,0.0,0.0,0.0,0.0,0.0,0.0,0.0,0.0,0.0,0.0,0.0,0.0,0.0,0.0,0.0,0.0,0.0,0.0,0.0,0.0,0.0,0.0,0.0,0.0,0.0,0.0,0.0,0.0,0.0,0.0,0.0,0.0,0.0,0.0,0.0,0.0,0.0,0.0,0.0,0.0,0.0,0.0,0.0,0.0,0.0,0.0,0.0,0.0,0.0,0.0,0.0,0.0,0.0,0.0,0.0,0.0,0.0,0.0,0.0,0.0,0.0,0.0,0.0,0.0,0.0,0.0,0.0,0.0,0.0,0.0,0.0,0.0,0.0,0.0,0.0,0.0,0.0,0.0,0.0,0.0,0.0,0.0,0.0,0.0,0.0,0.0,0.0,0.0,0.0,0.0,0.0,0.0,0.0,0.0,0.0,0.0,0.0,0.0,0.0,0.0,0.0,0.0,0.0,0.0,0.0,0.0,0.0,0.0,0.0,0.0,0.0,0.0,0.0,0.0,0.0,0.0,0.0,0.0,0.0,0.0,0.0,0.0,0.0,0.0,0.0,0.0,0.0,0.0,0.0,0.0,0.0,0.0,0.0,0.0,0.0,0.0,0.0,0.0,0.0,0.0,0.0,0.0,0.0,0.0,0.0,0.0,0.0,0.0,0.0,0.0,0.0,0.0,0.0,0.0,0.0,0.0,0.0,0.0,0.0,0.0,0.0,0.0,0.0,0.0,0.0,0.0,0.0,0.0,0.0,0.0,0.0,0.0,0.0,0.0,0.0,0.0,0.0,0.0,0.0,0.0,0.0,0.0,0.0,0.0,0.0,0.0,0.0,0.0,0.0,0.0,0.0,0.0,0.0,0.0,0.0,0.0,0.0,0.0,0.0,0.0,0.0,0.0,0.0,0.0,0.0,0.0,0.0,0.0,0.0,0.0,0.0,0.0,0.0,0.0,0.0,0.0,0.0,0.0,0.0,0.0,0.0,0.0,0.0,0.0,0.0,0.0,0.0,0.0,0.0,0.0,0.0,0.0,0.0,0.0,0.0,0.0,0.0,0.0,0.0,0.0,0.0,0.0,0.0,0.0,0.0,0.0,0.0,0.0,0.0,0.0,0.0,0.0,0.0,0.0,0.0,0.0,0.0,0.0,0.0,0.0,0.0,0.0,0.0,0.0,0.0,0.0,0.0,0.0,0.0,0.0,0.0,0.0,0.0,0.0,0.0,0.0,0.0,0.0,0.0,0.0,0.0,0.0,0.0,0.0,0.0,0.0,0.0,0.0,0.0,0.0,0.0,0.0,0.0,0.0,0.0,0.0,0.0,0.0,0.0,0.0,0.0,0.0,0.0,0.0,0.0,0.0,0.0,0.0,0.0,0.0,0.0,0.0,0.0,0.0,0.0,0.0,0.0,0.0,0.0,0.0,0.0,0.0,0.0,0.0,0.0,0.0,0.0,0.0,0.0,0.0,0.0,0.0,0.0,0.0,0.0,0.0,0.0,0.0,0.0,0.0,0.0,0.0,0.0,0.0,0.0,0.0,0.0,0.0,0.0,0.0,0.0,0.0,0.0,0.0,0.0,0.0,0.0,0.0,0.0,0.0,0.0,0.0,0.0,0.0,0.0,0.0,0.0,0.0,0.0,0.0,0.0,0.0,0.0,0.0,0.0,0.0,0.0,0.0,0.0,0.0,0.0,0.0,0.0,0.0,0.0,0.0,0.0,0.0,0.0,0.0,0.0,0.0,0.0,0.0,0.0,0.0,0.0,0.0,0.0,0.0,0.0,0.0,0.0,0.0,0.0,0.0,0.0,0.0,0.0,0.0,0.0,0.0,0.0,0.0,0.0,0.0,0.0,0.0,0.0,0.0,0.0,0.0,0.0,0.0,0.0,0.0,0.0,0.0,0.0,0.0,0.0,0.0,0.0,0.0,0.0,0.0,0.0,0.0,0.0,0.0,0.0,0.0,0.0,0.0,0.0,0.0,0.0,0.0,0.0,0.0,0.0,0.0,0.0,0.0,0.0,0.0,0.0,0.0,0.0,0.0,0.0,0.0,0.0,0.0,0.0,0.0,0.0,0.0,0.0,0.0,0.0,0.0,0.0,0.0,0.0,0.0,0.0,0.0,0.0,0.0,0.0,0.0,0.0,0.0,0.0,0.0,0.0,0.0,0.0,0.0,0.0,0.0,0.0,0.0,0.0,0.0,0.0,0.0,0.0,0.0,0.0,0.0,0.0,0.0,0.0,0.0,0.0,0.0,0.0,0.0,0.0,0.0,0.0,0.0,0.0,0.0,0.0,0.0,0.0,0.0,0.0,0.0,0.0,0.0,0.0,0.0,0.0,0.0,0.0,0.0,0.0,0.0,0.0,0.0,0.0,0.0,0.0,0.0,0.0,0.0,0.0,0.0,0.0,0.0,0.0,0.0,0.0,0.0,0.0,0.0,0.0,0.0,0.0,0.0,0.0,0.0,0.0,0.0,0.0,0.0,0.0,0.0,0.0,0.0,0.0,0.0,0.0,0.0,0.0,0.0,0.0,0.0,0.0,0.0,0.0,0.0,0.0,0.0,0.0,0.0,0.0,0.0,0.0,0.0,0.0,0.0,0.0,0.0,0.0,0.0,0.0,0.0,0.0,0.0,0.0,0.0,0.0,0.0,0.0,0.0,0.0,0.0,0.0,0.0,0.0,0.0,0.0,0.0,0.0,0.0,0.0,0.0,0.0,0.0,0.0,0.0,0.0,0.0,0.0,0.0,0.0,0.0,0.0,0.0,0.0,0.0,0.0,0.0,0.0,0.0,0.0,0.0,0.0,0.0,0.0,0.0,0.0,0.0,0.0,0.0,0.0,0.0,0.0,0.0,0.0,0.0,0.0,0.0,0.0,0.0,0.0,0.0,0.0,0.0,0.0,0.0,0.0,0.0,0.0,0.0,0.0,0.0,0.0,0.0,0.0,0.0,0.0,0.0,0.0,0.0,0.0,0.0,0.0,0.0,0.0,0.0,0.0,0.0,0.0,0.0,0.0,0.0,0.0,0.0,0.0,0.0,0.0,0.0,0.0,0.0,-1.61,0.0,0.0,0.0,0.0,0.0,0.0,0.0,0.0,0.0,0.0,0.0,0.0,0.0,0.0,0.0,0.0,0.0,0.0,0.0,0.0,0.0,0.0,0.0,0.0,-1.1198,-1.17,-1.1412,-1.1375,-1.1282,-1.1029,0.0,0.0,0.0,0.0,0.0,-0.9941,-0.9954,-1.0079,-1.0358,-1.0861,-1.1797,-1.3131,-1.2842,-1.1772,-1.0082,0.0,0.0,0.0,0.0,0.0,0.0,0.0,0.0,0.0,0.0,0.0,0.0,0.0,0.0,0.0,0.0,0.0,0.0,0.0,0.0,0.0,0.0,0.0,0.0,0.0,0.0,0.0,0.0,0.0,0.0,0.0,0.0,0.0,0.0,0.0,0.0,0.0,0.0,0.0,0.0,0.0,0.0,0.0,0.0,0.0,0.0,0.0,0.0,0.0,0.0,0.0,0.0,0.0,0.0,0.0,0.0,0.0,0.0,0.0,0.0,0.0,0.0,0.0,0.0,0.0,0.0,0.0,0.0,0.0,0.0,0.0,-1.7927,0.0,0.0,0.0,0.0,0.0,0.0,0.0,0.0,0.0,0.0,0.0,0.0,0.0,0.0,0.0,0.0,0.0,0.0,0.0,0.0,0.0,-1.0822,-1.055,-1.1423,-1.2046,-1.2063,-1.1977,-1.1929,-1.1934,-1.1437,0.0,0.0,0.0,-1.0467,-1.0563,-1.0848,-1.1358,-1.2089,-1.3549,-1.5002,-1.6464,-1.7002,-1.5706,-1.2887,-1.1438,0.0,0.0,0.0,0.0,0.0,0.0,0.0,0.0,0.0,0.0,0.0,0.0,0.0,0.0,0.0,0.0,0.0,0.0,0.0,0.0,0.0,0.0,0.0,0.0,0.0,0.0,0.0,0.0,0.0,0.0,0.0,0.0,0.0,0.0,0.0,0.0,0.0,0.0,0.0,0.0,0.0,0.0,0.0,0.0,0.0,0.0,0.0,0.0,0.0,0.0,0.0,0.0,0.0,0.0,0.0,0.0,0.0,0.0,0.0,0.0,0.0,0.0,0.0,-2.1896,-2.2277,-2.1412,-2.3017,-2.3719,-2.3598,-2.1447,-2.1172,-2.206,-2.0039,0.0,0.0,0.0,0.0,0.0,0.0,0.0,0.0,0.0,0.0,0.0,0.0,0.0,0.0,0.0,0.0,0.0,0.0,0.0,-1.1485,-1.1439,-1.2386,-1.3039,-1.3101,-1.2679,-1.2444,-1.2494,-1.1991,0.0,0.0,-1.1188,-1.1132,-1.159,-1.1207,-1.1731,-1.3182,-1.6185,-1.8013,-1.87,-1.9233,-1.946,-1.9332,-1.6386,-1.4889,-1.4469,0.0,0.0,0.0,0.0,0.0,0.0,0.0,0.0,0.0,0.0,0.0,0.0,0.0,0.0,0.0,0.0,0.0,0.0,0.0,0.0,0.0,0.0,0.0,0.0,0.0,0.0,0.0,0.0,0.0,0.0,0.0,0.0,0.0,0.0,0.0,0.0,0.0,0.0,0.0,0.0,0.0,-1.5234,-1.6093,0.0,0.0,0.0,0.0,0.0,0.0,0.0,0.0,0.0,0.0,0.0,0.0,0.0,-1.8069,-2.0272,-2.2177,-2.3044,-2.2964,-2.5234,-2.6052,-2.5603,-2.5859,-2.6171,-2.642,-2.5762,0.0,-2.3428,-2.2031,0.0,0.0,0.0,0.0,0.0,0.0,0.0,0.0,0.0,0.0,0.0,0.0,0.0,0.0,0.0,0.0,0.0,0.0,0.0,0.0,0.0,-1.3961,-1.4867,-1.5541,-1.5656,-1.5314,-1.4397,-1.3875,-1.3182,-1.2227,-1.1708,-1.156,-1.1792,-1.2745,-1.4652,-1.7508,-1.9557,-2.0999,-2.1865,-2.2385,-2.2765,-2.292,-2.1207,-1.9129,-1.6779,-1.492,0.0,0.0,0.0,0.0,0.0,0.0,0.0,0.0,0.0,0.0,0.0,0.0,0.0,0.0,0.0,0.0,0.0,0.0,0.0,0.0,0.0,0.0,0.0,0.0,0.0,0.0,0.0,0.0,0.0,0.0,0.0,0.0,0.0,0.0,0.0,0.0,0.0,0.0,0.0,-1.448,-1.6016,-1.6629,-1.6982,-1.6894,0.0,0.0,0.0,0.0,0.0,0.0,0.0,0.0,0.0,-2.0989,-2.1302,-2.232,-2.4214,-2.5613,-2.6368,-2.6546,-2.7592,-2.8115,-2.8174,-2.8174,-2.8144,-2.8057,-2.7637,-2.6894,-2.583,-2.4043,-2.2685,-2.1611,0.0,0.0,0.0,0.0,-2.0029,-1.9941,0.0,0.0,0.0,0.0,0.0,0.0,0.0,0.0,0.0,0.0,0.0,0.0,-1.4173,-1.5261,-1.6421,-1.7689,-1.7915,-1.7526,-1.6409,-1.5606,-1.4619,-1.3367,-1.2584,-1.2376,-1.2791,-1.5055,-1.7747,-2.0905,-2.2272,-2.3452,-2.4418,-2.4983,-2.5247,-2.5222,-2.4657,-2.2573,-1.9321,-1.7239,-1.5587,-1.4123,0.0,0.0,0.0,0.0,0.0,0.0,0.0,0.0,0.0,0.0,0.0,0.0,0.0,0.0,0.0,0.0,0.0,0.0,0.0,0.0,0.0,0.0,0.0,0.0,0.0,0.0,0.0,0.0,0.0,0.0,0.0,0.0,0.0,0.0,0.0,0.0,0.0,-1.583,-1.7217,-1.7666,-1.8574,-1.8779,0.0,0.0,0.0,0.0,0.0,0.0,-2.0088,-1.9988,-2.1237,-2.4122,-2.4882,-2.604,-2.7666,-2.8301,-2.8779,-2.9082,-2.9082,-2.9258,-2.9626,-2.9626,-2.9394,-2.9062,-2.8633,-2.8271,-2.7832,-2.5771,-2.4482,-2.3721,-2.2637,-2.1943,-2.1654,-2.2301,-2.2298,-2.2214,0.0,0.0,0.0,0.0,0.0,0.0,0.0,0.0,0.0,0.0,0.0,-1.3591,-1.4733,-1.5819,-1.7127,-1.8782,-1.8016,-1.7614,0.0,-1.6563,-1.5635,-1.5547,-1.4053,-1.3942,-1.5461,-1.8169,-2.0174,-2.1443,-2.3627,-2.4938,-2.5523,-2.6135,-2.6411,-2.6386,-2.5808,-2.4544,-2.2706,-2.05,-1.8437,-1.6438,-1.4215,0.0,0.0,0.0,0.0,0.0,0.0,0.0,0.0,0.0,0.0,0.0,0.0,0.0,0.0,0.0,0.0,0.0,0.0,0.0,0.0,0.0,0.0,0.0,0.0,0.0,0.0,0.0,0.0,0.0,0.0,0.0,0.0,0.0,0.0,0.0,0.0,0.0,0.0,-2.0361,-2.1504,0.0,0.0,0.0,0.0,-2.0273,-1.9589,-2.0266,-2.2675,-2.1319,-2.2595,-2.7315,-2.7008,-2.7642,-2.9434,-2.9482,-2.9512,-2.9531,-2.9531,-2.9607,-2.9626,-2.9626,-2.9616,-2.9567,-2.9072,-2.8877,-2.8721,-2.7002,-2.6016,-2.5508,-2.5068,-2.4609,-2.4219,-2.4284,-2.4277,-2.4267,0.0,0.0,0.0,0.0,0.0,-0.9905,-0.9905,-1.0684,-1.1412,-1.1748,-1.3554,-1.5379,-1.6848,-1.8341,-1.971,-2.1001,-2.0778,-2.0175,-1.9296,-1.8028,-1.6986,-1.6258,-1.5678,-1.6647,-1.9371,-2.0388,-2.1958,-2.413,-2.4933,-2.5598,-2.6185,-2.6399,-2.6499,-2.6487,-2.6285,-2.5624,-2.4569,-2.2359,-2.0584,-1.9108,-1.6883,-1.4928,0.0,0.0,0.0,0.0,0.0,0.0,0.0,0.0,0.0,0.0,0.0,0.0,0.0,0.0,0.0,0.0,0.0,0.0,0.0,0.0,0.0,0.0,0.0,0.0,0.0,0.0,0.0,0.0,0.0,0.0,0.0,0.0,0.0,0.0,0.0,0.0,0.0,-2.1357,-2.2793,0.0,-2.2715,-2.3281,-2.3741,-2.379,-2.3111,-2.3793,-2.6286,-2.5112,-2.5772,-2.8813,-2.8988,-2.9343,-2.9971,-3.0273,-3.042,-3.042,-3.042,-3.042,-3.042,-3.042,-3.0254,-2.9961,-2.9805,-2.959,-2.9268,-2.8379,-2.7607,-2.6934,-2.6494,-2.623,-2.6094,-2.6094,-2.6093,-2.6056,0.0,0.0,0.0,0.0,-0.9905,-0.9905,-0.9905,-1.0874,-1.1851,-1.2576,-1.4601,-1.6685,-1.8543,-2.0088,-2.1393,-2.2498,-2.2393,-2.1757,-2.0464,-1.9183,-1.8042,-1.7102,-1.7415,-1.8832,-2.143,-2.2234,-2.359,-2.5598,-2.5787,-2.6122,-2.6499,-2.6499,-2.6499,-2.6499,-2.6499,-2.6285,-2.5774,-2.4117,-2.256,-2.1081,-1.9258,-1.7511,-1.5852,0.0,0.0,0.0,0.0,0.0,0.0,0.0,0.0,0.0,0.0,0.0,0.0,0.0,0.0,0.0,0.0,0.0,0.0,0.0,0.0,0.0,0.0,0.0,0.0,0.0,0.0,0.0,0.0,0.0,0.0,0.0,0.0,0.0,0.0,0.0,-2.2051,-2.248,-2.417,-2.5127,-2.4707,-2.5487,-2.6191,-2.6717,-2.5882,-2.6313,-2.8627,-2.7642,-2.7872,-2.9709,-3.0205,-3.043,-3.043,-3.0732,-3.0889,-3.0889,-3.0889,-3.0889,-3.0889,-3.0889,-3.0723,-3.042,-3.0264,-3.0039,-2.9746,-2.9316,-2.8721,-2.8047,-2.7617,-2.7441,-2.7432,-2.7285,-2.7258,-2.7221,0.0,0.0,0.0,-0.9905,-0.9905,-0.9905,-0.9931,-1.0886,-1.2002,-1.3098,-1.5184,-1.7378,-1.9597,-2.0853,-2.197,-2.3007,-2.2581,-2.2046,-2.1493,-1.9924,-1.877,-1.8304,-1.9321,-2.0439,-2.1594,-2.374,-2.5096,-2.5624,-2.6223,-2.6499,-2.6499,-2.6499,-2.6499,-2.6499,-2.6499,-2.6499,-2.6461,-2.5862,-2.4381,-2.2322,-2.1219,-1.9786,-1.8066,0.0,0.0,0.0,0.0,0.0,0.0,0.0,0.0,0.0,0.0,0.0,0.0,0.0,0.0,0.0,0.0,0.0,0.0,0.0,0.0,0.0,0.0,0.0,0.0,0.0,0.0,0.0,0.0,0.0,0.0,0.0,0.0,0.0,-2.0703,-2.2171,-2.3443,-2.3818,-2.5752,-2.6904,-2.6504,-2.7288,-2.8066,-2.8877,-2.754,-2.7605,-2.9514,-2.8583,-2.8681,-3.0158,-3.0654,-3.0889,-3.0889,-3.0889,-3.0889,-3.0889,-3.0889,-3.0889,-3.0889,-3.0889,-3.0889,-3.0869,-3.042,-3.0215,-3.0185,-2.9766,-2.9336,-2.8916,-2.8476,-2.8301,-2.8242,-2.7832,-2.7723,-2.7655,0.0,0.0,-1.0185,-0.9931,-0.9905,-1.0031,-1.0419,-1.1123,-1.2282,-1.4192,-1.6358,-1.843,-2.0251,-2.1782,-2.2782,-2.3083,-2.2259,-2.1481,-2.0955,-1.9346,-1.8894,-1.9975,-2.1418,-2.2924,-2.4431,-2.5071,-2.5661,-2.626,-2.6411,-2.6499,-2.6499,-2.6499,-2.6499,-2.6499,-2.6499,-2.6499,-2.6487,-2.6323,-2.5669,-2.4556,-2.3062,-2.1707,-2.0426,0.0,0.0,0.0,0.0,0.0,0.0,0.0,0.0,0.0,0.0,0.0,0.0,0.0,0.0,0.0,0.0,0.0,0.0,0.0,0.0,0.0,0.0,0.0,0.0,0.0,0.0,0.0,0.0,0.0,0.0,0.0,-2.1508,-2.2574,-2.1655,-2.3555,-2.5195,-2.5625,-2.7012,-2.8018,-2.8203,-2.8721,-2.9196,-2.9375,-2.8228,-2.826,-2.9963,-2.8935,-2.905,-3.0635,-3.082,-3.0889,-3.0889,-3.0889,-3.0889,-3.0889,-3.0889,-3.0889,-3.0889,-3.0889,-3.0889,-3.0889,-3.0752,-3.0703,-3.0664,-3.0215,-2.9951,-2.9775,-2.9033,-2.8564,-2.8281,-2.8164,-2.813,-2.8072,0.0,-0.959,-1.0298,-0.9957,-0.9905,-1.0159,-1.088,-1.1342,-1.2459,-1.4826,-1.6739,-1.848,-2.0151,-2.1581,-2.2447,-2.2447,-2.1857,-2.1054,-2.0037,-1.9083,-1.9384,-2.1307,-2.2736,-2.4155,-2.5561,-2.5837,-2.616,-2.6499,-2.6499,-2.6499,-2.6499,-2.6499,-2.6499,-2.6499,-2.6499,-2.6499,-2.6499,-2.6499,-2.6298,-2.585,-2.4644,-2.3653,-2.2736,-2.1368,-2.0326,-1.9447,-1.843,-1.7702,-1.7152,-1.6861,0.0,0.0,0.0,0.0,0.0,0.0,0.0,0.0,0.0,0.0,0.0,0.0,0.0,0.0,0.0,0.0,0.0,0.0,0.0,0.0,0.0,0.0,0.0,0.0,-2.3874,-2.4797,-2.3664,-2.4951,-2.624,-2.6855,-2.7891,-2.8721,-2.915,-2.958,-2.9912,-3.0107,-2.9517,-2.9534,-3.0431,-2.9819,-2.9893,-3.0889,-3.0889,-3.0889,-3.0889,-3.0889,-3.0889,-3.0889,-3.0889,-3.0889,-3.0889,-3.0889,-3.0889,0.0,-3.0889,-3.0889,-3.0869,-3.0605,-3.0371,0.0,0.0,0.0,0.0,0.0,-2.8291,-2.8281,0.0,-0.9797,-1.0298,-0.9957,-0.9956,-1.0313,-1.1282,-1.1574,-1.2599,-1.5183,0.0,-1.8003,-1.9623,-2.0815,-2.1496,-2.1433,-2.1393,-2.0778,0.0,0.0,-2.0299,-2.241,-2.3577,-2.4657,-2.5674,-2.6298,-2.6587,-2.6587,-2.665,-2.665,-2.6587,-2.6587,-2.6549,-2.6499,-2.6499,-2.6499,-2.6499,-2.6499,-2.6499,-2.6449,-2.5933,-2.5385,-2.4713,-2.3188,-2.2297,-2.1656,-2.0036,-1.9158,-1.8744,-1.8618,0.0,0.0,0.0,0.0,0.0,0.0,0.0,0.0,0.0,0.0,0.0,0.0,0.0,0.0,0.0,0.0,0.0,0.0,0.0,0.0,0.0,0.0,0.0,0.0,-2.5941,-2.7239,-2.6084,-2.6289,-2.6826,-2.7689,-2.8476,-2.916,-2.96,-3.0029,-3.0449,-3.0859,-3.0889,-3.0889,-3.0889,0.0,0.0,0.0,0.0,-3.0889,-3.0889,-3.0889,-3.0889,-3.0889,-3.0889,-3.0889,-3.0889,-3.0889,-3.0889,-3.0889,-3.0889,-3.0889,-3.0889,-3.0889,-3.0615,-3.0107,-2.9258,-2.8916,-2.8867,-2.8447,-2.8291,0.0,0.0,-0.9797,-1.0298,-0.9957,-1.0256,-1.0773,-1.1469,-1.1951,-1.3078,-1.536,-1.6674,-1.8003,-1.9623,-2.0815,-2.1333,-2.0893,-2.0842,-2.0717,0.0,0.0,-2.2272,-2.3615,-2.4707,-2.5598,-2.6311,-2.6876,-2.7165,-2.7165,-2.757,-2.7557,-2.7165,-2.7165,-2.6927,-2.6499,-2.6499,-2.6499,-2.6499,-2.6499,-2.6499,-2.6487,-2.6373,-2.5984,-2.536,-2.4587,-2.4236,-2.3985,-2.2757,-2.2243,-2.2017,-2.1154,-2.025,-1.9459,-1.9233,-1.8191,0.0,0.0,0.0,0.0,0.0,0.0,0.0,0.0,0.0,0.0,0.0,0.0,0.0,0.0,0.0,0.0,0.0,0.0,0.0,-2.5363,-2.6765,-2.7762,-2.7393,-2.7415,-2.7607,-2.8115,-2.8926,-2.9609,-3.0039,-3.0488,-3.0791,-3.0889,-3.0889,-3.0889,-3.0889,-3.0889,-3.0889,-3.0889,-3.0889,-3.0889,-3.0889,-3.0889,-3.0889,-3.0889,0.0,0.0,-3.0889,-3.0889,-3.0889,-3.0889,-3.0889,-3.0889,-3.0889,-3.0889,-3.0615,-3.0107,-2.9258,-2.8916,-2.8867,-2.8447,-2.8291,-2.8291,-1.0159,-1.0462,-1.07,-1.0235,-1.0585,-1.1164,-1.18,-1.218,-1.3061,-1.4959,-1.5754,-1.6568,-1.7626,-1.8505,-1.8894,-1.8618,-1.8881,0.0,0.0,-2.1694,-2.305,-2.472,-2.585,-2.6578,-2.6901,-2.7419,-2.7695,-2.7695,-2.7971,-2.7959,-2.7695,-2.7695,-2.7544,-2.7281,-2.7281,-2.7165,-2.6901,-2.6901,-2.6751,-2.6499,-2.6499,-2.6323,-2.6034,-2.5737,-2.546,-2.5096,-2.4249,-2.3772,-2.3409,-2.2569,-2.1904,-2.1368,-2.0815,-1.9925,-1.8781,0.0,0.0,0.0,0.0,0.0,0.0,0.0,0.0,0.0,0.0,0.0,0.0,0.0,0.0,-2.5518,-2.6575,0.0,-2.8403,-2.792,-2.8369,-2.852,-2.7806,-2.8027,-2.8369,-2.8584,-2.918,-2.9736,-3.0156,-3.0615,-3.0889,-3.0889,-3.0889,-3.0889,-3.0889,-3.0889,-3.0889,-3.0889,-3.0889,-3.0889,-3.0889,-3.0889,-3.0889,-3.0889,-3.0889,-3.0889,-3.0889,-3.0889,-3.0889,-3.0889,-3.0889,-3.0889,-3.0889,-3.0889,-3.0752,-3.0478,-2.9814,-2.9271,-2.8875,-2.8661,-2.8471,-2.8291,-1.1073,-1.1353,-1.1401,-1.0791,-1.1149,-1.1694,-1.2263,-1.2551,-1.3152,-1.4432,-1.4775,-1.5097,-1.563,-1.6183,-1.6538,0.0,0.0,0.0,0.0,-2.2121,-2.369,-2.5674,-2.664,-2.7168,-2.7281,-2.7821,-2.816,-2.826,-2.8373,-2.8373,-2.826,-2.826,-2.821,-2.8109,-2.8109,-2.7858,-2.7444,-2.7331,-2.7065,-2.665,-2.6537,-2.6499,-2.6487,-2.6373,-2.6034,-2.5523,-2.4976,-2.4362,-2.3753,-2.3258,-2.3032,-2.2807,-2.2058,-2.1355,-2.0478,-1.8592,-1.8127,0.0,0.0,0.0,0.0,0.0,0.0,0.0,0.0,-2.264,-2.3502,-2.605,-2.7381,-2.8612,-3.0375,-3.0416,-3.0121,-2.9964,-2.9554,-2.892,-2.7931,-2.8369,-2.8828,-2.8906,-2.9375,-2.9863,-3.0293,-3.0674,-3.0889,-3.0889,-3.0889,-3.0889,-3.0889,-3.0889,-3.0889,-3.0889,-3.0889,-3.0889,-3.0889,-3.0889,-3.0889,-3.0889,-3.0889,-3.0889,-3.0889,-3.0889,-3.0889,-3.0889,-3.0889,-3.0889,-3.0889,-3.0889,-3.0889,-3.0859,-3.0478,-2.9838,-2.9153,-2.8962,-2.8691,-2.8427,0.0,-1.2201,-1.2435,-1.185,-1.2181,-1.262,-1.2864,-1.338,-1.3846,-1.4123,-1.4582,-1.5097,-1.563,-1.6183,-1.6722,0.0,0.0,0.0,-2.1983,-2.364,-2.5084,-2.6348,-2.6512,-2.6813,-2.7268,-2.7821,-2.8348,-2.88,-2.9352,-2.934,-2.88,-2.88,-2.8574,-2.8109,-2.8109,-2.8072,-2.7984,-2.7494,-2.7291,-2.719,-2.6688,-2.6499,-2.6436,-2.5887,-2.5649,-2.5523,-2.4976,-2.4111,-2.3195,-2.3133,-2.2782,-2.2443,-2.2807,-2.2234,-2.1282,-2.0541,-1.9334,-1.8154,-1.7903,-1.8756,-2.0188,-2.2155,-2.2694,-2.3785,0.0,-2.8047,-2.7883,-2.9679,-3.052,-3.1,-3.1108,-3.0479,-2.9913,-2.9782,-2.9011,-2.8373,-2.8276,-2.8301,-2.8506,-2.8877,-2.9639,-3.0303,-3.0771,-3.0859,-3.0889,-3.0889,-3.0889,-3.0889,-3.0889,-3.0889,-3.0889,-3.0889,-3.0889,-3.0889,-3.0889,-3.0889,-3.0889,-3.0889,-3.0889,-3.0889,-3.0889,-3.0889,-3.0889,-3.0889,-3.0889,-3.0889,-3.0889,-3.0889,-3.0889,-3.0889,-3.083,-3.0529,-2.9968,-2.9178,-2.8852,-2.8793,0.0,-1.2912,-1.3421,-1.356,-1.3553,-1.3402,-1.3056,-1.3504,-1.3827,-1.3604,-1.3772,-1.4011,-1.4218,-1.4456,-1.4827,-1.5432,-1.735,0.0,-2.123,-2.3527,-2.531,-2.6449,-2.6801,-2.7241,-2.7745,-2.7996,-2.8536,-2.9428,-2.934,-2.934,-2.9428,-2.9428,-2.9302,-2.9089,-2.9089,-2.89,-2.8512,-2.7996,-2.7582,-2.7231,-2.6713,-2.6499,-2.6436,-2.5824,-2.4996,-2.4061,-2.3552,-2.302,0.0,-2.192,-2.1543,-2.1421,-2.1631,-2.1142,-2.0401,-1.9874,-1.9447,-1.9497,-2.1129,-2.1895,-2.2698,-2.4594,-2.5561,-2.6515,-2.8386,-2.8687,-2.9051,-3.0721,-3.0927,-3.1063,-3.1934,-3.051,-2.9522,-3.0348,-2.9416,-2.8662,-2.8662,-2.8877,-2.9014,-2.8926,-2.9453,-3.0,-3.0449,-3.0732,-3.0889,-3.0889,-3.0889,-3.0889,-3.0889,-3.0889,-3.0889,-3.0889,-3.0889,-3.0889,-3.0889,-3.0889,-3.0889,-3.0889,-3.0889,-3.0889,-3.0889,-3.0889,-3.0889,-3.0889,-3.0889,-3.0889,-3.0889,-3.0889,-3.0889,-3.0889,-3.0889,-3.0801,-3.049,-2.9621,-2.915,-2.8939,0.0,-1.3481,-1.4229,-1.4721,-1.4667,-1.4313,-1.3521,-1.3786,-1.3868,-1.3284,-1.3198,-1.3198,-1.3198,-1.3198,-1.3428,-1.4053,-1.6342,-1.8505,-2.0327,-2.2899,-2.4921,-2.6197,-2.6788,-2.7318,-2.7871,-2.7871,-2.836,-2.9327,-2.89,-2.8913,-2.9327,-2.9327,-2.9415,-2.9553,-2.9553,-2.9315,-2.885,-2.8335,-2.7783,-2.7231,-2.6713,-2.6399,-2.6172,-2.5423,-2.4217,-2.2832,-2.2447,-2.192,-2.1252,-2.0476,-2.0239,-2.0239,-2.0239,-1.9924,-1.9547,-1.9284,-1.9623,-2.0525,-2.2648,-2.371,-2.4619,-2.6311,-2.7519,-2.8373,-2.8536,-2.9001,-2.9613,-3.0533,-3.0537,-3.0699,-3.1656,-3.0156,-2.9251,-3.0569,-2.9729,-2.8916,-2.8916,-2.9189,-2.9228,-2.8799,-2.9238,-2.9687,-2.999,-3.043,-3.0752,-3.0879,-3.0889,-3.0889,-3.0889,-3.0889,-3.0889,-3.0889,-3.0889,-3.0889,-3.0889,-3.0889,-3.0889,-3.0889,-3.0889,-3.0889,-3.0889,-3.0889,-3.0889,-3.0889,-3.0889,-3.0889,-3.0889,-3.0889,-3.0889,-3.0889,-3.0889,-3.1132,-3.1425,-3.05,-2.9937,-2.9728,0.0,0.0,-1.4781,-1.4811,-1.5335,-1.5463,-1.4584,-1.4472,-1.4165,-1.3306,-1.3198,-1.3198,-1.3198,-1.3198,-1.3428,-1.4053,-1.5593,-1.7466,-1.9685,-2.1904,-2.3885,-2.5548,-2.621,-2.6776,-2.7293,-2.7306,-2.7595,-2.816,-2.8134,-2.8134,-2.816,-2.816,-2.8448,-2.8913,-2.8913,-2.8913,-2.885,-2.8335,-2.7783,-2.7231,-2.6713,-2.616,-2.5498,-2.4456,-2.3339,-2.2305,-2.2322,-2.0914,-1.9096,-1.9058,-1.9058,-1.9058,-1.9058,-1.9045,-1.9121,-1.9635,-2.0188,-2.0742,-2.1167,-2.3003,-2.5197,-2.6841,-2.8084,-2.9013,-2.9616,-3.0168,-3.0226,-2.9179,-2.9725,-3.0267,-2.9784,-2.9191,-2.9136,-3.014,-2.9527,-2.8916,-2.8916,-2.8926,-2.8779,-2.8359,-2.9062,-2.957,0.0,-2.9971,-3.04,-3.0859,-3.0889,-3.0889,-3.0889,-3.0889,-3.0889,-3.0889,-3.0889,-3.0889,-3.0889,-3.0889,-3.0889,-3.0889,-3.0889,-3.0889,-3.0889,-3.0889,-3.0889,-3.0889,-3.0889,-3.0889,-3.0889,-3.0889,-3.0889,-3.0889,-3.0889,-3.1758,-3.2936,-3.1904,-3.1539,-3.1379,0.0,0.0,0.0,-1.5455,-1.5649,-1.5595,-1.4997,-1.4674,-1.4294,-1.3735,-1.3391,0.0,0.0,0.0,0.0,0.0,-1.5248,-1.676,-1.8618,-2.0815,-2.2623,-2.3873,-2.5197,-2.6185,-2.6763,-2.6776,-2.7216,-2.8109,-2.7733,-2.7745,-2.8109,-2.8109,-2.821,-2.8386,-2.8386,-2.8386,-2.8348,-2.7795,-2.7657,-2.772,-2.6402,-2.5774,-2.5435,-2.3948,-2.2243,-2.0552,0.0,-1.8882,-1.7827,-1.7074,-1.7061,-1.734,-1.734,-1.7066,-1.6748,-1.6808,-1.8827,-2.1207,-2.2089,-2.4349,-2.6766,-2.8047,-2.8938,-2.9553,-2.9741,-2.9616,-2.9342,-2.9003,-2.7988,-2.7162,-2.6986,-2.6625,-2.6661,-2.7563,-2.8394,-2.9023,-2.9307,-2.959,-2.9609,-2.9189,-2.9394,-2.9678,0.0,0.0,0.0,-3.0879,-3.0889,-3.0889,-3.0889,-3.0889,-3.0889,-3.0889,-3.0889,-3.0889,-3.0889,-3.0889,-3.0889,-3.0889,-3.0889,-3.0889,-3.0889,-3.0889,-3.0889,-3.0889,-3.0889,-3.0889,-3.0889,-3.0889,-3.0889,-3.0889,-3.0889,-3.1586,-3.2413,-3.1806,-3.257,-3.3773,0.0,0.0,0.0,0.0,0.0,0.0,0.0,0.0,0.0,0.0,0.0,0.0,0.0,0.0,0.0,0.0,0.0,-1.5751,-1.7212,0.0,-2.0803,-2.1866,-2.3351,-2.4337,-2.4701,-2.4714,-2.5121,-2.6038,-2.5875,-2.6189,-2.6929,-2.713,-2.7419,-2.7808,-2.7808,-2.7808,-2.7758,-2.7005,-2.6779,-2.6779,-2.5109,-2.4305,-2.3966,-2.2498,-2.0788,0.0,-1.799,-1.725,-1.6656,-1.5739,-1.5768,-1.6194,-1.6145,-1.6241,-1.6456,-1.667,-1.9041,-2.194,-2.3643,-2.5361,-2.7101,-2.8787,-2.8899,-2.8712,-2.9118,-2.8582,-2.7929,-2.7504,-2.6319,-2.5195,-2.4815,-2.4821,-2.5078,-2.5801,-2.7217,-2.8447,-2.9033,-2.9473,-2.9697,-2.959,-2.9707,-2.9902,-3.0166,0.0,0.0,-3.0889,-3.0889,-3.0889,-3.0889,-3.0889,-3.0889,-3.0889,-3.0889,-3.0889,-3.0889,-3.0889,-3.0889,-3.0889,-3.0889,-3.0889,-3.0889,-3.0889,-3.0889,-3.0889,-3.0889,-3.0889,-3.0889,-3.0889,-3.0889,-3.0889,-3.0889,-3.1767,-3.2933,-3.2476,-3.3791,-3.5633,0.0,0.0,0.0,0.0,0.0,0.0,0.0,0.0,0.0,0.0,0.0,0.0,0.0,0.0,0.0,0.0,0.0,0.0,-1.5563,0.0,0.0,-1.9635,-2.0815,-2.1443,-2.1443,-2.1506,-2.1782,-2.2309,-2.2832,-2.3647,-2.4713,-2.5234,-2.6038,-2.7067,-2.7067,-2.7067,-2.6992,-2.5887,-2.5159,-2.4562,-2.2869,-2.192,-2.1317,-2.0188,-1.9095,-1.8016,-1.6889,-1.6183,-1.5655,-1.5123,-1.5374,-1.5882,-1.5751,-1.6822,-1.8307,-1.9113,-2.0855,-2.3039,-2.5405,-2.5873,-2.6365,-2.8981,-2.8051,-2.676,-2.7775,-2.7197,-2.6077,-2.4978,-2.4661,-2.4301,-2.3185,-2.3711,-2.4463,-2.4893,-2.6152,-2.7383,-2.8242,-2.874,-2.917,-2.959,-2.999,-3.0234,-3.0234,-3.0635,0.0,-3.0889,0.0,-3.0889,-3.0889,-3.0889,-3.0889,-3.0889,-3.0889,-3.0889,-3.0889,-3.0889,-3.0889,-3.0889,-3.0889,-3.0889,-3.0889,-3.0889,-3.0889,-3.0889,-3.0889,-3.0889,-3.0889,-3.0889,-3.0889,-3.0889,-3.1005,-3.2354,-3.4322,-3.3859,-3.5178,-3.6903,0.0,0.0,0.0,0.0,0.0,0.0,0.0,0.0,0.0,0.0,0.0,0.0,0.0,0.0,0.0,0.0,0.0,0.0,-1.4462,0.0,0.0,0.0,0.0,-2.0893,-2.0893,-2.1681,-2.2171,-2.2309,-2.2832,-2.3246,-2.3534,-2.3672,-2.3885,-2.4161,-2.4161,-2.4161,-2.4111,-2.3439,-2.3271,-2.3384,0.0,-2.1031,-2.0779,-1.9648,-1.8543,-1.7524,-1.6773,-1.64,-1.6199,-1.5668,-1.6948,-1.8896,-1.9628,-2.0689,-2.1417,-2.0377,-2.2488,-2.5,-2.4015,-2.5565,-2.7439,-2.7371,-2.6935,-2.6565,-2.6842,-2.6047,-2.4965,-2.4028,-2.291,-2.1729,-2.0526,-2.1768,-2.3135,-2.3564,-2.6074,-2.8262,-2.9121,-2.9902,-3.043,-3.0537,-3.0644,-3.0713,-3.0713,-3.082,-3.0889,0.0,-3.0889,-3.0889,-3.0889,-3.0889,-3.0889,-3.0889,-3.0889,-3.0889,-3.0889,-3.0889,-3.0889,-3.0889,-3.0889,-3.0889,-3.0889,-3.0889,-3.0889,-3.0889,-3.0889,-3.0889,-3.0889,-3.0889,-3.0889,-3.1005,-3.2092,-3.3051,-3.3916,-3.4854,-3.5817,-3.6562,0.0,0.0,0.0,0.0,0.0,0.0,0.0,0.0,0.0,0.0,0.0,0.0,0.0,0.0,0.0,0.0,0.0,0.0,0.0,0.0,0.0,0.0,-1.8077,-1.8869,-1.8869,-1.9936,-2.0401,-2.015,0.0,0.0,-2.1653,-2.1933,-2.2184,-2.241,-2.241,-2.241,-2.2359,-2.1543,0.0,0.0,0.0,-1.9246,-1.9158,-1.8254,-1.7516,-1.6961,-1.6613,-1.7114,-1.8053,-1.8707,-1.9766,-2.0909,-2.1777,-2.2242,-2.2561,-2.2822,-2.4007,-2.5228,-2.5194,-2.5891,-2.6614,-2.6513,-2.5766,-2.5041,-2.515,-2.4324,-2.3298,-2.239,-2.1361,-2.0391,-1.9697,-2.0869,-2.2048,-2.2519,-2.5166,-2.7539,-2.8584,-2.9648,-3.0459,-3.084,-3.0889,-3.0889,-3.0889,-3.0889,-3.0889,0.0,-3.0889,-3.0889,-3.0889,-3.0889,-3.0889,-3.0889,-3.0889,-3.0889,-3.0889,-3.0889,-3.0889,-3.0889,-3.0889,-3.0889,-3.0889,-3.0889,-3.0889,-3.0889,0.0,-3.0889,-3.0889,-3.0889,-3.1276,-3.193,-3.2804,-3.3704,-3.467,-3.5514,-3.6045,-3.6405,0.0,0.0,0.0,0.0,0.0,0.0,0.0,0.0,0.0,0.0,0.0,0.0,0.0,0.0,0.0,0.0,0.0,0.0,0.0,0.0,0.0,0.0,-1.6199,-1.65,-1.65,-1.7551,-1.7865,-1.741,0.0,0.0,0.0,0.0,0.0,0.0,0.0,0.0,0.0,0.0,0.0,0.0,0.0,-1.741,-1.736,0.0,0.0,-1.6726,-1.6713,-1.7927,-1.9913,-2.2284,-2.2874,-2.2686,-2.3283,-2.3264,-2.3454,-2.5609,-2.5428,-2.5029,-2.7162,-2.6276,-2.502,-2.5926,-2.4605,-2.3116,-2.3278,-2.2534,-2.1514,-2.0556,-2.001,-1.967,-1.96,-2.0439,-2.1348,-2.1953,-2.417,-2.6318,-2.7777,-2.8971,-2.9961,-3.0791,-3.0889,-3.0889,-3.0889,-3.0889,-3.0889,-3.0889,-3.0889,-3.0889,-3.0889,-3.0889,-3.0889,-3.0889,-3.0889,-3.0889,-3.0889,-3.0889,-3.0889,-3.0889,-3.0889,-3.0889,-3.0889,-3.0889,-3.0889,-3.0889,0.0,0.0,-3.0889,-3.0889,-3.1767,-3.3124,-3.323,-3.4292,-3.5817,-3.5946,-3.6161,-3.6405,0.0,0.0,0.0,0.0,0.0,0.0,0.0,0.0,0.0,0.0,-1.4588,-1.428,0.0,0.0,0.0,0.0,0.0,0.0,0.0,0.0,0.0,0.0,-1.6199,-1.65,-1.65,-1.7174,-1.7498,-1.741,-1.8116,0.0,0.0,0.0,0.0,0.0,0.0,0.0,0.0,0.0,0.0,0.0,0.0,-1.741,-1.7448,0.0,0.0,0.0,-1.7715,-1.7869,-1.8654,-2.1866,-2.4189,-2.5819,-2.637,-2.7427,-2.8179,-2.6828,-2.6886,-2.7185,-2.6127,-2.5338,-2.4721,-2.4351,-2.3697,-2.2963,-2.231,-2.1724,-2.0859,-1.926,-1.887,-1.8607,-1.7949,-1.9421,-2.1172,-2.2633,-2.4814,-2.6973,-2.901,-2.9726,-3.0293,-3.083,-3.0889,-3.0889,-3.0889,-3.0889,-3.0889,0.0,-3.0889,-3.0889,-3.0889,-3.0889,-3.0889,-3.0889,-3.0889,-3.0889,-3.0889,-3.0889,-3.0889,-3.0889,-3.0889,-3.0889,-3.0889,-3.0889,-3.0889,-3.0889,-3.0889,0.0,-3.0889,-3.0889,-3.1767,-3.3149,-3.389,-3.4846,-3.5895,-3.6673,-3.67,-3.6405,0.0,0.0,0.0,0.0,0.0,0.0,0.0,-1.521,-1.5255,-1.6426,-1.638,-1.6116,-1.5768,-1.5467,-1.5324,0.0,0.0,0.0,0.0,0.0,0.0,0.0,0.0,-1.65,-1.65,-1.7363,-1.7664,-1.741,0.0,-1.8053,-1.7765,-1.7463,-1.7325,-1.7325,-1.7325,-1.7325,-1.7313,-1.7049,0.0,-1.6961,-1.7262,-1.741,0.0,0.0,0.0,0.0,-1.7827,-1.8004,-1.8493,-2.0714,-2.3239,-2.5658,-2.693,-2.764,-2.7879,-2.6812,-2.6461,-2.626,-2.5581,-2.4864,-2.4193,-2.3865,-2.3633,-2.3076,-2.1593,-2.0859,-2.0021,-1.834,-1.7988,-1.7861,-1.7461,-1.876,-2.0361,-2.1592,-2.3623,-2.5791,-2.7939,-2.8984,-2.9873,-3.0781,-3.0889,-3.0889,-3.0889,-3.0889,-3.0889,-3.0889,-3.0889,-3.0889,-3.0889,-3.0889,-3.0889,-3.0889,-3.0889,-3.0889,-3.0889,-3.0889,-3.0889,-3.0889,-3.0889,-3.0889,-3.0889,-3.0889,-3.0889,-3.0889,-3.0889,0.0,-3.2035,-3.2035,-3.336,-3.5386,-3.5535,-3.6152,-3.6982,-3.7134,-3.6878,-3.6405,0.0,0.0,0.0,0.0,0.0,0.0,0.0,-1.5875,-1.611,-1.772,-1.8078,-1.7953,-1.7265,-1.6635,-1.6132,0.0,0.0,0.0,0.0,0.0,0.0,0.0,0.0,-1.65,-1.65,0.0,0.0,-1.741,-1.794,0.0,0.0,0.0,0.0,0.0,-1.65,-1.65,-1.65,-1.65,-1.6563,0.0,0.0,-1.7626,0.0,0.0,0.0,0.0,0.0,-1.765,-1.7924,-1.9242,-2.1088,-2.3176,-2.5119,-2.6046,-2.6307,-2.5962,-2.5202,-2.4661,-2.5351,-2.4678,-2.3809,-2.3906,-2.3857,-2.3223,-2.1104,-2.0156,-1.9297,-1.7598,-1.7246,-1.7246,-1.7246,-1.8281,-1.9492,-2.0576,-2.2129,-2.4121,-2.666,-2.7881,-2.9062,-3.0566,-3.083,-3.0889,-3.0889,-3.0889,0.0,-3.0889,-3.0889,0.0,-3.0889,-3.0889,-3.0889,-3.0889,-3.0889,-3.0889,-3.0889,-3.0889,-3.0889,-3.0889,-3.0889,-3.0889,-3.0889,-3.0889,-3.0889,-3.0889,-3.1218,0.0,0.0,-3.3462,-3.5112,-3.7459,-3.6775,-3.7093,-3.7903,-3.729,-3.6774,-3.6405,0.0,0.0,0.0,0.0,0.0,0.0,0.0,-1.6225,-1.6615,-1.9233,-1.8781,-1.853,-1.9409,-1.8581,-1.7551,0.0,0.0,0.0,0.0,0.0,0.0,0.0,0.0,0.0,0.0,0.0,0.0,-1.741,-1.794,0.0,0.0,0.0,0.0,0.0,0.0,-1.65,-1.65,-1.65,0.0,0.0,0.0,0.0,0.0,0.0,0.0,0.0,0.0,-1.5997,-1.5475,-1.7634,-1.7937,-1.7809,-2.0054,-2.3191,-2.5765,-2.4198,-2.3699,-2.3968,-2.5581,-2.4966,-2.3887,-2.4258,-2.4072,-2.3223,-2.1104,-1.9969,-1.8857,-1.7116,-1.6755,-1.6755,-1.6755,-1.7808,-1.9202,-2.0859,-2.1298,-2.2721,-2.6494,-2.7119,-2.7949,-3.0019,-3.0635,-3.0889,-3.0889,-3.0889,-3.0889,-3.0889,0.0,0.0,-3.0889,-3.0889,-3.0889,-3.0889,-3.0889,-3.0889,-3.0889,-3.0889,-3.0889,-3.0889,-3.0889,-3.0889,-3.0889,-3.0889,-3.0889,-3.0947,-3.2311,0.0,0.0,-3.457,-3.6054,-3.737,-3.6331,-3.6773,-3.7867,-3.6862,-3.6455,-3.6405,0.0,0.0,0.0,0.0,0.0,0.0,-1.6376,-1.6084,-1.6572,-1.8995,-1.9233,-1.9208,-1.9296,-1.9233,-1.8593,-1.7162,0.0,0.0,0.0,0.0,0.0,0.0,0.0,0.0,0.0,0.0,-1.8191,-1.8844,-1.8405,0.0,0.0,0.0,0.0,0.0,0.0,-1.6848,-1.6525,-1.6886,0.0,0.0,0.0,0.0,0.0,0.0,0.0,0.0,0.0,0.0,-1.5292,-1.6206,-1.7011,-1.7606,-1.7683,-1.9521,-2.1728,-2.2025,-2.2784,-2.3688,-2.45,-2.4267,-2.3828,-2.3994,-2.3721,-2.2953,-2.1036,-1.9697,-1.8555,-1.7373,-1.6882,-1.6785,-1.708,-1.7744,-1.8652,-1.9863,-2.0273,-2.1435,-2.4297,-2.5352,-2.6641,-2.8799,-2.9668,-3.0303,0.0,0.0,-3.0889,-3.0889,0.0,0.0,-3.0889,-3.0889,-3.0889,-3.0889,-3.0889,-3.0889,-3.0889,-3.0889,-3.0889,-3.0889,-3.0889,-3.0889,-3.0889,-3.0889,-3.1383,-3.2254,-3.2861,0.0,0.0,-3.6368,-3.7287,-3.8238,-3.7414,-3.7295,-3.7405,-3.6661,-3.6405,-3.6405,0.0,0.0,0.0,0.0,0.0,-1.4943,-1.6292,-1.6052,-1.6559,-1.892,-1.9447,-1.9623,-1.9722,-1.9648,-1.9171,-1.8179,-1.7287,0.0,0.0,0.0,0.0,0.0,0.0,0.0,0.0,0.0,-1.8894,-1.9798,-1.9221,-1.9233,0.0,0.0,-1.8304,-1.7626,0.0,0.0,0.0,0.0,0.0,0.0,0.0,0.0,0.0,0.0,0.0,0.0,0.0,0.0,0.0,0.0,0.0,-1.7202,-1.6198,-1.687,-1.8326,-1.9952,-2.1369,-2.2603,-2.3235,-2.3594,-2.3789,-2.3789,-2.3477,-2.2705,-2.0997,-1.9668,-1.8555,-1.7578,-1.7139,-1.7021,-1.7324,-1.7725,-1.8252,-1.8975,-1.9346,-2.0342,-2.2646,-2.3902,-2.5303,-2.7471,-2.8369,-2.9209,-3.0215,-3.0664,-3.0889,0.0,0.0,0.0,0.0,-3.0889,-3.0889,-3.0889,-3.0889,-3.0889,-3.0889,-3.0889,-3.0889,-3.0889,-3.0889,-3.0889,-3.0889,-3.1325,-3.2092,-3.3134,0.0,0.0,0.0,-3.7726,-3.8187,-3.8567,-3.7978,-3.7529,-3.7143,-3.6586,-3.6405,-3.6405,0.0,0.0,0.0,0.0,0.0,0.0,-1.6746,-1.6257,-1.6685,-1.9434,-1.9321,-1.9635,-2.128,-2.0012,-1.9208,-1.9736,-1.8304,0.0,0.0,0.0,0.0,0.0,0.0,0.0,0.0,0.0,-1.9259,-1.9798,-2.039,-2.0377,-1.9798,-1.9798,-1.9208,-1.8191,0.0,0.0,0.0,0.0,0.0,0.0,0.0,0.0,0.0,0.0,0.0,0.0,0.0,0.0,0.0,0.0,0.0,0.0,0.0,-1.5752,-1.6447,-1.8154,-1.9268,-2.0312,-2.2051,-2.3144,-2.3789,-2.3789,-2.3467,-2.2643,-2.0997,-1.993,-1.8916,-1.7646,-1.7416,-1.7373,-1.7383,-1.7725,-1.8144,-1.8539,-1.8617,-1.9524,-2.2158,-2.29,-2.403,-2.6152,-2.6787,-2.7539,-2.8818,-3.0127,-3.0889,0.0,0.0,0.0,0.0,-3.0889,-3.0889,-3.0889,-3.0889,-3.0889,-3.0889,-3.0889,-3.0889,-3.0889,-3.0889,-3.0889,-3.0947,-3.2426,-3.3077,0.0,0.0,0.0,0.0,-3.8273,-3.853,-3.7977,-3.7404,-3.7207,-3.7134,-3.6589,-3.6405,-3.6405,0.0,0.0,0.0,0.0,0.0,0.0,0.0,-1.5517,-1.6037,-1.736,-1.7765,-1.8392,-1.9635,-1.9321,-1.9208,-1.9761,-1.8656,0.0,0.0,0.0,0.0,0.0,0.0,0.0,0.0,0.0,-2.0413,-2.0953,-2.1142,-2.133,-2.1493,-2.0767,-2.0025,-1.9284,-1.8907,-1.8531,0.0,0.0,0.0,0.0,0.0,0.0,0.0,0.0,0.0,0.0,0.0,0.0,0.0,0.0,0.0,0.0,0.0,0.0,0.0,-1.6631,-1.791,-1.9251,-2.043,-2.1152,-2.1554,-2.1211,-2.1035,-2.0713,-1.9883,-1.9033,-1.8301,-1.79,-1.7578,-1.7471,-1.7764,-1.792,-1.8252,-1.8965,-1.9082,-1.9678,-2.1356,-2.3018,-2.4609,-2.6201,-2.833,-2.9824,0.0,0.0,0.0,0.0,0.0,0.0,0.0,-3.0889,-3.0889,-3.0889,-3.0889,-3.0889,-3.0889,-3.0889,-3.0889,-3.0889,-3.0889,-3.1441,-3.2416,-3.2907,0.0,0.0,0.0,0.0,0.0,-3.8078,-3.7954,-3.7429,-3.7294,-3.697,-3.6651,-3.6458,-3.6405,-3.6405,0.0,0.0,0.0,0.0,0.0,0.0,0.0,-1.519,-1.5579,-1.6641,-1.6945,-1.7639,-1.9133,-1.9121,-1.9296,-2.0062,-1.9321,0.0,0.0,0.0,0.0,0.0,0.0,0.0,0.0,-1.9987,-2.0815,-2.1794,-2.1794,-2.2083,-2.2581,-2.192,-2.1066,-2.0112,-1.9786,-1.9334,0.0,0.0,0.0,0.0,0.0,0.0,0.0,0.0,0.0,0.0,0.0,0.0,0.0,0.0,0.0,0.0,0.0,0.0,0.0,0.0,-1.6858,-1.792,-1.9075,-1.9863,-2.0293,-2.0185,-2.0039,-1.9805,-1.9385,-1.874,-1.8169,-1.8047,-1.7803,-1.7705,-1.7959,-1.8008,-1.8232,-1.8926,-1.918,-1.9805,-2.1279,-2.3037,0.0,-2.6435,0.0,0.0,0.0,0.0,0.0,0.0,0.0,0.0,0.0,-3.0889,-3.0889,-3.0889,-3.0889,-3.0889,-3.0889,-3.0889,-3.0889,-3.0889,-3.0889,-3.1572,-3.2805,-3.3354,0.0,0.0,0.0,0.0,0.0,-3.7705,-3.7369,-3.6914,-3.6894,-3.6703,-3.6405,-3.6405,-3.6405,-3.6405,0.0,0.0,0.0,0.0,0.0,0.0,0.0,-1.5287,-1.5369,-1.694,-1.6794,-1.7365,-1.9523,-1.9309,-1.9434,-2.0528,0.0,0.0,0.0,0.0,0.0,0.0,0.0,0.0,-1.9773,-1.9874,-2.069,-2.2246,-2.2372,-2.2669,-2.3158,-2.3158,-2.2347,-2.0867,-2.0779,-2.0376,0.0,0.0,0.0,0.0,0.0,0.0,0.0,0.0,0.0,0.0,0.0,0.0,0.0,0.0,0.0,0.0,0.0,0.0,0.0,0.0,0.0,0.0,0.0,-1.9017,-1.9775,-2.0194,-1.9961,-1.958,-1.9189,-1.8789,0.0,-1.8037,-1.7969,-1.7978,-1.8047,-1.8057,-1.8203,-1.8617,-1.9072,-1.9941,-2.1689,-2.3164,0.0,0.0,-2.8281,0.0,-2.8975,0.0,0.0,0.0,0.0,0.0,0.0,-3.0889,-3.0869,-3.084,-3.084,-3.0859,-3.0889,-3.0889,-3.0869,-3.084,-3.084,-3.1371,-3.2367,-3.3759,0.0,0.0,0.0,0.0,0.0,-3.7158,-3.6857,-3.6405,-3.6405,-3.6405,-3.6405,-3.6405,-3.6405,-3.6405,0.0,0.0,0.0,0.0,0.0,0.0,0.0,0.0,0.0,0.0,-1.678,-1.7529,-1.9024,-1.9069,-1.9254,0.0,0.0,0.0,0.0,0.0,0.0,0.0,0.0,0.0,-1.9786,-2.0652,-2.128,-2.1681,-2.2975,-2.3665,-2.3791,-2.3791,-2.3351,-2.2493,-2.1669,-2.0429,0.0,0.0,0.0,0.0,0.0,0.0,0.0,0.0,0.0,0.0,-1.5049,-1.5137,0.0,0.0,0.0,0.0,0.0,0.0,0.0,0.0,-1.5566,-1.5732,-1.6465,0.0,-1.7389,-1.721,-1.7305,-1.7428,0.0,-1.7223,-1.7213,-1.748,-1.7529,-1.7725,-1.8334,-1.8451,-1.8705,-1.9455,-1.9697,-2.0381,-2.2119,-2.4902,0.0,-2.834,-2.9629,-3.0166,0.0,0.0,0.0,0.0,0.0,0.0,0.0,-3.0889,-3.0732,-3.0371,-3.0361,-3.0537,-3.0889,-3.0889,-3.0713,-3.0361,-3.0361,-3.1431,-3.3457,-3.3789,0.0,0.0,0.0,0.0,-3.6609,-3.6599,-3.6498,-3.6405,-3.6405,-3.6405,-3.6405,-3.6405,-3.6405,-3.6405,0.0,0.0,0.0,0.0,0.0,0.0,0.0,0.0,0.0,0.0,0.0,0.0,0.0,0.0,0.0,0.0,0.0,0.0,0.0,0.0,0.0,0.0,0.0,-1.9246,-1.9798,-2.0691,-2.1481,-2.2246,-2.3427,-2.4255,-2.4732,-2.4494,-2.3898,-2.3015,-2.1354,-1.972,0.0,0.0,0.0,0.0,0.0,0.0,0.0,0.0,0.0,0.0,-1.4795,-1.4932,0.0,-1.5352,-1.541,-1.541,0.0,0.0,0.0,0.0,-1.541,-1.5469,-1.5703,-1.6387,-1.7021,-1.6963,-1.7139,-1.7291,-1.7291,-1.6989,-1.6765,-1.7031,-1.7246,-1.7578,-1.8198,-1.8637,-1.915,-1.9805,-2.043,0.0,0.0,0.0,-2.7314,-2.875,-2.9726,0.0,0.0,0.0,0.0,0.0,0.0,0.0,0.0,-3.0283,-3.0176,-2.9912,-2.9912,-3.0029,-3.0283,-3.088,-3.1079,-3.0873,-3.1464,-3.2663,-3.4326,-3.435,-3.5274,0.0,0.0,0.0,-3.6405,-3.6405,-3.6405,-3.6405,-3.6405,-3.6405,-3.6405,-3.6405,-3.6405,-3.6405,0.0,0.0,0.0,0.0,0.0,0.0,0.0,0.0,0.0,0.0,0.0,0.0,0.0,0.0,0.0,0.0,0.0,0.0,0.0,0.0,0.0,0.0,0.0,-1.9397,-1.9924,-2.0528,-2.1518,-2.2982,-2.3753,-2.4594,-2.5473,-2.5197,-2.4305,-2.2822,-2.0423,-1.8632,0.0,0.0,0.0,0.0,0.0,0.0,0.0,0.0,0.0,0.0,0.0,0.0,0.0,-1.5195,-1.5361,-1.541,-1.541,0.0,0.0,0.0,0.0,0.0,-1.5547,-1.6572,-1.7598,-1.7686,-1.7812,-1.79,-1.7832,-1.7223,-1.6716,-1.6785,-1.7129,-1.7568,-1.8193,-1.8838,-1.9473,-2.0019,0.0,0.0,-2.5028,-2.5762,-2.6777,-2.8525,-2.9277,0.0,0.0,0.0,0.0,0.0,0.0,0.0,0.0,-2.9626,-2.9597,-2.9473,-2.9473,-2.9545,-2.9688,-3.0987,-3.165,-3.1847,-3.2948,-3.401,-3.4928,-3.4922,-3.5473,0.0,0.0,0.0,-3.6405,-3.6405,-3.6405,-3.6405,-3.6405,-3.6405,-3.6405,-3.6405,-3.6355,-3.6267,0.0,0.0,0.0,0.0,0.0,0.0,0.0,0.0,0.0,0.0,0.0,0.0,0.0,0.0,0.0,0.0,0.0,0.0,0.0,0.0,0.0,-2.0566,-1.9987,-1.9949,-2.0541,-2.1106,-2.1719,-2.2406,-2.3954,-2.475,-2.4926,-2.5812,-2.4801,-2.2034,-1.9421,-1.7662,-1.6624,0.0,0.0,0.0,0.0,0.0,0.0,0.0,0.0,0.0,0.0,0.0,0.0,-1.4863,-1.5117,-1.541,-1.541,0.0,0.0,0.0,0.0,0.0,-1.6297,-1.7438,-1.8081,-1.6741,-1.6956,-1.7383,-1.698,-1.6794,-1.6804,-1.7207,-1.7334,-1.7842,-1.9346,-1.9443,-1.9668,-2.08,0.0,-2.4131,0.0,0.0,-2.7891,-2.7914,0.0,0.0,0.0,0.0,0.0,0.0,0.0,0.0,0.0,-2.9626,-2.9404,-2.9033,-2.9023,-2.9361,-3.0171,-3.1143,-3.202,-3.2778,-3.2986,-3.3599,-3.4467,-3.4495,-3.5219,0.0,0.0,-3.6405,-3.6405,-3.6405,-3.6405,-3.6405,-3.6405,-3.6405,-3.6405,-3.6405,-3.6069,-3.5558,0.0,0.0,0.0,0.0,0.0,0.0,0.0,0.0,0.0,0.0,0.0,0.0,0.0,0.0,0.0,0.0,0.0,0.0,0.0,0.0,0.0,-2.0691,-2.0717,-2.0702,-2.0691,-2.1794,-2.2661,-2.3226,-2.4582,-2.5398,-2.5699,-2.5343,-2.3499,-2.0475,-1.8967,-1.7403,-1.5892,-1.5555,0.0,0.0,0.0,0.0,0.0,0.0,0.0,0.0,0.0,0.0,0.0,0.0,-1.4912,-1.5117,-1.5342,0.0,0.0,0.0,0.0,0.0,-1.5878,-1.6941,-1.7822,-1.7256,-1.8149,-1.9089,-1.8848,-1.8447,-1.8105,-1.8066,-1.8252,-1.8721,-1.9727,-2.0342,-2.1348,-2.3296,0.0,-2.4394,-2.6143,-2.6689,-2.71,0.0,0.0,0.0,0.0,0.0,0.0,0.0,0.0,0.0,0.0,0.0,-2.9149,-2.966,-2.966,-3.058,-3.2504,-3.2903,-3.3322,-3.3762,-3.4509,-3.504,-3.5475,-3.5502,-3.5828,-3.6405,0.0,-3.6405,-3.6405,-3.6405,-3.6191,-3.5911,-3.5893,-3.5742,-3.5479,-3.5479,-3.5316,-3.5019,0.0,0.0,0.0,0.0,0.0,0.0,0.0,0.0,0.0,0.0,0.0,0.0,0.0,0.0,0.0,0.0,0.0,0.0,0.0,0.0,-2.0754,-2.088,-2.1393,-2.1543,-2.1282,-2.2456,-2.3459,-2.4192,-2.5134,-2.5858,-2.626,-2.4431,-2.2102,-1.9448,-1.8493,-1.7074,-1.541,-1.541,-1.541,0.0,0.0,0.0,0.0,0.0,0.0,0.0,0.0,0.0,0.0,0.0,0.0,0.0,0.0,0.0,0.0,-1.541,-1.5342,-1.5332,-1.5605,-1.6455,-1.7383,-1.8008,-1.9072,-2.0136,-2.0644,-1.9971,-1.9307,-1.9348,-1.9792,-2.019,-2.0331,-2.1279,0.0,-2.5011,-2.4766,-2.4853,-2.6592,-2.6553,0.0,0.0,0.0,0.0,0.0,0.0,0.0,0.0,0.0,0.0,0.0,0.0,-2.9355,-3.0721,-3.0773,-3.1938,-3.4385,-3.4385,-3.4581,-3.4872,-3.5918,-3.6405,-3.6405,-3.6405,-3.6339,-3.6197,-3.62,-3.6137,-3.5999,-3.6003,-3.5713,-3.5307,-3.5316,-3.5044,-3.4655,-3.4575,-3.4525,-3.4512,0.0,0.0,0.0,0.0,0.0,0.0,0.0,0.0,0.0,0.0,0.0,0.0,0.0,0.0,0.0,0.0,0.0,0.0,0.0,0.0,-2.0918,-2.1405,-2.1958,-2.2443,-2.292,-2.3045,-2.3634,-2.4725,-2.5322,-2.5611,-2.5615,-2.3367,-2.1503,-1.9965,-1.7802,-1.6303,-1.541,-1.541,-1.541,-1.541,-1.541,0.0,0.0,0.0,0.0,0.0,0.0,0.0,0.0,0.0,0.0,0.0,0.0,0.0,-1.541,-1.541,-1.5137,-1.5098,-1.6278,-1.6677,-1.7038,-1.8247,-1.8354,-1.8721,-2.0693,-2.0195,-1.9736,-2.1328,-2.2188,-2.2439,-2.1855,-2.2139,-2.292,-2.4287,-2.5079,-2.6152,0.0,0.0,0.0,0.0,0.0,0.0,0.0,0.0,0.0,0.0,0.0,0.0,0.0,0.0,0.0,-3.2129,-3.218,-3.2905,-3.4385,-3.4385,-3.5017,-3.6263,-3.6358,-3.6405,-3.6405,-3.6405,-3.6105,-3.5562,-3.557,-3.5259,-3.4806,-3.4796,-3.4813,-3.4776,-3.4776,-3.4705,-3.4663,-3.4148,-3.396,-3.3884,0.0,0.0,0.0,0.0,0.0,0.0,0.0,0.0,0.0,0.0,0.0,0.0,0.0,0.0,0.0,0.0,0.0,0.0,0.0,-1.9823,-2.0415,-2.0981,-2.1506,-2.2058,-2.2581,-2.3609,-2.4525,-2.531,-2.5498,-2.5435,-2.5064,-2.2994,-2.1158,-1.952,-1.7794,-1.6578,-1.5831,-1.5527,-1.5566,-1.5821,-1.5518,0.0,0.0,0.0,0.0,0.0,0.0,0.0,0.0,0.0,-1.4007,-1.4377,-1.4533,-1.4952,-1.5361,-1.5098,-1.4912,-1.4921,-1.5391,-1.6799,-1.8099,-1.7892,-1.8827,-2.0135,-2.1361,-2.2251,-2.2898,-2.3165,-2.455,-2.5352,-2.4075,-2.3737,-2.3945,-2.4697,-2.5781,0.0,0.0,0.0,0.0,0.0,0.0,0.0,0.0,0.0,0.0,0.0,0.0,0.0,0.0,0.0,0.0,-3.2514,-3.2551,-3.3185,-3.4576,-3.4576,-3.4823,-3.5344,-3.6047,-3.6191,-3.5823,-3.5835,-3.5535,-3.4997,-3.4983,-3.4868,-3.469,-3.4688,-3.4512,-3.4173,-3.3834,-3.3709,-3.3671,-3.347,-3.3382,-3.3357,0.0,0.0,0.0,0.0,0.0,0.0,0.0,0.0,0.0,0.0,0.0,0.0,0.0,0.0,0.0,0.0,0.0,0.0,-1.8528,-1.9321,-1.9974,-2.0402,-2.1119,-2.1744,-2.2297,-2.3584,-2.4556,-2.5084,-2.5259,-2.4941,-2.4102,-2.279,-2.1051,-1.9033,-1.7933,-1.694,-1.6065,-1.5596,-1.5586,-1.586,-1.5527,-1.5244,0.0,0.0,0.0,0.0,0.0,0.0,0.0,0.0,-1.3675,-1.3958,-1.4221,-1.4746,-1.5156,-1.4873,-1.4999,-1.5272,-1.5565,-1.6928,-1.8374,-1.8692,-1.9842,-2.1307,-2.2854,-2.3908,-2.4734,-2.5338,-2.6224,-2.6781,-2.6376,-2.5148,-2.4542,0.0,-2.6613,0.0,0.0,0.0,0.0,0.0,0.0,0.0,0.0,0.0,0.0,0.0,0.0,0.0,0.0,0.0,0.0,0.0,-3.3327,-3.3753,-3.468,-3.468,-3.469,-3.4707,-3.5504,-3.5667,-3.5231,-3.5251,-3.4958,-3.4438,-3.4452,-3.4357,-3.4198,-3.4198,-3.3985,-3.3608,-3.3219,-3.3124,-3.3124,-3.3124,-3.3124,-3.3124,0.0,0.0,0.0,0.0,0.0,0.0,0.0,0.0,0.0,0.0,0.0,0.0,0.0,0.0,0.0,0.0,0.0,0.0,-1.741,-1.8882,-1.9786,-1.9798,-2.0865,-2.1732,-2.2243,-2.2794,-2.3371,-2.4004,-2.4544,-2.4077,-2.2682,-2.2682,-2.12,-1.8575,-1.8165,-1.7277,-1.6065,-1.5596,-1.541,-1.542,-1.541,-1.541,0.0,0.0,0.0,0.0,0.0,0.0,0.0,0.0,-1.3506,-1.3662,-1.4512,-1.4813,-1.4785,-1.4813,-1.541,-1.6287,-1.7219,-1.7114,-1.7533,-2.0938,-2.136,-2.1837,-2.5228,-2.4836,-2.4669,-2.7955,-2.7052,-2.6324,-2.8675,-2.6228,0.0,-2.6601,0.0,0.0,0.0,0.0,0.0,0.0,0.0,0.0,0.0,0.0,0.0,0.0,0.0,0.0,0.0,0.0,0.0,0.0,-3.4655,-3.4655,-3.4655,-3.4655,-3.4665,-3.467,-3.4697,-3.4666,-3.4688,-3.4694,-3.4401,-3.3895,-3.3878,-3.3583,-3.3124,-3.3124,-3.3124,-3.3124,-3.3124,-3.3124,-3.3124,-3.3124,-3.3124,-3.3124,0.0,0.0,0.0,0.0,0.0,0.0,0.0,0.0,0.0,0.0,0.0,0.0,0.0,0.0,0.0,0.0,0.0,0.0,-1.7418,-1.7863,-1.8442,-1.9196,-1.9559,-1.9973,-2.0539,-2.1104,-2.2246,-2.4004,-2.3722,-2.3096,-2.2103,-2.112,-1.9765,-1.8154,-1.7418,-1.6723,-1.6065,-1.5596,-1.5586,-1.587,-1.5537,-1.541,-1.5284,0.0,0.0,0.0,0.0,0.0,0.0,0.0,0.0,0.0,-1.3799,-1.4502,-1.5107,-1.4475,-1.4932,-1.5527,-1.5189,-1.7402,-1.9818,-1.9831,-2.2717,-2.5832,-2.6862,-2.7327,-2.8316,-3.116,-2.974,-2.8259,-2.9451,-2.8398,0.0,-2.769,0.0,0.0,0.0,0.0,0.0,0.0,0.0,0.0,0.0,0.0,0.0,0.0,0.0,0.0,0.0,0.0,0.0,0.0,-3.3558,-3.3558,-3.3558,-3.3558,-3.3596,-3.3558,-3.3564,-3.3778,-3.4147,-3.4127,-3.3857,-3.3354,-3.3325,-3.3275,-3.3124,-3.3124,-3.3124,-3.3124,-3.3124,-3.3124,-3.3124,-3.3124,-3.3124,-3.3124,0.0,0.0,0.0,0.0,0.0,0.0,0.0,0.0,0.0,0.0,0.0,0.0,0.0,0.0,0.0,0.0,0.0,0.0,0.0,-1.7272,-1.7777,-1.8644,-1.8895,-1.9359,-2.0125,-2.0729,-2.1571,-2.2703,-2.2241,-2.162,-2.078,-2.0143,-1.9118,-1.7747,-1.7558,-1.6934,-1.6065,-1.5596,-1.5469,-1.5566,-1.5273,-1.5156,-1.5088,0.0,0.0,0.0,0.0,0.0,0.0,0.0,0.0,0.0,-1.3457,-1.4043,-1.4731,-1.5096,-1.5778,-1.6655,-1.7725,-1.9847,-2.2011,-2.274,-2.5263,-2.7861,-2.9154,-2.9902,-3.0876,-3.2732,-3.1198,-2.9876,-3.0992,-2.9858,0.0,0.0,0.0,0.0,0.0,0.0,0.0,0.0,0.0,0.0,0.0,0.0,0.0,0.0,0.0,0.0,0.0,0.0,0.0,0.0,-3.3124,-3.3124,-3.3124,-3.3124,-3.3124,-3.3124,-3.3124,-3.3282,-3.3571,-3.3568,-3.3422,-3.3124,-3.3124,-3.3124,-3.3124,-3.3124,-3.3124,-3.3124,-3.3124,-3.3124,-3.3124,-3.3124,-3.3124,-3.3124,0.0,0.0,0.0,0.0,0.0,0.0,0.0,0.0,0.0,0.0,-1.9657,0.0,0.0,0.0,0.0,0.0,0.0,0.0,0.0,0.0,-1.7626,-1.8179,-1.8807,-1.966,-2.0742,-2.1207,-2.1167,-2.0611,-2.0407,-1.9878,-1.9056,-1.9488,-1.8859,-1.739,-1.8066,-1.7502,-1.6007,-1.5498,-1.5078,-1.4727,-1.4727,-1.4727,-1.4678,-1.4211,0.0,0.0,0.0,0.0,0.0,0.0,0.0,0.0,-1.3379,-1.3535,-1.3961,-1.5993,-1.727,-1.881,-2.2374,-2.3186,-2.394,-2.7705,-2.8244,-2.8621,-3.1497,-3.2139,-3.2315,-3.2955,-3.1902,-3.1307,-3.2796,-3.0954,-2.9663,0.0,0.0,0.0,0.0,0.0,0.0,0.0,0.0,0.0,0.0,0.0,0.0,0.0,0.0,0.0,0.0,0.0,0.0,0.0,-3.3124,-3.3124,-3.3124,-3.3124,-3.3074,0.0,-3.3023,-3.2998,-3.2948,-3.3061,-3.3124,-3.3124,-3.3124,-3.3124,-3.3124,-3.3061,-3.3006,-3.2993,-3.2943,-3.2973,-3.293,-3.298,-3.3006,-3.3048,0.0,0.0,0.0,0.0,0.0,0.0,0.0,0.0,0.0,0.0,0.0,0.0,0.0,0.0,0.0,0.0,0.0,0.0,0.0,0.0,-1.7626,-1.8179,-1.956,-2.0654,-2.1292,-2.1031,-2.0521,-1.9839,-1.9781,-1.9324,-1.8465,-1.8326,-1.7739,-1.6855,-1.6712,-1.6217,-1.5498,-1.4708,-1.4328,-1.425,-1.425,-1.425,-1.4202,-1.3782,-1.3584,0.0,0.0,0.0,0.0,0.0,0.0,0.0,-1.3379,-1.3714,-1.4011,-1.4188,-1.6097,-1.828,-1.8876,-2.1553,-2.4575,-2.636,-2.8396,-3.0231,-3.132,-3.1574,-3.1851,-3.291,-3.2796,-3.266,-3.3013,-3.2568,0.0,0.0,0.0,0.0,0.0,0.0,0.0,0.0,0.0,0.0,0.0,0.0,0.0,0.0,0.0,0.0,0.0,0.0,0.0,-3.3124,-3.3124,-3.3124,-3.3124,-3.3124,-3.2844,0.0,-3.2398,-3.218,-3.1807,-3.2689,-3.3124,-3.3124,-3.3124,-3.3124,-3.3043,-3.2591,-3.2403,-3.2353,-3.1926,-3.175,-3.18,-3.224,-3.2403,-3.2466,0.0,0.0,0.0,0.0,0.0,0.0,0.0,0.0,0.0,0.0,0.0,0.0,0.0,0.0,0.0,0.0,0.0,0.0,0.0,-1.666,-1.7338,-1.8166,-1.9811,-2.0691,-2.0677,-2.0401,-1.992,-1.917,-1.8557,-1.808,-1.777,-1.744,-1.7206,-1.7021,-1.6582,-1.6025,-1.5352,-1.4475,-1.3997,-1.3802,-1.3802,-1.3685,-1.3506,-1.3291,-1.3076,-1.2847,-1.2646,0.0,0.0,0.0,0.0,0.0,0.0,0.0,-1.3716,-1.4588,-1.5955,-1.7687,-2.0026,-2.2518,-2.5114,-2.7667,-2.947,-3.0758,-3.1273,-3.1386,-3.1562,-3.2152,-3.2478,-3.2754,-3.3074,0.0,0.0,0.0,0.0,0.0,0.0,0.0,0.0,0.0,0.0,0.0,0.0,0.0,0.0,0.0,0.0,0.0,0.0,-3.2265,-3.2265,-3.2265,-3.2294,-3.2314,-3.2314,-3.2286,-3.2142,-3.183,-3.1835,-3.1678,-3.1423,-3.2034,-3.2265,-3.2265,-3.2265,-3.2265,-3.2252,-3.1951,-3.1813,-3.1788,-3.1499,-3.1386,-3.1424,-3.1712,-3.1813,-3.1863,0.0,0.0,0.0,0.0,0.0,0.0,0.0,0.0,0.0,0.0,0.0,0.0,0.0,0.0,0.0,0.0,0.0,0.0,0.0,-1.6308,-1.7174,-1.8292,-1.9686,-2.0226,-1.9811,-1.971,-1.9363,-1.8688,-1.7341,-1.6956,-1.7393,-1.6925,-1.6963,-1.7396,-1.6846,-1.6132,-1.5313,-1.4309,-1.3646,-1.3281,-1.3203,-1.2959,-1.268,-1.268,-1.2422,-1.2086,-1.2086,-1.2393,-1.2773,-1.2773,0.0,0.0,0.0,0.0,-1.3283,-1.5148,-1.5978,-1.7241,-2.1666,-2.3836,-2.5711,-2.9399,-3.0394,-3.0583,-3.1022,-3.111,-3.1135,-3.1235,-3.1687,-3.224,0.0,0.0,0.0,0.0,0.0,0.0,0.0,0.0,0.0,0.0,0.0,0.0,0.0,0.0,0.0,0.0,0.0,0.0,-3.1386,-3.1386,-3.1411,-3.1408,-3.1394,-3.1386,-3.1386,-3.1405,-3.1357,-3.1255,-3.1177,-3.112,-3.111,-3.111,-3.121,-3.1386,-3.1386,-3.1386,-3.1386,-3.1298,-3.1248,-3.1248,-3.1148,-3.111,-3.1135,-3.1223,-3.1248,-3.1273,0.0,0.0,0.0,0.0,0.0,0.0,0.0,0.0,0.0,0.0,-1.8214,-1.7597,-1.7415,-1.6512,0.0,0.0,0.0,0.0,-1.5706,0.0,0.0,-1.8845,-1.9108,-1.9396,-1.9798,-1.9334,-1.898,-1.8688,-1.7088,-1.6978,-1.8301,-1.7214,-1.6963,-1.7344,-1.6555,-1.5879,-1.5312,-1.3721,-1.2793,-1.234,-1.1995,-1.1809,-1.176,-1.176,-1.1721,-1.1672,-1.1672,-1.1934,-1.2291,-1.2291,-1.2568,0.0,0.0,0.0,-1.2959,-1.3249,-1.5116,-1.7296,-1.8481,-2.2442,-2.6686,-2.865,-2.9528,-2.9917,-2.9993,-3.0005,-3.0143,0.0,-3.1135,0.0,0.0,0.0,0.0,0.0,0.0,0.0,0.0,0.0,0.0,0.0,0.0,0.0,0.0,0.0,0.0,0.0,0.0,0.0,-3.1386,-3.1386,-3.1405,-3.1386,-3.1401,-3.1395,-3.1395,-3.1399,-3.117,-3.0687,-3.025,-3.0019,-3.0005,-3.0005,-3.052,-3.1386,-3.1386,-3.1386,-3.1348,-3.0909,-3.0721,-3.067,-3.0193,-3.0005,-3.0068,-3.0545,-3.0721,-3.0783,0.0,0.0,0.0,0.0,0.0,0.0,0.0,0.0,0.0,0.0,0.0,-1.7731,-1.7338,-1.6337,0.0,0.0,0.0,0.0,-1.5248,-1.6283,0.0,0.0,-1.8205,-1.853,-1.8455,-1.7879,-1.7349,-1.6795,-1.5757,-1.602,-1.7461,-1.6943,-1.7344,-1.8398,-1.7041,-1.6191,-1.5694,-1.3955,-1.2842,-1.2184,-1.2012,-1.2363,-1.2871,-1.1682,-1.1943,-1.2842,-1.1631,-1.1484,-1.1895,-1.2125,-1.234,-1.2559,-1.2827,0.0,0.0,0.0,-1.4244,-1.5865,-1.8944,-2.2616,-2.6088,-2.8324,-2.9076,-2.939,-2.9716,-2.9792,-2.9867,-3.0105,0.0,0.0,0.0,0.0,0.0,0.0,0.0,0.0,0.0,0.0,0.0,0.0,0.0,0.0,0.0,0.0,0.0,0.0,0.0,-3.0495,-3.0495,-3.0495,-3.0505,-3.0486,-3.0505,-3.0495,-3.0495,-3.0495,-3.0385,-3.0136,-2.9919,-2.9792,-2.9792,-2.9792,-3.0055,-3.0495,-3.0495,-3.0495,-3.0482,-3.0244,-3.0156,-3.0131,-2.9892,-2.9792,-2.9829,-3.0068,-3.0156,-3.0193,0.0,0.0,0.0,0.0,0.0,0.0,0.0,0.0,0.0,0.0,0.0,0.0,-1.7178,0.0,0.0,0.0,0.0,0.0,-1.4884,0.0,0.0,0.0,0.0,-1.7375,-1.6983,-1.6534,-1.5942,-1.5232,-1.4741,-1.5341,-1.6971,-1.7133,-1.8087,-1.9541,-1.793,-1.6846,-1.6153,-1.4512,-1.3398,-1.2691,-1.2691,-1.3256,-1.3977,-1.2808,-1.3555,-1.4884,-1.2555,-1.2183,-1.2771,-1.2325,-1.2281,-1.2408,-1.2646,-1.2715,0.0,0.0,0.0,-1.4682,-1.9214,-2.195,-2.4211,-2.712,-2.8161,-2.8699,0.0,0.0,-2.9792,0.0,0.0,0.0,0.0,0.0,0.0,0.0,0.0,0.0,0.0,0.0,0.0,0.0,0.0,0.0,0.0,0.0,0.0,0.0,0.0,-2.9792,-2.9792,-2.9792,-2.9792,-2.9792,-2.9792,-2.9792,-2.9792,-2.9792,-2.9792,-2.9792,-2.9792,-2.9792,-2.9792,-2.9792,-2.9792,-2.9792,-2.9792,-2.9792,-2.9792,-2.9792,-2.9792,-2.9792,-2.9792,-2.9792,-2.9792,-2.9792,-2.9792,-2.9792,0.0,0.0,0.0,0.0,0.0,0.0,0.0,0.0,0.0,0.0,0.0,0.0,-1.6595,-1.5575,-1.4921,-1.4896,0.0,0.0,0.0,0.0,0.0,0.0,0.0,0.0,-1.5781,-1.5756,-1.5484,-1.5016,-1.4676,-1.5624,-1.777,-1.8406,-1.9339,-2.0478,-1.9121,-1.7818,-1.658,-1.5283,-1.4453,-1.4007,-1.4007,-1.4046,-1.428,-1.581,-1.7144,-1.7794,-1.4964,-1.4885,-1.5747,-1.309,-1.25,-1.2783,-1.2369,-1.2242,-1.227,0.0,0.0,0.0,-1.7568,-1.9196,-2.0865,-2.4173,-2.6214,-2.7657,0.0,0.0,0.0,0.0,0.0,0.0,0.0,0.0,0.0,0.0,0.0,0.0,0.0,0.0,0.0,0.0,0.0,0.0,0.0,0.0,0.0,0.0,0.0,-2.9792,-2.9792,-2.9792,-2.9792,-2.9792,-2.9792,-2.9792,-2.9792,-2.9792,-2.9792,-2.9792,-2.9792,-2.9792,-2.9792,-2.9792,-2.9792,-2.9792,-2.9792,-2.9792,-2.9792,-2.9792,-2.9792,-2.9792,-2.9792,-2.9792,-2.9792,-2.9792,-2.9792,-2.9792,0.0,0.0,0.0,0.0,0.0,0.0,0.0,0.0,0.0,0.0,0.0,0.0,0.0,-1.5349,-1.4765,-1.4412,-1.3866,0.0,0.0,0.0,0.0,0.0,0.0,0.0,-1.5693,-1.5036,-1.4397,-1.3843,-1.3335,-1.4119,-1.6071,-1.6431,-1.7355,-1.8677,-1.9049,-1.8566,-1.7399,-1.5576,-1.4531,-1.4177,-1.5116,-1.6384,-1.7653,-1.7345,-1.8986,-2.1072,-1.7961,-1.6975,-1.6995,-1.6277,-1.5225,-1.4143,-1.3891,-1.3566,-1.3226,-1.2903,-1.3898,-1.5377,-1.6732,-1.8168,-1.991,-2.2531,-2.4469,-2.5988,-2.7092,-2.8323,-2.9239,0.0,0.0,0.0,0.0,0.0,0.0,0.0,0.0,0.0,0.0,0.0,0.0,0.0,0.0,0.0,0.0,0.0,0.0,0.0,0.0,0.0,-2.9792,-2.9792,-2.9792,-2.9792,-2.9792,-2.9792,-2.9792,-2.9792,-2.9792,-2.9792,-2.9792,-2.9792,-2.9792,-2.9792,-2.9792,-2.9792,-2.9792,-2.9792,-2.9792,-2.9792,-2.9792,-2.9792,-2.9792,-2.9792,-2.9792,-2.9792,-2.9792,-2.9792,0.0,0.0,0.0,0.0,0.0,0.0,0.0,0.0,-1.8302,-1.8125,0.0,0.0,0.0,0.0,-1.4871,-1.4166,-1.3727,-1.3416,-1.321,-1.3584,0.0,0.0,0.0,0.0,-1.5693,-1.4819,-1.4006,-1.3225,-1.2935,-1.3495,-1.4849,-1.5794,-1.6751,-1.7652,-1.8579,-1.8522,-1.7695,-1.6113,-1.5186,-1.4928,-1.6678,-1.8175,-1.9394,-1.9784,-2.1516,-2.341,-2.0881,-1.982,-1.9592,-1.9123,-1.7878,-1.6352,-1.5355,-1.4303,-1.3371,-1.3002,-1.3972,-1.5248,-1.5613,-1.6773,-1.8456,-2.0865,-2.2309,-2.3715,-2.5984,0.0,-2.7985,0.0,0.0,0.0,0.0,0.0,0.0,0.0,0.0,0.0,0.0,0.0,0.0,0.0,0.0,0.0,0.0,0.0,0.0,0.0,0.0,0.0,-2.9792,-2.9792,-2.9792,-2.9792,-2.9792,-2.9792,-2.9792,-2.9792,-2.9792,-2.9792,-2.9792,-2.9792,-2.9792,-2.9792,-2.9792,-2.9792,-2.9792,-2.9792,-2.9792,-2.9792,-2.9792,-2.9792,-2.9792,-2.9792,-2.9792,-2.9792,-2.9792,-2.9792,0.0,0.0,0.0,0.0,0.0,0.0,0.0,0.0,-1.8688,-1.8185,0.0,0.0,0.0,0.0,0.0,-1.4242,-1.4141,-1.3871,-1.3261,-1.321,0.0,0.0,0.0,0.0,-1.568,-1.5153,-1.4372,-1.3324,-1.3615,-1.3923,-1.431,-1.6693,-1.7722,-1.7626,-1.7744,-1.7633,-1.7311,-1.6848,-1.6447,-1.6324,-1.8604,-1.9199,-1.9178,-2.3268,-2.4868,-2.4791,-2.3674,-2.3569,-2.3651,-2.1444,-2.0259,-1.9252,-1.6566,-1.4264,-1.255,-1.255,-1.33,-1.4128,0.0,0.0,0.0,-1.902,0.0,0.0,-2.528,0.0,0.0,0.0,0.0,0.0,0.0,0.0,0.0,0.0,0.0,0.0,0.0,0.0,0.0,0.0,0.0,0.0,0.0,0.0,0.0,0.0,0.0,-2.9792,-2.9792,-2.9792,-2.9792,-2.9792,-2.9792,-2.9792,-2.9792,-2.9792,-2.9792,-2.9792,-2.9792,-2.9792,-2.9792,-2.9792,-2.9792,-2.9792,-2.9792,-2.9792,-2.9792,-2.9792,-2.9792,-2.9792,-2.9792,-2.9792,-2.9792,-2.9792,-2.9792,-2.9792,0.0,0.0,0.0,0.0,0.0,-2.147,-2.0793,-1.9363,-1.8283,0.0,0.0,0.0,-1.604,-1.5781,-1.5567,-1.5286,-1.4896,-1.445,-1.3896,-1.3428,-1.3546,-1.4286,-1.4689,-1.5148,-1.568,-1.4799,-1.4176,-1.3875,-1.3161,-1.3057,-1.3596,-1.4471,-1.5242,-1.5901,-1.5832,-1.576,-1.5652,-1.5638,-1.6036,-1.6937,-1.9242,-2.0851,-2.2195,-2.4515,-2.6638,-2.8262,-2.7152,-2.6323,-2.5738,-2.5506,-2.3188,-1.9934,-1.7151,-1.5077,-1.3648,-1.3648,-1.4138,-1.4588,-1.4217,0.0,0.0,0.0,0.0,0.0,0.0,0.0,0.0,0.0,0.0,0.0,0.0,0.0,0.0,0.0,0.0,0.0,0.0,0.0,0.0,0.0,0.0,0.0,0.0,0.0,0.0,0.0,-2.9792,-2.9792,-2.9792,-2.9792,-2.9792,-2.9792,-2.9792,-2.9792,-2.9792,-2.9792,-2.9792,-2.9792,-2.9792,-2.9792,-2.9792,-2.9792,-2.9792,-2.9792,-2.9792,-2.9792,-2.9792,-2.9792,-2.9792,-2.9792,-2.9792,-2.9792,-2.9792,-2.9792,-2.9792,-2.9792,0.0,0.0,0.0,-2.2448,-2.2194,-2.1874,-2.1231,-2.0063,-1.9186,0.0,0.0,0.0,-1.6832,-1.6735,-1.6559,-1.6082,-1.553,-1.4916,-1.4154,-1.3765,-1.3727,-1.4091,-1.4614,-1.5148,-1.568,-1.5093,-1.4658,-1.4438,-1.3538,-1.3162,-1.3277,-1.3694,-1.4184,-1.474,-1.4658,-1.4761,-1.4945,-1.4802,-1.546,-1.6862,-2.0111,-2.1961,-2.2985,-2.5645,-2.7381,-2.8411,-2.8436,-2.7896,-2.7231,-2.7783,-2.5021,-2.0968,-1.8618,-1.6597,-1.5009,-1.4563,-1.4959,-1.5412,-1.4639,-1.5286,-1.6208,-1.6358,0.0,0.0,-1.956,-2.0487,0.0,0.0,0.0,0.0,0.0,0.0,0.0,0.0,0.0,0.0,0.0,0.0,0.0,0.0,0.0,0.0,0.0,0.0,0.0,-2.9792,-2.9792,-2.9792,-2.9792,-2.9792,-2.9792,-2.9792,-2.9792,-2.9792,-2.9792,-2.9792,-2.9792,-2.9792,-2.9792,-2.9792,-2.9792,-2.9792,-2.9792,-2.9792,-2.9792,-2.9792,-2.9792,-2.9792,-2.9792,-2.9792,-2.9792,-2.9792,-2.9792,-2.9792,-2.9792,-2.9792,0.0,0.0,-2.3056,-2.1994,-2.2239,-2.2418,-2.1874,-2.1231,-2.0584,0.0,-1.9418,-1.8923,-1.8527,-1.8367,-1.789,-1.6864,-1.617,-1.5361,-1.4337,-1.4166,-1.4078,-1.3997,-1.4525,-1.5035,-1.5512,-1.5567,-1.5349,-1.4815,-1.4324,-1.379,-1.321,-1.3752,-1.3997,-1.3997,-1.3997,-1.4261,-1.4683,-1.44,-1.5034,-1.6624,-2.0843,-2.2426,-2.2671,-2.6536,-2.7519,-2.7052,-2.8499,-2.8662,-2.8247,-2.8512,-2.6038,-2.2447,-2.0577,-1.8643,-1.6823,-1.555,-1.5932,-1.6538,-1.5475,-1.5575,-1.6183,-1.7084,-1.6279,0.0,-1.9987,-1.9861,-1.991,0.0,0.0,0.0,0.0,0.0,0.0,0.0,0.0,0.0,0.0,0.0,0.0,0.0,0.0,0.0,0.0,-2.9792,-2.9792,-2.9792,-2.9742,-2.9692,-2.9717,-2.9679,-2.9691,-2.9691,-2.9691,-2.9729,-2.9792,-2.9666,-2.9641,-2.9691,-2.9691,-2.9666,-2.9616,-2.9729,-2.9754,-2.9691,-2.9767,-2.9792,-2.9792,-2.9792,-2.9792,-2.9792,-2.9792,-2.9792,-2.9792,-2.9792,-2.9792,-2.9792,0.0,-2.144,-2.2158,-2.2463,-2.2179,-2.2024,-2.2448,-2.1125,-2.0045,-1.9923,-1.9393,-1.9308,-2.0113,-1.9397,-1.8757,-1.8531,-1.7177,-1.607,-1.5437,-1.4576,-1.3883,-1.3403,-1.3941,-1.4299,-1.4412,-1.484,-1.4783,-1.4267,-1.4154,-1.379,-1.3198,-1.3328,-1.3378,-1.3378,-1.3378,-1.3428,-1.3616,-1.4852,-1.6309,-1.7933,-1.9688,-2.1797,-2.4124,-2.6549,-2.8147,-2.9189,-2.9503,-2.9252,-2.8549,-2.7356,-2.6399,-2.5154,-2.2108,-2.0865,-2.0037,-1.7624,-1.7677,-1.8268,-1.7187,-1.7287,-1.7551,-1.6861,-1.7124,0.0,-1.6936,-1.7626,-1.8682,0.0,0.0,0.0,0.0,0.0,0.0,0.0,0.0,0.0,0.0,0.0,0.0,0.0,0.0,0.0,0.0,-2.9792,-2.9792,-2.9792,-2.934,-2.9086,-2.9076,-2.9088,-2.9089,-2.9101,-2.9063,-2.9315,-2.9792,-2.8888,-2.8662,-2.9063,-2.9063,-2.8863,-2.8461,-2.9377,-2.9541,-2.9088,-2.9591,-2.9792,-2.9792,-2.9792,-2.9792,-2.9792,-2.9792,-2.9792,-2.9792,-2.9792,-2.9792,-2.9792,-2.0273,-2.1006,-2.1819,-2.2149,-2.2209,-2.2316,-2.2642,-2.2164,-2.1508,-2.083,-2.0462,-2.025,-2.0264,-1.9748,-1.9171,-1.8644,-1.7589,-1.6471,-1.5374,-1.4802,-1.4117,-1.3235,-1.3778,-1.4242,-1.4488,-1.4765,-1.4777,-1.45,-1.4242,-1.379,-1.3198,-1.3198,-1.3654,-1.4406,-1.3561,-1.3799,-1.4858,-1.4896,-1.5852,-1.7626,-2.0677,-2.3281,-2.5628,-2.7738,-2.9063,-2.9792,-2.9792,-2.9603,-2.9101,-2.7431,-2.6524,-2.5669,-2.3439,-2.2359,-2.1518,-1.961,-1.9434,-1.9547,-1.8166,-1.799,-1.8141,-1.7817,-1.7541,0.0,0.0,-1.734,-1.7729,-1.9133,0.0,0.0,0.0,0.0,0.0,0.0,0.0,0.0,0.0,0.0,0.0,0.0,0.0,0.0,0.0,-2.8937,-2.8962,-2.8963,-2.8681,-2.8511,-2.8492,-2.8496,-2.851,-2.8511,-2.8511,-2.8662,-2.895,-2.8837,-2.8888,-2.9134,-2.9134,-2.9233,-2.9337,-2.952,-2.9571,-2.9571,-2.9866,-2.991,-2.9792,-2.9792,-2.9792,-2.9792,-2.9792,-2.9792,-2.9792,-2.9792,-2.9792,-2.9792,-1.9585,-2.0468,-2.135,-2.1485,-2.2074,-2.2551,-2.268,-2.2988,-2.2833,-2.1732,-2.161,-2.1343,-2.0526,-2.0451,-2.0137,-1.9384,-1.8518,-1.741,-1.594,-1.555,-1.4934,-1.3874,-1.4004,-1.4387,-1.5035,-1.4846,-1.4683,-1.4569,-1.4261,-1.379,-1.3198,-1.3198,-1.398,-1.5349,-1.4181,-1.467,-1.6283,-1.5185,-1.5789,-1.784,-2.1995,-2.4343,-2.5644,-2.8059,-2.9051,-2.9214,-2.9641,-2.9792,-2.9528,-2.7858,-2.6678,-2.5649,-2.4155,-2.3339,-2.2648,-2.1144,-2.0993,-2.0968,-1.9284,-1.8844,-1.8869,-1.897,-1.8143,-1.7526,0.0,0.0,0.0,-1.8844,0.0,0.0,0.0,0.0,0.0,0.0,0.0,0.0,0.0,0.0,0.0,0.0,0.0,0.0,0.0,-2.7695,-2.7744,-2.8089,-2.771,-2.7627,-2.7931,-2.7954,-2.7946,-2.7946,-2.8115,-2.8165,-2.8109,-2.8727,-2.9048,-2.8991,-2.9153,-2.9422,-2.9794,-2.952,-2.9486,-2.9647,-2.9751,-2.9661,-2.9478,-2.9578,-2.9628,-2.9641,-2.9741,-2.9792,-2.9792,-2.9792,-2.9792,-2.9792,-1.8717,-1.9405,-2.0109,-2.0703,-2.1365,-2.2004,-2.262,-2.2261,-2.1833,-2.1532,-2.1927,-2.2347,-2.2694,-2.2732,-2.2882,-2.3314,-2.1496,-2.0025,-1.9284,-1.7926,-1.681,-1.6149,-1.4808,-1.4576,-1.558,-1.4676,-1.3928,-1.3386,-1.3866,-1.379,-1.3198,-1.3198,-1.3596,-1.4311,-1.5085,-1.5555,-1.5844,-1.6681,-1.8542,-2.1016,-2.2083,-2.2033,0.0,-2.4858,-2.6389,-2.714,-2.9089,-2.9792,-2.9528,0.0,-2.7193,-2.6553,-2.3477,-2.3753,-2.4619,-2.1584,-2.2099,-2.3251,-2.1568,-2.1117,-2.0778,-1.9359,-1.9623,-1.9623,-1.7325,0.0,-1.7802,-1.7027,0.0,0.0,0.0,0.0,0.0,0.0,0.0,0.0,0.0,0.0,0.0,0.0,0.0,0.0,0.0,0.0,-2.6489,-2.7989,-2.6291,-2.5833,-2.7301,-2.7392,-2.7369,-2.7369,-2.8066,-2.8346,-2.8097,-2.795,-2.7759,-2.7546,-2.8274,-2.8048,-2.7032,-2.8656,-2.875,-2.766,-2.8116,-2.8308,-2.8335,-2.8825,-2.8988,-2.9076,-2.9591,-2.9792,-2.9792,-2.9792,-2.9792,-2.9792,-1.7997,-1.8672,-1.9211,-1.9495,-2.0423,-2.1203,-2.1486,-2.2144,-2.2365,-2.1639,-2.2261,-2.2732,-2.2644,-2.2631,-2.2749,-2.3,-2.2159,-2.0978,-1.9434,-1.8706,-1.779,-1.655,-1.5542,-1.5236,-1.568,-1.4651,-1.3972,-1.3727,-1.3622,-1.3441,-1.3198,-1.3198,-1.4018,-1.5512,-1.563,-1.6782,-1.858,-1.8066,-1.853,0.0,0.0,-2.0213,0.0,-2.5059,-2.7205,-2.7544,-2.8473,-2.8812,-2.8612,0.0,-2.6389,0.0,0.0,-2.4243,-2.354,-2.2811,-2.2573,-2.2246,-2.0878,-2.0991,-2.1167,-1.9811,-1.9823,0.0,-1.7903,0.0,-1.7187,0.0,0.0,0.0,0.0,0.0,0.0,0.0,0.0,0.0,0.0,0.0,0.0,0.0,0.0,0.0,0.0,0.0,0.0,0.0,0.0,-2.5229,-2.6273,-2.7071,-2.7511,-2.7511,-2.8345,-2.875,-2.8618,-2.8995,-2.9158,-2.9053,-2.9393,-2.9491,-2.9393,-2.9236,-2.9026,-2.873,-2.8465,-2.8224,-2.8122,-2.8348,-2.8448,-2.8473,-2.8712,-2.9214,-2.9792,-2.9792,-2.9792,-2.9792,-1.7294,-1.7968,-1.8476,-1.8672,-1.966,-2.0488,-2.0691,-2.18,-2.2353,-2.1668,-2.2331,-2.2907,-2.297,-2.3263,-2.3565,-2.3866,-2.3766,-2.2874,-2.0926,-2.0236,-1.9421,-1.8356,-1.6936,-1.6371,-1.681,-1.5193,-1.4254,-1.4103,-1.3509,-1.3198,-1.3198,-1.3198,-1.4156,-1.5856,-1.607,-1.7664,-2.0189,-1.9422,-1.9459,-2.0075,-2.0702,-2.0765,-2.0953,-2.5485,-2.7582,-2.8109,-2.8109,-2.8109,-2.7908,-2.6688,-2.5686,0.0,-2.5435,0.0,-2.3138,-2.3803,-2.3339,-2.2334,-2.1066,0.0,0.0,0.0,0.0,0.0,0.0,0.0,0.0,0.0,0.0,0.0,0.0,0.0,-1.5613,-1.568,0.0,-1.5957,0.0,0.0,0.0,0.0,0.0,0.0,0.0,0.0,0.0,0.0,0.0,0.0,-2.5923,-2.7136,-2.7779,-2.7779,-2.8825,-2.9254,-2.9002,-2.9858,-3.0178,-2.995,-3.0208,-3.0494,-3.0777,-2.9797,-2.9428,-2.9522,-2.8665,-2.8183,-2.8003,-2.7916,-2.7883,-2.7896,-2.8047,-2.8612,-2.9327,-2.9327,-2.9327,-2.9352,-1.6622,-1.7279,-1.7938,-1.8597,-1.9271,-1.9971,-2.0684,-2.0827,-2.1038,-2.1435,-2.197,-2.292,-2.4525,-2.5686,-2.6788,-2.7833,-2.7431,-2.6628,-2.546,-2.3389,-2.2393,-2.2869,-1.9334,-1.8066,-1.9635,-1.6518,-1.4626,-1.4103,-1.3509,-1.3198,-1.3198,-1.3198,-1.3559,-1.428,-1.6392,-1.7978,-1.9158,-2.0727,-2.2636,-2.4537,-2.4067,-2.4827,-2.6135,0.0,-2.6251,-2.8109,-2.8109,0.0,0.0,-2.6189,-2.5598,0.0,0.0,0.0,0.0,0.0,0.0,0.0,0.0,0.0,0.0,-1.9697,0.0,0.0,0.0,0.0,-1.8003,0.0,0.0,0.0,0.0,-1.7725,-1.6948,-1.5869,-1.5706,0.0,0.0,0.0,0.0,0.0,0.0,0.0,0.0,0.0,0.0,0.0,0.0,0.0,-2.6791,-2.7605,-2.7978,-2.7978,-2.9485,-2.9858,-2.9002,-2.9858,-2.9889,-2.9066,-2.9889,-2.9858,-2.9097,-2.9889,-2.9797,-2.8967,-2.8111,-2.7709,-2.7709,-2.7418,-2.7341,-2.7369,-2.7896,-2.8134,-2.816,-2.816,-2.816,-2.8235,-1.6651,-1.7234,-1.7623,-1.7413,-1.8296,-1.942,-2.0557,-2.1363,-2.2181,-2.3106,-2.3649,-2.4607,-2.6264,-2.6813,-2.7341,-2.8047,-2.7934,-2.7356,-2.6273,-2.4782,-2.3891,-2.3715,-2.1041,-1.9661,-1.9798,-1.7674,-1.6103,-1.516,-1.4243,-1.3979,-1.4299,-1.3554,-1.3704,-1.4689,-1.6145,-1.8041,-2.0201,-2.1119,-2.2347,0.0,0.0,-2.4418,-2.5921,0.0,0.0,-2.7052,-2.7052,-2.7052,0.0,-2.6399,-2.5686,-2.5109,-2.5285,-2.4582,-2.3785,-2.4349,-2.4236,0.0,0.0,0.0,-2.359,-2.0803,0.0,0.0,0.0,0.0,0.0,0.0,0.0,0.0,0.0,-1.7752,-1.7137,-1.6371,-1.5932,-1.5399,0.0,0.0,0.0,0.0,0.0,0.0,0.0,0.0,0.0,0.0,0.0,0.0,0.0,-2.7106,-2.7676,-2.8163,-2.9667,-3.0293,-2.9988,-3.0734,-3.097,-3.0644,-3.097,-3.094,-3.0614,-2.9827,-2.9286,-2.8907,-2.7517,-2.6905,-2.6884,-2.6826,-2.6776,-2.6788,-2.6977,-2.7052,-2.714,-2.7833,-2.8109,-2.8134,-1.7354,-1.7369,-1.7354,-1.7399,-1.8521,-1.9697,-2.0569,-2.1935,-2.327,-2.4453,-2.4992,-2.5915,-2.7626,-2.7657,-2.7795,-2.8348,-2.8586,-2.8147,-2.6876,-2.6088,-2.5448,-2.4895,-2.2954,-2.1769,-2.1594,-1.9384,-1.7702,-1.6584,-1.5299,-1.4752,-1.4871,-1.3948,-1.3898,-1.4664,-1.5731,-1.7664,-2.0189,-2.1292,-2.2648,0.0,0.0,-2.4958,0.0,0.0,-2.6361,-2.6223,0.0,-2.6499,-2.6499,-2.6499,-2.6021,-2.5523,-2.6273,-2.5506,-2.4456,-2.5184,-2.4883,-2.423,-2.381,-2.4236,0.0,-2.1845,-2.1518,0.0,-1.8555,0.0,-1.892,0.0,0.0,0.0,0.0,-1.8869,-1.7777,-1.7212,-1.6321,-1.532,0.0,-1.432,0.0,0.0,0.0,0.0,0.0,0.0,-1.9617,-2.2383,0.0,0.0,0.0,0.0,-2.7667,-2.8372,-2.9572,-3.0178,-3.0178,-3.0808,-3.1137,-3.1137,-3.1391,-3.1511,-3.1467,-3.0389,-2.9721,-2.938,-2.7986,-2.7196,-2.6905,-2.6624,-2.6499,-2.6499,-2.6499,-2.6499,-2.6575,-2.7291,-2.7645,-2.7808,-1.8521,-1.7697,-1.7294,-1.8565,-1.9803,-2.0655,-2.0784,0.0,-2.4169,-2.5451,-2.5959,-2.6895,-2.863,-2.8443,-2.8398,-2.8888,-2.9478,-2.9114,-2.7542,-2.7356,-2.714,-2.6637,-2.5028,-2.4356,-2.4813,-2.1594,-1.9359,-1.8279,-1.6547,-1.5449,-1.4941,-1.4362,-1.4103,-1.4154,-1.5198,-1.6911,-1.9146,-2.129,-2.354,-2.5649,-2.626,-2.6474,-2.6449,-2.6487,-2.6135,-2.5674,-2.6285,-2.6499,-2.6499,-2.6499,-2.6499,-2.6499,-2.6499,-2.6499,-2.6499,-2.6499,-2.6474,-2.6223,-2.5146,-2.4813,-2.4399,-2.2761,0.0,0.0,0.0,0.0,-2.0566,0.0,0.0,0.0,0.0,0.0,-1.8845,-1.8267,-1.6794,-1.5343,-1.4224,-1.4801,0.0,0.0,0.0,0.0,0.0,-1.6922,-1.8061,-2.2476,-2.1599,-2.2542,0.0,0.0,0.0,-2.8487,-2.9175,-2.9562,-2.9562,-3.0148,-3.0462,-3.0462,-3.1092,-3.1406,-3.1406,-3.1319,-3.0925,-3.0195,-2.923,-2.84,-2.7637,-2.685,-2.6499,-2.6499,-2.6499,-2.6499,-2.6499,-2.6499,-2.6826,-2.7278,-1.8027,-1.8879,-1.9776,-2.012,-1.9677,-1.9943,0.0,0.0,0.0,-2.7116,-2.7789,-2.8696,-3.0358,-2.9817,-2.9415,-2.9566,-2.9704,-2.9616,-2.9176,-2.836,-2.8009,-2.8285,-2.6751,-2.572,-2.541,-2.2548,-2.0514,-1.9397,-1.6911,-1.5618,-1.5467,-1.4538,-1.4103,-1.4141,-1.4796,-1.6547,-1.9096,-2.0501,-2.2866,-2.5649,-2.626,-2.6235,0.0,0.0,-2.6135,-2.5674,-2.6285,-2.6499,-2.6499,-2.6499,-2.6499,-2.6499,-2.6499,-2.6499,-2.6499,-2.6499,-2.6185,-2.5762,-2.5473,-2.5109,-2.4487,-2.3208,-2.2581,-2.1945,0.0,0.0,0.0,0.0,0.0,0.0,0.0,0.0,-1.9158,-1.7815,-1.6858,-1.6329,-1.6423,-1.6287,0.0,-1.6554,0.0,0.0,0.0,-1.7491,-1.9041,-2.1094,-2.0898,0.0,0.0,0.0,0.0,-2.7066,-2.8248,-2.8861,-2.8861,-2.949,-2.9819,-2.9819,-2.9998,-3.0088,-3.0061,-2.8843,-2.8751,-2.9445,-2.7384,-2.6947,-2.7637,-2.685,-2.6499,-2.6499,-2.6499,-2.6499,-2.6499,-2.6499,-2.6587,-2.6713,-1.9029,-2.0408,-2.1665,-2.1934,0.0,0.0,-2.3746,-2.4297,0.0,-2.8371,-2.9102,0.0,-3.0465,-3.0464,-3.0241,-2.983,-2.9792,-2.9578,-2.9089,-2.8925,-2.8762,-2.8574,-2.7908,-2.7281,-2.6703,-2.423,-2.2146,-2.0539,-1.8028,-1.6421,-1.5668,-1.4601,-1.4103,-1.4128,-1.4664,-1.6028,-1.8055,-2.0401,-2.2887,-2.531,-2.5896,0.0,0.0,-2.6373,-2.6298,-2.6047,-2.6373,-2.6499,-2.6499,-2.6499,-2.6499,-2.6499,-2.6499,-2.6499,-2.6499,-2.6499,-2.6084,-2.5598,-2.5598,-2.5222,-2.4637,-2.3998,-2.3609,-2.305,-2.1694,-2.1631,-2.1757,0.0,0.0,0.0,0.0,0.0,0.0,-1.6948,-1.6519,-1.6525,-1.6817,-1.6698,-1.6663,0.0,-1.7265,0.0,0.0,0.0,-1.9227,0.0,0.0,0.0,0.0,0.0,0.0,-2.6123,-2.7171,-2.7859,-2.8169,-2.8816,-2.9146,-2.916,-2.9472,-2.9606,-2.9579,-2.8651,-2.8455,-2.877,-2.7062,-2.6684,-2.721,-2.6434,-2.6273,-2.6499,-2.6499,-2.6499,-2.6499,-2.6499,-2.6499,-2.6499,-2.0722,-2.1964,-2.3092,-2.352,0.0,0.0,0.0,-2.6333,0.0,-2.9654,0.0,-3.0509,-3.0289,-3.0934,-3.1007,-3.0075,-2.996,-2.9505,-2.8398,-2.9252,-2.9352,-2.8373,-2.8787,-2.8712,-2.8122,-2.5916,-2.3728,-2.1493,-1.9208,-1.7237,-1.5567,-1.4576,-1.4065,-1.4009,-1.4551,-1.5563,0.0,-2.0725,-2.3288,-2.4838,-2.5385,-2.5971,-2.6499,-2.6499,-2.6499,-2.6499,-2.6499,-2.6499,-2.6499,-2.6499,-2.6499,-2.6499,-2.6499,-2.6499,-2.6474,-2.6399,-2.5971,-2.5473,-2.5398,-2.4996,-2.4575,-2.4575,-2.4575,-2.4186,-2.2749,-2.2393,-2.2393,-2.2393,-2.1656,-2.171,0.0,0.0,0.0,-1.6599,-1.67,-1.7082,-1.7235,-1.7389,-1.7433,-1.7251,0.0,0.0,0.0,0.0,0.0,0.0,0.0,0.0,0.0,0.0,0.0,0.0,-2.6243,0.0,-2.7585,0.0,-2.8472,-2.8472,-2.9067,-2.9352,-2.9337,-2.9229,-2.8891,-2.8295,-2.7435,-2.7023,-2.6847,-2.6193,-2.6281,-2.685,-2.685,-2.685,-2.685,-2.685,-2.685,-2.6816,-2.15,-2.3011,-2.4126,-2.3684,0.0,-2.7794,-2.94,-3.0105,-3.0823,-3.1869,-3.2779,-3.3307,-3.3239,-3.2695,-3.196,-3.1044,-3.097,0.0,0.0,0.0,0.0,-2.9503,-2.9591,-2.9164,-2.8134,-2.5916,-2.3728,-2.1493,-1.8832,-1.6681,-1.5022,-1.4387,-1.3828,-1.3378,-1.3984,0.0,-1.8732,-2.1255,0.0,-2.4838,-2.5385,-2.5971,-2.6499,-2.6499,-2.6499,-2.6499,-2.6499,-2.6499,-2.6499,-2.6499,-2.6499,-2.6499,-2.6499,-2.6499,-2.6399,-2.5887,-2.5372,-2.4825,-2.4406,-2.3866,-2.3396,-2.3396,-2.3396,-2.3321,-2.3032,-2.2957,-2.2957,-2.2957,-2.2807,-2.2543,-2.2146,0.0,0.0,0.0,0.0,0.0,0.0,-2.1935,-2.1235,-2.0131,-2.0487,-1.9704,0.0,0.0,0.0,0.0,0.0,0.0,0.0,0.0,0.0,0.0,0.0,0.0,0.0,0.0,0.0,-2.7779,-2.7884,-2.7944,-2.7919,-2.7334,-2.76,-2.8477,-2.7004,-2.6996,-2.7992,-2.7701,-2.7981,-2.8556,-2.8556,-2.8556,-2.8556,-2.8556,-2.8556,-2.8363,-2.3655,-2.4492,-2.5337,-2.6078,0.0,0.0,0.0,-3.2691,-3.3304,-3.2572,-3.2905,-3.3039,-3.2558,-3.2985,-3.2961,-3.1997,-3.1499,-3.1217,-3.123,-3.0809,-3.0733,-3.123,-3.123,-3.0689,-2.9513,-2.7756,-2.5301,-2.2159,-1.9533,-1.7087,-1.4871,-1.4029,-1.3483,-1.3261,-1.4701,-1.671,0.0,0.0,0.0,-2.4469,-2.5272,-2.5971,-2.6499,-2.6499,-2.6499,-2.6499,-2.6499,-2.6499,-2.6499,-2.6499,-2.6499,-2.6499,-2.6499,-2.6285,-2.5996,-2.5674,-2.5021,-2.4343,-2.4067,-2.3547,-2.3108,-2.3108,-2.3108,-2.3108,-2.3108,-2.3108,-2.3108,-2.3108,-2.3108,-2.2875,-2.2187,-2.1355,0.0,0.0,0.0,0.0,0.0,-2.2619,-2.1809,-2.0821,-2.0367,-1.9243,0.0,0.0,0.0,0.0,0.0,0.0,0.0,0.0,0.0,0.0,0.0,0.0,0.0,0.0,0.0,-2.76,-2.76,-2.76,-2.76,-2.7229,-2.7432,-2.8017,-2.6861,-2.6903,-2.7796,-2.7929,-2.8178,-2.8529,-2.8878,-2.9002,-2.9002,-2.9002,-2.9002,-2.8876,-2.5899,-2.6258,-2.6991,0.0,-3.0193,0.0,-3.2557,-3.4307,-3.4936,-3.335,-3.3155,-3.2851,-3.2123,-3.338,-3.3925,-3.2996,-3.2213,-3.2033,-3.2558,-3.1924,-3.1815,-3.2558,-3.2593,-3.2041,-3.0825,-2.9416,-2.6879,-2.3151,-2.0463,-1.789,-1.5399,-1.4149,-1.3674,0.0,0.0,0.0,0.0,0.0,-2.3037,-2.4255,-2.5209,-2.5971,-2.6499,-2.6499,-2.6499,-2.6499,-2.6499,-2.6499,-2.6499,-2.6499,-2.6499,-2.6499,-2.6499,-2.6097,-2.5573,-2.546,-2.4757,-2.3966,-2.3853,-2.3446,-2.3125,-2.3305,-2.3215,-2.3125,-2.3305,-2.3215,-2.3138,-2.3305,-2.3471,-2.3434,-2.2924,-2.2282,0.0,0.0,0.0,0.0,0.0,0.0,-2.2179,-2.1244,-2.0079,-1.8741,-1.7278,0.0,0.0,0.0,0.0,0.0,-1.9633,-2.0064,0.0,0.0,0.0,-2.5495,-2.6168,0.0,-2.76,0.0,-2.76,-2.76,-2.76,-2.76,-2.76,-2.7575,-2.6982,-2.7043,-2.7599,-2.7965,-2.8292,-2.8589,-2.897,-2.9279,-2.9521,-2.938,-2.9423,-2.9535,0.0,0.0,0.0,0.0,0.0,0.0,-3.338,-3.4607,-3.5429,-3.525,-3.5235,-3.5188,-3.5091,-3.5255,-3.4953,-3.3959,-3.3774,-3.3415,-3.2629,-3.2522,-3.25,-3.2593,-3.2593,-3.2041,-3.0825,-2.9416,-2.7232,0.0,0.0,-1.8844,-1.7134,-1.55,0.0,0.0,0.0,0.0,0.0,-2.1794,-2.3251,-2.4795,-2.536,-2.5971,-2.6499,-2.6499,-2.6499,-2.6499,-2.6499,-2.6499,-2.6499,-2.6499,-2.6499,-2.6499,-2.6499,-2.6097,-2.5498,-2.5034,-2.4469,-2.3891,-2.3333,-2.3145,-2.3275,-2.4002,-2.3632,-2.3305,-2.4031,-2.3619,-2.3305,-2.4031,-2.4724,-2.4861,-2.3794,-2.4876,-2.5437,0.0,0.0,0.0,0.0,0.0,-2.4558,-2.2735,-2.187,-2.0658,0.0,0.0,0.0,0.0,0.0,0.0,-1.9603,-1.9181,0.0,-2.2703,0.0,-2.4118,-2.4784,-2.6647,0.0,-2.76,-2.76,-2.76,-2.76,-2.76,-2.76,-2.76,-2.7524,-2.7872,-2.8487,-2.8527,-2.9228,-3.0208,-2.9746,-3.0238,-3.1174,-3.058,-3.0743,-3.1278,0.0,0.0,0.0,0.0,0.0,0.0,0.0,-3.516,-3.5504,-3.5504,-3.5504,-3.5504,-3.5504,-3.5504,-3.5359,-3.4953,-3.4361,-3.4109,-3.4341,-3.3425,-3.3334,-3.4293,-3.3554,-3.2901,-3.2425,-3.0952,-2.8977,0.0,0.0,0.0,0.0,0.0,0.0,0.0,0.0,-2.1687,-2.2485,-2.4835,-2.592,-2.6155,-2.7207,-2.7479,-2.7229,-2.7229,-2.6905,-2.6499,-2.6499,-2.6499,-2.6499,-2.6499,-2.6499,-2.6499,-2.6499,-2.6097,-2.5485,-2.4938,-2.4722,-2.4412,-2.3367,-2.3454,-2.3767,-2.3619,-2.3335,-2.3305,-2.4118,-2.406,-2.4031,-2.4809,-2.5175,-2.5383,-2.5376,-2.5337,-2.5351,0.0,0.0,0.0,0.0,0.0,-2.5011,-2.3425,-2.1979,-2.0632,0.0,0.0,0.0,0.0,0.0,0.0,0.0,0.0,0.0,-2.1455,0.0,-2.3924,-2.459,-2.6198,-2.721,-2.76,-2.76,-2.76,-2.76,-2.76,-2.76,-2.76,-2.76,-2.775,-2.8034,-2.8427,-2.8906,-2.9385,-2.952,-2.9909,-3.0328,-3.0058,-3.0118,-3.0417,-3.2004,0.0,-3.1943,0.0,-3.3709,-3.3873,-3.5295,-3.5504,-3.5504,-3.5504,-3.5504,-3.5504,-3.5504,-3.5504,-3.5504,-3.5504,-3.4839,-3.4725,-3.5457,-3.425,-3.4112,-3.5442,-3.4218,0.0,-3.3499,-3.199,-3.0245,-2.8272,-2.5313,0.0,0.0,0.0,0.0,0.0,-2.3862,-2.4487,-2.4682,-2.69,-2.7454,-2.6982,-2.7908,-2.8051,-2.767,-2.7451,-2.7129,-2.6816,-2.6589,-2.6499,-2.6499,-2.6499,-2.6658,-2.685,-2.685,-2.6287,-2.5552,-2.5268,-2.499,-2.4594,-2.3697,-2.3855,-2.4263,-2.4121,-2.3959,-2.3989,-2.4753,-2.4794,-2.4823,-2.5563,-2.5569,-2.5666,-2.6399,-2.5593,-2.5081,-2.5875,0.0,0.0,0.0,-2.5183,0.0,-2.3224,-2.1665,-2.0438,-1.9768,0.0,0.0,0.0,0.0,0.0,0.0,0.0,0.0,0.0,0.0,0.0,0.0,-2.5839,-2.6941,-2.76,-2.76,-2.76,-2.76,-2.76,-2.76,-2.76,-2.76,-2.76,-2.763,-2.8124,-2.8412,-2.8622,-2.8918,-2.9262,-2.9592,-2.9397,-2.9442,-2.9666,-3.3215,-3.3469,-3.3888,-3.525,-3.5474,-3.5474,-3.5504,-3.5504,-3.5504,-3.5504,-3.5504,-3.5504,-3.5504,-3.5504,-3.5504,-3.5504,-3.5504,-3.5504,-3.5504,-3.4861,-3.4786,0.0,0.0,-3.3499,-3.3499,-3.199,-3.0589,-2.9377,0.0,0.0,-2.5629,0.0,-2.4559,-2.5657,-2.5685,-2.6274,-2.7254,-2.6997,-2.6897,-2.6899,-2.662,-2.7007,-2.7604,-2.6816,-2.7007,-2.7571,-2.6782,-2.6499,-2.6499,-2.6499,-2.704,-2.7703,-2.7703,-2.6729,-2.5671,-2.5992,-2.5102,-2.4052,-2.4259,-2.4292,-2.4652,-2.6095,-2.5906,-2.5563,-2.631,-2.5906,-2.5591,-2.6336,-2.5996,-2.5795,-2.648,-2.6046,-2.5375,-2.4733,0.0,0.0,0.0,-2.4186,0.0,-2.1959,-2.1126,-2.0438,-1.9768,0.0,0.0,0.0,0.0,0.0,0.0,0.0,0.0,-2.0673,-2.1994,0.0,-2.361,-2.56,-2.6941,-2.76,-2.76,-2.76,-2.76,-2.76,-2.76,-2.76,-2.76,-2.76,-2.76,-2.76,-2.8004,-2.8532,-2.7884,-2.8438,-2.9532,-2.8861,-2.9026,-2.9606,-3.4786,-3.4861,-3.4996,-3.5429,-3.5504,-3.5355,-3.4876,-3.5205,-3.534,-3.4861,-3.522,-3.5504,-3.5504,-3.5504,-3.5504,0.0,-3.5504,-3.5504,0.0,-3.4861,-3.4608,-3.4801,-3.3529,-3.2826,-3.2826,-3.1886,-3.122,-3.082,0.0,0.0,0.0,-2.7071,-2.7574,-2.837,-2.8796,-2.8855,-2.8709,-2.9633,-2.9711,-2.9268,-2.9711,-2.9721,-2.9442,-2.9192,-2.8876,-2.8556,-2.8298,-2.8214,-2.8214,-2.8214,-2.8363,-2.8684,-2.9286,-2.877,-2.7781,-2.7043,-2.6891,-2.6667,-2.5392,-2.5425,-2.5783,-2.5755,-2.5563,-2.5591,-2.6336,-2.6347,-2.614,-2.5938,-2.5732,-2.5809,-2.6473,-2.6054,-2.5536,-2.5315,-2.5477,0.0,0.0,0.0,-2.4197,-2.3128,-2.2443,-2.1984,0.0,-2.134,0.0,0.0,0.0,0.0,0.0,0.0,0.0,0.0,-2.1759,0.0,-2.4261,-2.5375,-2.6482,-2.76,-2.76,-2.76,-2.76,-2.76,-2.76,-2.76,-2.76,-2.76,-2.76,-2.76,-2.772,-2.7899,-2.769,-2.7854,-2.8214,-2.8004,-2.8049,-2.8304,-3.5504,-3.5504,-3.5504,-3.5504,-3.5504,-3.5265,-3.4608,-3.5055,-3.525,-3.4593,-3.507,-3.5504,-3.5504,-3.5504,0.0,-3.5504,-3.5504,-3.5504,-3.5504,-3.4637,-3.4249,-3.4503,-3.2976,-3.2228,-3.2482,0.0,0.0,-3.1511,-3.0275,-2.9486,-2.9075,-2.9478,-2.9924,-3.0328,-3.0717,-3.0597,-3.0178,-3.0793,-3.0777,-3.0329,-3.0494,-3.045,-3.0269,-2.995,-2.9659,-2.9442,-2.9129,-2.9002,-2.9002,-2.9002,-2.9223,-2.9566,-3.0133,-3.0133,-2.9633,-2.8117,-2.7751,-2.7583,-2.6202,-2.6149,-2.6457,-2.6269,-2.6242,-2.6349,-2.6826,-2.6751,-2.6542,-2.6378,-2.5756,-2.5427,-2.609,-2.5463,-2.4845,-2.4846,-2.4845,-2.4567,-2.3714,0.0,-2.3894,0.0,0.0,0.0,0.0,-2.1799,0.0,0.0,0.0,0.0,0.0,0.0,0.0,-2.0846,-2.2503,0.0,-2.4963,-2.5644,-2.6512,-2.76,-2.76,-2.76,-2.76,-2.76,-2.76,-2.76,-2.76,-2.76,-2.76,-2.76,-2.76,-2.76,-2.76,-2.76,-2.76,-2.76,-2.76,-2.766,-3.5489,-3.5504,0.0,0.0,-3.5504,0.0,-3.4608,-3.5055,-3.525,-3.4593,-3.507,-3.5504,-3.5504,-3.5504,-3.5504,-3.5504,0.0,0.0,0.0,-3.4337,-3.3888,-3.4474,-3.2677,-3.1914,-3.2497,-3.1839,-3.1511,-3.1511,-3.1511,-3.1511,-3.1511,-3.1511,-3.1511,-3.1511,-3.1511,-3.1511,-3.1438,-3.0703,-3.0389,-3.0299,-2.9504,-2.9659,-3.0299,-2.9473,-2.9659,-3.0269,-2.9473,-2.916,-2.916,-2.916,-2.969,-3.0389,-3.0389,-3.0896,-3.1112,-2.9085,-2.7939,-2.7252,-2.6707,-2.659,-2.6747,-2.7433,-2.76,-2.7585,-2.754,-2.7061,-2.6761,-2.7355,-2.598,-2.4873,-2.554,-2.4575,-2.3683,-2.3734,-2.3661,-2.3595,-2.3595,0.0,0.0,0.0,0.0,0.0,0.0,-2.147,-2.2039,0.0,0.0,0.0,0.0,0.0,-2.138,-2.2718,-2.3947,-2.4948,-2.5674,-2.6288,-2.6941,-2.76,-2.76,-2.76,-2.76,-2.76,-2.76,-2.76,-2.76,-2.76,-2.76,-2.76,-2.76,-2.76,-2.76,-2.76,-2.76,-2.76,-2.76,-2.76,0.0,0.0,-3.5504,-3.5504,-3.5504,-3.5265,-3.4608,-3.5055,-3.525,-3.4593,-3.507,-3.5504,-3.5504,-3.5504,-3.5504,-3.5504,-3.5504,-3.5504,-3.5504,-3.5205,-3.4861,-3.4518,-3.3544,-3.2871,-3.2497,-3.1839,-3.1511,-3.1511,-3.1511,-3.1511,-3.1511,-3.1511,-3.1511,-3.1511,-3.1511,-3.1511,-3.1511,-3.1307,-3.1219,-3.119,-3.0999,-3.1029,-3.119,-3.0999,-3.1029,-3.119,-3.097,-3.0896,-3.0896,-3.0896,-3.1058,-3.1219,-3.1219,-3.1351,-3.1213,-2.9746,-2.918,-2.879,-2.7636,-2.7331,-2.7382,-2.7575,-2.76,-2.7465,-2.6956,-2.6692,-2.6501,-2.6148,-2.5689,-2.5568,-2.6242,-2.5273,-2.452,-2.5041,-2.4282,-2.3595,-2.3595,-2.3595,0.0,0.0,-2.3146,-2.3086,-2.2936,-2.3056,-2.2802,0.0,0.0,0.0,0.0,-2.1635,-2.2054,-2.334,-2.4171,-2.5158,-2.6348,-2.6512,-2.6941,-2.76,-2.76,-2.76,-2.76,-2.76,-2.76,-2.76,-2.76,-2.76,-2.76,-2.76,-2.76,-2.76,-2.76,-2.76,-2.76,-2.76,-2.76,-2.76,-3.4966,-3.504,-3.504,-3.504,-3.5295,-3.5265,-3.4608,-3.5055,-3.525,-3.4593,-3.507,-3.5504,-3.5504,-3.5504,-3.5504,-3.5504,-3.5504,-3.5504,-3.5504,-3.5205,-3.4726,-3.4053,-3.3395,-3.2886,-3.2497,-3.1839,-3.1511,-3.1511,-3.1511,-3.1511,-3.1511,-3.1511,-3.1511,-3.1511,-3.1511,-3.1511,-3.1511,-3.1511,-3.1511,-3.1511,-3.1511,-3.1511,-3.1511,-3.1511,-3.1511,-3.1511,-3.1511,-3.1511,-3.1511,-3.1511,-3.1511,-3.1511,-3.1511,-3.1511,-3.1256,-2.9968,-2.9606,-2.9322,-2.7959,-2.76,-2.76,-2.76,-2.76,-2.7495,-2.7151,-2.7061,-2.695,-2.6582,-2.627,-2.6168,-2.6522,-2.5511,-2.4724,-2.509,-2.4038,-2.3266,-2.3565,-2.3355,0.0,-2.3565,-2.3595,-2.3595,-2.3595,-2.3595,-2.331,-2.2622,0.0,0.0,-2.2562,-2.2562,-2.3026,-2.4044,-2.4709,-2.5555,-2.6572,-2.6911,-2.724,-2.76,-2.76,-2.76,-2.76,-2.76,-2.76,-2.76,-2.76,-2.76,-2.76,-2.76,-2.76,-2.76,-2.76,-2.76,-2.76,-2.76,-2.76,-2.76,-3.4474,-3.4503,-3.4442,-3.4196,-3.4827,-3.5113,-3.442,-3.4902,-3.5175,-3.4728,-3.5145,-3.5504,-3.5504,-3.5504,-3.5504,-3.5504,-3.5504,-3.5504,-3.5504,-3.4861,-3.4264,-3.3664,-3.2916,-3.2557,-3.2662,-3.1989,-3.1645,-3.1645,-3.1555,-3.1511,-3.1511,-3.1511,-3.1511,-3.1511,-3.1511,-3.1511,-3.1511,-3.1511,-3.1511,-3.1511,-3.1511,-3.1511,-3.1511,-3.1511,-3.1511,-3.1511,-3.1511,-3.1511,-3.1511,-3.1511,-3.1511,-3.1511,-3.1511,-3.1511,-3.1256,-2.9968,-2.9606,-2.9322,-2.7959,-2.76,-2.76,-2.76,-2.76,-2.76,-2.76,-2.76,-2.76,-2.76,-2.7155,-2.6756,-2.6756,-2.5662,-2.471,-2.461,-2.3611,-2.2987,-2.34,0.0,-2.3032,-2.3535,-2.3595,-2.3595,-2.3595,-2.3595,-2.3595,-2.3595,-2.3595,-2.3595,0.0,-2.3595,-2.3954,-2.4724,-2.5292,-2.5974,-2.6746,-2.7315,-2.76,-2.76,-2.76,-2.76,-2.76,-2.76,-2.76,-2.76,-2.76,-2.76,-2.76,-2.76,-2.76,-2.76,-2.76,-2.76,-2.76,-2.76,-2.76,-2.76,-3.4294,-3.4503,-3.4088,-3.2786,-3.3716,-3.4354,-3.3514,-3.4117,-3.4801,-3.528,-3.5444,-3.5504,-3.5504,-3.5504,-3.5504,-3.5504,-3.5504,-3.5504,-3.5504,-3.4861,-3.4459,-3.4354,-3.3155,-3.2781,-3.3335,-3.2706,-3.2333,-3.2333,-3.178,-3.1511,-3.1511,-3.1511,-3.1511,-3.1511,-3.1511,-3.1511,-3.1511,-3.1511,-3.1511,-3.1511,-3.1511,-3.1511,-3.1511,-3.1511,-3.1511,-3.1511,-3.1511,-3.1511,-3.1511,-3.1511,-3.1511,-3.1511,-3.1511,-3.1511,-3.1256,-2.9968,-2.9606,-2.9322,-2.7959,-2.76,-2.76,-2.76,-2.76,-2.76,-2.76,-2.76,-2.76,-2.76,-2.753,-2.7445,-2.7445,-2.6345,-2.525,-2.4694,-2.3962,-2.331,-2.2897,0.0,-2.349,-2.3595,-2.3595,-2.3595,-2.3595,-2.3595,-2.3595,-2.3595,-2.3595,-2.3595,-2.3595,-2.3595,-2.4163,-2.542,-2.5555,-2.6198,-2.7435,-2.754,-2.76,-2.76,-2.76,-2.76,-2.76,-2.76,-2.76,-2.76,-2.76,-2.76,-2.76,-2.76,-2.76,-2.76,-2.76,-2.76,-2.76,-2.76,-2.76,-2.76,-3.1953,-3.2394,-3.2463,-3.1775,-3.2632,-3.3428,-3.3368,-3.4324,-3.5011,-3.4966,-3.528,-3.5504,-3.5504,-3.5504,-3.5504,-3.5504,-3.5504,-3.5504,-3.5504,-3.5205,-3.4861,-3.4518,-3.3903,-3.3544,-3.3499,-3.32,-3.2871,-3.2512,-3.1824,-3.1511,-3.1511,-3.1511,-3.1511,-3.1511,-3.1511,-3.1511,-3.1511,-3.1511,-3.1511,-3.1511,-3.1511,-3.1511,-3.1511,-3.1511,-3.1511,-3.1511,-3.1511,-3.1511,-3.1511,-3.1511,-3.1511,-3.1511,-3.1511,-3.1511,-3.1316,-3.0357,-2.9352,-2.8393,-2.7764,-2.76,-2.76,-2.76,-2.76,-2.76,-2.76,-2.76,-2.76,-2.76,-2.76,-2.76,-2.76,-2.6783,-2.6034,-2.5728,-2.4507,0.0,0.0,-2.337,-2.3236,-2.3565,-2.3595,-2.3595,-2.3595,-2.3595,-2.3595,-2.3595,-2.3595,-2.3595,-2.3595,-2.3595,-2.4059,-2.5023,-2.6108,-2.6986,-2.7585,-2.76,-2.76,-2.76,-2.76,-2.76,-2.76,-2.76,-2.76,-2.76,-2.76,-2.76,-2.76,-2.76,-2.76,-2.76,-2.76,-2.76,-2.76,-2.76,-2.76,-2.76,-3.0215,-3.0674,-3.0998,-3.0922,-3.1743,-3.2638,-3.3336,-3.433,-3.4951,-3.4741,-3.5175,-3.5504,-3.5504,-3.5504,-3.5504,-3.5504,-3.5504,-3.5504,-3.5504,-3.5504,-3.519,-3.4533,-3.4503,-3.4279,-3.3724,-3.3574,-3.3245,-3.2736,-3.1899,-3.1511,-3.1511,-3.1511,-3.1511,-3.1511,-3.1511,-3.1511,-3.1511,-3.1511,-3.1511,-3.1511,-3.1511,-3.1511,-3.1511,-3.1511,-3.1511,-3.1511,-3.1511,-3.1511,-3.1511,-3.1511,-3.1511,-3.1511,-3.1511,-3.1511,-3.1376,-3.0717,-2.922,-2.7809,-2.7645,-2.76,-2.76,-2.76,-2.76,-2.76,-2.76,-2.76,-2.76,-2.76,-2.76,-2.76,-2.76,-2.705,-2.6504,-2.6192,0.0,0.0,0.0,-2.343,-2.3092,-2.3535,-2.3595,-2.3595,-2.3595,-2.3595,-2.3595,-2.3595,-2.3595,-2.3595,-2.3595,-2.3595,-2.3924,-2.459,-2.6393,-2.7435,-2.76,-2.76,-2.76,-2.76,-2.76,-2.76,-2.76,-2.76,-2.76,-2.76,-2.76,-2.76,-2.76,-2.76,-2.76,-2.76,-2.76,-2.76,-2.76,-2.76,-2.76,-2.76,-3.0859,-3.0964,-3.0677,-3.016,-3.1211,-3.2385,-3.3111,-3.3448,-3.4083,-3.5265,-3.5474,-3.5504,-3.5504,-3.5504,-3.5504,-3.5504,-3.5504,-3.5504,-3.5504,-3.5504,-3.519,-3.4533,-3.4503,-3.4488,-3.4444,-3.3799,-3.3469,-3.3425,-3.2123,-3.1511,-3.1511,-3.1511,-3.1511,-3.1511,-3.1511,-3.1511,-3.1511,-3.1511,-3.1511,-3.1511,-3.1511,-3.1511,-3.1511,-3.1511,-3.1511,-3.1511,-3.1511,-3.1511,-3.1511,-3.1511,-3.1511,-3.1511,-3.1511,-3.1511,-3.1376,-3.0717,-2.9564,-2.8382,-2.7764,-2.76,-2.76,-2.76,-2.76,-2.76,-2.76,-2.76,-2.76,-2.76,-2.76,-2.76,-2.76,-2.7046,-2.6183,-2.4948,0.0,0.0,-2.3002,-2.3236,-2.355,-2.3595,-2.3595,-2.3595,-2.3595,-2.3595,-2.3595,-2.3595,-2.3595,-2.3595,-2.3595,-2.3595,-2.3924,-2.459,-2.5959,-2.6986,-2.7585,-2.76,-2.76,-2.76,-2.76,-2.76,-2.76,-2.76,-2.76,-2.76,-2.76,-2.76,-2.76,-2.76,-2.76,-2.76,-2.76,-2.76,-2.76,-2.76,-2.76,-2.76,-2.8828,-2.9078,-2.9356,-3.0055,-3.148,-3.2591,-3.274,-3.3037,-3.3645,-3.4737,-3.4687,-3.4806,-3.5424,-3.5504,-3.5504,-3.5504,-3.5504,-3.5504,-3.5504,-3.5504,-3.519,-3.4533,-3.4891,-3.4726,-3.3888,-3.3619,-3.3305,-3.2886,-3.1944,-3.1511,-3.1511,-3.1511,-3.1511,-3.1511,-3.1511,-3.1511,-3.1511,-3.1511,-3.1511,-3.1511,-3.1511,-3.1511,-3.1511,-3.1511,-3.1511,-3.1511,-3.1511,-3.1511,-3.1511,-3.1511,-3.1511,-3.1511,-3.1511,-3.1511,-3.1286,-3.0253,-2.9594,-2.8992,-2.7899,-2.76,-2.76,-2.76,-2.76,-2.76,-2.76,-2.76,-2.76,-2.76,-2.76,-2.76,-2.76,-2.739,-2.6926,-2.5989,0.0,-2.4903,-2.4014,-2.3729,-2.3595,-2.3595,-2.3595,-2.3595,-2.3595,-2.3595,-2.3595,-2.3595,-2.3595,-2.3595,-2.3595,-2.3595,-2.3924,-2.459,-2.551,-2.6303,-2.6986,-2.739,-2.76,-2.76,-2.76,-2.76,-2.76,-2.76,-2.76,-2.76,-2.76,-2.76,-2.76,-2.76,-2.76,-2.76,-2.76,-2.76,-2.76,-2.76,-2.76,-2.76,-2.7537,-2.7768,-2.8272,-2.9565,-3.0706,-3.1654,-3.2312,-3.2623,-3.3231,-3.4347,-3.4493,-3.4725,-3.5424,-3.5213,-3.5166,-3.5472,-3.5213,-3.5166,-3.5472,-3.5504,-3.5295,-3.4816,-3.525,-3.4981,-3.3829,-3.3604,-3.317,-3.2512,-3.1824,-3.1511,-3.1511,-3.1511,-3.1511,-3.1511,-3.1511,-3.1511,-3.1511,-3.1511,-3.1511,-3.1511,-3.1511,-3.1511,-3.1511,-3.1511,-3.1511,-3.1511,-3.1511,-3.1511,-3.1511,-3.1511,-3.1511,-3.1511,-3.1511,-3.1511,-3.1256,-2.9968,-2.9606,-2.9322,-2.7959,-2.76,-2.76,-2.76,-2.76,-2.76,-2.76,-2.76,-2.76,-2.76,-2.76,-2.754,-2.733,-2.7465,-2.724,-2.6153,-2.5764,-2.5277,-2.441,-2.3894,-2.3595,-2.3595,-2.3595,-2.3595,-2.3595,-2.3595,-2.3595,-2.3595,-2.3595,-2.3595,-2.3595,-2.3595,-2.3819,-2.4261,-2.5128,-2.5824,-2.6273,-2.7165,-2.76,-2.76,-2.76,-2.76,-2.76,-2.76,-2.76,-2.76,-2.76,-2.76,-2.76,-2.76,-2.76,-2.76,-2.76,-2.76,-2.76,-2.76,-2.76,-2.76,-2.7537,-2.749,-2.7608,-2.8526,-2.8588,-2.9336,-3.18,-3.2173,-3.2725,-3.4273,-3.507,-3.5457,-3.5489,-3.461,-3.4428,-3.5392,-3.4576,-3.4428,-3.5424,-3.5489,-3.5489,-3.5489,-3.5489,-3.5175,-3.4503,-3.3829,-3.317,-3.2512,-3.1824,-3.1511,-3.1511,-3.1511,-3.1511,-3.1511,-3.1511,-3.1511,-3.1511,-3.1511,-3.1511,-3.1511,-3.1511,-3.1511,-3.1511,-3.1511,-3.1511,-3.1511,-3.1511,-3.1511,-3.1511,-3.1511,-3.1511,-3.1511,-3.1511,-3.1511,-3.1256,-2.9968,-2.9606,-2.9322,-2.7974,-2.76,-2.76,-2.76,-2.76,-2.76,-2.76,-2.76,-2.76,-2.76,-2.76,-2.7405,-2.6746,-2.7151,-2.6941,-2.4933,-2.5158,-2.5136,-2.3789,-2.3595,-2.3595,-2.3595,-2.3595,-2.3595,-2.3595,-2.3595,-2.3595,-2.3595,-2.3595,-2.3595,-2.3595,-2.3595,-2.3595,-2.3595,-2.4896,-2.56,-2.56,-2.6941,-2.76,-2.76,-2.7585,-2.7585,-2.7585,-2.7585,-2.7585,-2.7585,-2.76,-2.76,-2.76,-2.76,-2.76,-2.76,-2.76,-2.76,-2.76,-2.76,-2.76,-2.76,-2.7537,-2.7648,-2.7866,-2.875,-2.8879,-2.9265,-3.0471,-3.005,-3.019,-3.1825,-3.253,-3.3164,-3.3791,-3.4559,-3.5166,-3.5472,-3.5213,-3.4973,-3.4816,-3.4786,-3.4577,-3.4113,-3.4547,-3.4247,-3.3125,-3.2901,-3.2706,-3.2512,-3.1824,-3.1511,-3.1511,-3.1511,-3.1511,-3.1511,-3.1511,-3.1511,-3.1511,-3.1511,-3.1511,-3.1511,-3.1511,-3.1511,-3.1511,-3.1511,-3.1511,-3.1511,-3.1511,-3.1511,-3.1511,-3.1511,-3.1511,-3.1511,-3.1511,-3.1511,-3.1331,-3.0492,-2.9924,-2.94,-2.854,-2.7953,-2.76,-2.76,-2.76,-2.76,-2.76,-2.76,-2.76,-2.76,-2.76,-2.754,-2.7345,-2.7091,-2.6542,-2.5495,-2.5068,-2.459,-2.3729,-2.3595,-2.3595,-2.3595,-2.3595,-2.3595,-2.3595,-2.3595,-2.3595,-2.3595,-2.3595,-2.3595,-2.3595,-2.3595,-2.3595,-2.3595,-2.444,-2.4903,-2.4903,-2.6677,-2.76,-2.7585,-2.7121,-2.6911,-2.6911,-2.6911,-2.6911,-2.6926,-2.7405,-2.76,-2.76,-2.76,-2.76,-2.76,-2.76,-2.76,-2.76,-2.76,-2.76,-2.76,-2.7129,-2.7229,-2.7384,-2.792,-2.8019,-2.827,-2.898,-2.8792,-2.906,-3.043,-3.1306,-3.2005,-3.2562,-3.3348,-3.3953,-3.4308,-3.4471,-3.4656,-3.4891,-3.4414,-3.3903,-3.3514,-3.3619,-3.332,-3.2527,-3.2512,-3.2363,-3.2093,-3.1705,-3.1511,-3.1511,-3.1511,-3.1511,-3.1511,-3.1511,-3.1511,-3.1511,-3.1511,-3.1511,-3.1511,-3.1511,-3.1511,-3.1511,-3.1511,-3.1511,-3.1511,-3.1511,-3.1511,-3.1511,-3.1511,-3.1511,-3.1511,-3.1511,-3.1511,-3.1376,-3.0717,-3.025,-2.9756,-2.8842,-2.8314,-2.7946,-2.767,-2.76,-2.76,-2.76,-2.76,-2.76,-2.76,-2.76,-2.7525,-2.7255,-2.7091,-2.6701,-2.5749,-2.5247,-2.4754,-2.4081,-2.3774,-2.3595,-2.3595,-2.3595,-2.3595,-2.3595,-2.3595,-2.3595,-2.3595,-2.3595,-2.3595,-2.3595,-2.3595,-2.3595,-2.3595,-2.4246,-2.4605,-2.4605,-2.6078,-2.6821,-2.6806,-2.6393,-2.6333,-2.6572,-2.6318,-2.6348,-2.6617,-2.7031,-2.721,-2.7225,-2.748,-2.76,-2.76,-2.76,-2.76,-2.76,-2.76,-2.76,-2.76,-2.6499,-2.6499,-2.6499,-2.6499,-2.6499,-2.6748,-2.7484,-2.8118,-2.8772,-2.9589,-3.0867,-3.1681,-3.1613,-3.1496,-3.1742,-3.2522,-3.2843,-3.3597,-3.4973,-3.3878,-3.3181,-3.3213,-3.2616,-3.2333,-3.2392,-3.2392,-3.2123,-3.1585,-3.1525,-3.1511,-3.1511,-3.1511,-3.1511,-3.1511,-3.1511,-3.1511,-3.1511,-3.1511,-3.1511,-3.1511,-3.1511,-3.1511,-3.1511,-3.1511,-3.1511,-3.1511,-3.1511,-3.1511,-3.1511,-3.1511,-3.1511,-3.1511,-3.1511,-3.1511,-3.1376,-3.0776,-3.0535,-3.0233,-2.9039,-2.8647,-2.845,-2.7765,-2.76,-2.76,-2.76,-2.76,-2.76,-2.76,-2.76,-2.7405,-2.6806,-2.7151,-2.7121,-2.5899,-2.56,-2.5292,-2.4694,-2.4007,-2.3595,-2.3595,-2.3595,-2.3595,-2.3595,-2.3595,-2.3595,-2.3595,-2.3595,-2.3595,-2.3595,-2.3595,-2.3625,-2.3684,-2.4216,-2.4545,-2.4605,-2.5143,-2.5495,-2.5615,-2.5555,-2.5839,-2.6393,-2.5854,-2.5929,-2.6512,-2.6632,-2.6701,-2.6746,-2.7345,-2.76,-2.76,-2.76,-2.76,-2.76,-2.76,-2.76,-2.76,-2.6499,-2.6499,-2.6499,-2.6499,-2.6499,-2.6555,-2.6714,-2.6883,-2.7028,-2.722,-2.9558,-3.0856,-3.0078,-3.2027,-3.3171,-3.2629,-3.2264,-3.2016,-3.1833,-3.1133,-3.0831,-3.099,-3.086,-3.1072,-3.1691,-3.172,-3.1899,-3.2273,-3.1765,-3.1511,-3.1511,-3.1511,-3.1511,-3.1511,-3.1511,-3.1511,-3.1511,-3.1511,-3.1511,-3.1511,-3.1511,-3.1511,-3.1511,-3.1511,-3.1511,-3.1511,-3.1511,-3.1511,-3.1511,-3.1511,-3.1511,-3.1511,-3.1511,-3.1511,-3.1466,-3.1331,-3.0909,-3.033,-2.9588,-2.8982,-2.845,-2.7765,-2.76,-2.76,-2.76,-2.76,-2.76,-2.76,-2.76,-2.7555,-2.7405,-2.7076,-2.6707,-2.6422,-2.551,-2.4769,-2.4634,-2.4007,-2.3595,-2.3595,-2.3595,-2.3595,-2.3595,-2.3595,-2.3595,-2.3595,-2.3595,-2.3595,-2.3595,-2.3595,-2.3849,-2.4365,-2.4007,-2.4066,-2.4605,-2.4216,-2.4567,-2.56,-2.5068,-2.4889,-2.5053,-2.5435,-2.5689,-2.5884,-2.6941,-2.739,-2.739,-2.754,-2.76,-2.76,-2.76,-2.76,-2.76,-2.76,-2.76,-2.76,-2.6499,-2.6499,-2.6499,-2.6499,-2.6499,-2.6499,-2.6499,-2.6499,-2.6499,-2.6499,-2.8105,-2.9113,-2.885,-3.0481,-3.1541,-3.1554,-3.0999,-3.0733,-3.0893,-3.0034,-2.9873,-3.0686,-3.0062,-3.0072,-3.0896,-3.0524,-3.0878,-3.2019,-3.1675,-3.1511,-3.1511,-3.1511,-3.1511,-3.1511,-3.1511,-3.1511,-3.1511,-3.1511,-3.1511,-3.1511,-3.1511,-3.1511,-3.1511,-3.1511,-3.1511,-3.1511,-3.1511,-3.1511,-3.1511,-3.1511,-3.1511,-3.1511,-3.1511,-3.1511,-3.1511,-3.1511,-3.1255,-3.0854,-3.019,-2.9552,-2.8936,-2.8235,-2.7844,-2.76,-2.76,-2.76,-2.76,-2.76,-2.76,-2.76,-2.76,-2.7315,-2.6986,-2.6632,-2.5749,-2.5068,-2.5068,-2.45,-2.4208,-2.4522,-2.4261,-2.3947,-2.3625,-2.3595,-2.3595,-2.3595,-2.3595,-2.3595,-2.3595,-2.3595,-2.3759,-2.4096,-2.3789,-2.3774,-2.4111,-2.3789,-2.3954,-2.4642,-2.4298,-2.4455,-2.5068,-2.4792,-2.5001,-2.5644,-2.6333,-2.6452,-2.6243,-2.721,-2.7405,-2.7151,-2.748,-2.76,-2.76,-2.76,-2.76,-2.76,-2.6499,-2.6499,-2.6499,-2.6499,-2.6499,-2.6499,-2.6499,-2.6499,-2.6499,-2.6499,-2.7104,-2.7657,-2.7908,-2.8461,-2.911,-2.9928,-2.9415,-2.9411,-3.031,-2.9253,-2.9178,-3.0523,-2.9568,-2.9411,-3.0269,-2.9721,-3.0042,-3.1278,-3.1278,-3.138,-3.1511,-3.1511,-3.1511,-3.1511,-3.1511,-3.1511,-3.1511,-3.1511,-3.1511,-3.1511,-3.1511,-3.1511,-3.1511,-3.1511,-3.1511,-3.1511,-3.1511,-3.1511,-3.1511,-3.1511,-3.1511,-3.1511,-3.1511,-3.1511,-3.1511,-3.1511,-3.1511,-3.1333,-3.0553,-2.9982,-2.9404,-2.8629,-2.8013,-2.76,-2.76,-2.76,-2.76,-2.76,-2.76,-2.76,-2.76,-2.76,-2.742,-2.6866,-2.6213,-2.5779,-2.5779,-2.5187,-2.4978,-2.5516,-2.5008,-2.438,-2.3819,-2.367,-2.3595,-2.3595,-2.3595,-2.3595,-2.3595,-2.3595,-2.3655,-2.3774,-2.3655,-2.3655,-2.3774,-2.3655,-2.3595,-2.3595,-2.3595,-2.4178,-2.5226,-2.4238,-2.4388,-2.545,-2.5555,-2.5277,-2.4903,-2.6557,-2.7001,-2.6671,-2.721,-2.7495,-2.76,-2.76,-2.76,-2.76,-2.6499,-2.6499,-2.6499,-2.6499,-2.6499,-2.6499,-2.6499,-2.6499,-2.6499,-2.6499,-2.7653,-2.8235,-2.7488,-2.7883,-2.8246,-2.8393,-2.791,-2.7665,-2.7793,-2.7194,-2.7222,-2.8125,-2.8693,-2.9411,-3.0269,-3.0866,-3.0925,-3.045,-3.045,-3.0807,-3.1511,-3.1511,-3.1511,-3.1511,-3.1511,-3.1511,-3.1511,-3.1511,-3.1511,-3.1511,-3.1511,-3.1511,-3.1511,-3.1511,-3.1511,-3.1511,-3.1511,-3.1511,-3.1511,-3.1511,-3.1511,-3.1511,-3.1511,-3.1511,-3.1511,-3.1511,-3.1511,-3.1241,-3.0033,-2.9663,-2.9297,-2.8049,-2.7675,-2.76,-2.76,-2.76,-2.76,-2.76,-2.76,-2.76,-2.76,-2.76,-2.757,-2.748,-2.6911,-2.6452,-2.6452,-2.5899,-2.551,-2.56,-2.5008,-2.4575,-2.447,-2.3954,-2.3595,-2.3595,-2.3595,-2.3595,-2.3595,-2.3595,-2.3879,-2.4455,-2.3909,-2.3879,-2.4455,-2.3894,-2.3595,-2.3595,-2.3595,-2.3684,-2.3879,-2.4276,-2.456,-2.4769,-2.5337,-2.5555,-2.5495,-2.5764,-2.6153,-2.6602,-2.6692,-2.7091,-2.76,-2.76,-2.76,-2.76,-2.6499,-2.6499,-2.6499,-2.6499,-2.6499,-2.6499,-2.6499,-2.6499,-2.6499,-2.6499,-2.7067,-2.7425,-2.7314,-2.777,-2.7984,-2.767,-2.7419,-2.719,-2.6876,-2.6625,-2.685,-2.767,-2.7637,-2.7986,-2.8844,-2.8748,-2.9002,-2.9566,-3.0524,-3.1161,-3.1511,-3.1511,-3.1511,-3.1511,-3.1511,-3.1511,-3.1511,-3.1511,-3.1511,-3.1511,-3.1511,-3.1511,-3.1511,-3.1511,-3.1511,-3.1511,-3.1511,-3.1511,-3.1511,-3.1511,-3.1511,-3.1511,-3.1511,-3.1511,-3.1511,-3.1511,-3.1511,-3.1286,-3.0368,-2.9863,-2.936,-2.8411,-2.7884,-2.76,-2.76,-2.76,-2.76,-2.76,-2.76,-2.76,-2.76,-2.76,-2.748,-2.7106,-2.6806,-2.6587,-2.6587,-2.6348,-2.6153,-2.6153,-2.557,-2.5008,-2.4649,-2.3999,-2.3595,-2.3595,-2.3595,-2.3595,-2.3595,-2.3595,-2.3744,-2.4022,-2.3759,-2.3744,-2.4044,-2.3744,-2.3595,-2.3595,-2.3595,-2.3804,-2.4156,-2.4066,-2.4246,-2.4619,-2.4903,-2.4814,-2.4537,-2.53,-2.5555,-2.5516,-2.5899,-2.6437,-2.7046,-2.7046,-2.7285,-2.754]}]]